
Distance (Route):
Temperature : 4.5°C
Humidity : 60.5%
Pressure : 0hPa| Receiver | Frames | First received | Last received |
|---|---|---|---|
| DM0DOS-11 | 419 | 2026-09-04 00:06:14 | 2026-09-04 01:36:42 |
| BIOWL1-15 | 248 | 2026-09-04 00:11:07 | 2026-09-04 01:21:52 |
| DL1XH-west | 190 | 2026-09-04 00:28:47 | 2026-09-04 01:03:15 |
| DJ2DS-15 | 174 | 2026-09-04 00:05:10 | 2026-09-04 01:37:16 |
| DL1XH1-15 | 105 | 2026-09-04 00:30:12 | 2026-09-04 01:02:26 |
| WEDDY | 73 | 2026-09-04 01:30:20 | 2026-09-04 01:58:15 |
| BIOWL9-15 | 48 | 2026-09-04 00:13:50 | 2026-09-04 01:22:09 |
| DB0UT-7 | 35 | 2026-09-04 00:16:25 | 2026-09-04 01:08:11 |
| GOEST3-10 | 31 | 2026-09-04 00:44:03 | 2026-09-04 00:54:39 |
| HTAHTA | 27 | 2026-09-04 00:31:43 | 2026-09-04 01:57:06 |
| AU51GT2 | 20 | 2026-09-04 00:31:40 | 2026-09-04 01:00:39 |
| DB0ND-19 | 2 | 2026-09-04 00:40:49 | 2026-09-04 00:59:57 |
| BIOWL7-15 | 1 | 2026-09-04 01:18:03 | 2026-09-04 01:18:03 |
| Receiver | Date | Latitude | Longitude | Direction | Speed | Altitude | Climb | Temperature | Humidity | Pressure | Voltage | Killtimer | Uptime | BKT | XDATA |
|---|---|---|---|---|---|---|---|---|---|---|---|---|---|---|---|
| WEDDY | 2026-09-04 01:58:15 | 53.23338 | 3.00273 | 78° | 117km/h | 3059m | -3.2m/s | 4.5°C | 60.5% | 0hPa | 2.6V | 00:00:00 | 00:00:00 | 00:00:00 | |
| WEDDY | 2026-09-04 01:57:54 | 53.23198 | 2.99254 | 78° | 120km/h | 3128m | -3.5m/s | 4.0°C | 81.8% | 0hPa | 2.6V | 07:32:00 | 00:00:00 | 00:00:00 | |
| WEDDY | 2026-09-04 01:57:33 | 53.23059 | 2.98191 | 79° | 126km/h | 3194m | -2.9m/s | 4.0°C | 55.5% | 0hPa | 2.6V | 07:32:00 | 00:00:00 | 00:00:00 | |
| WEDDY | 2026-09-04 01:57:13 | 53.22932 | 2.97157 | 80° | 124km/h | 3256m | -3.1m/s | 3.7°C | 50.7% | 0hPa | 2.6V | 00:00:00 | 00:00:00 | 00:00:00 | |
| HTAHTA | 2026-09-04 01:57:06 | 53.22868 | 2.96585 | 79° | 126km/h | 3288m | -3.3m/s | 0°C | -1.0% | -1.0hPa | 2.6V | 00:00:00 | 00:00:00 | 00:00:00 | |
| WEDDY | 2026-09-04 01:56:52 | 53.22810 | 2.96063 | 81° | 126km/h | 3319m | -2.8m/s | 3.1°C | 63.6% | 0hPa | 2.6V | 00:00:00 | 00:00:00 | 00:00:00 | |
| WEDDY | 2026-09-04 01:56:31 | 53.22696 | 2.94974 | 81° | 124km/h | 3383m | -3.3m/s | 2.6°C | 69.7% | 0hPa | 2.6V | 00:00:00 | 00:00:00 | 00:00:00 | |
| WEDDY | 2026-09-04 01:56:11 | 53.22597 | 2.93953 | 82° | 120km/h | 3442m | -2.8m/s | 2.1°C | 67.9% | 0hPa | 2.6V | 07:34:00 | 00:00:00 | 00:00:00 | |
| WEDDY | 2026-09-04 01:55:50 | 53.22502 | 2.92901 | 83° | 117km/h | 3505m | -3.0m/s | 1.6°C | 66.9% | 0hPa | 2.6V | 07:34:00 | 00:00:00 | 00:00:00 | |
| WEDDY | 2026-09-04 01:55:29 | 53.22407 | 2.91884 | 81° | 113km/h | 3567m | -3.2m/s | 1.5°C | 42.9% | 0hPa | 2.6V | 07:35:00 | 00:00:00 | 00:00:00 | |
| WEDDY | 2026-09-04 01:55:09 | 53.22306 | 2.90943 | 80° | 113km/h | 3626m | -3.0m/s | 1.1°C | 74.0% | 0hPa | 2.6V | 07:35:00 | 00:00:00 | 00:00:00 | |
| WEDDY | 2026-09-04 01:54:49 | 53.22192 | 2.90005 | 79° | 113km/h | 3687m | -3.1m/s | 0.6°C | 78.6% | 0hPa | 2.6V | 07:35:00 | 00:00:00 | 00:00:00 | |
| WEDDY | 2026-09-04 01:54:28 | 53.22068 | 2.89009 | 79° | 115km/h | 3748m | -3.1m/s | -0.2°C | 89.4% | 0hPa | 2.6V | 00:00:00 | 00:00:00 | 00:00:00 | |
| WEDDY | 2026-09-04 01:54:08 | 53.21944 | 2.88027 | 80° | 120km/h | 3810m | -3.1m/s | -0.1°C | 0% | 0hPa | 2.6V | 00:00:00 | 00:00:00 | 00:00:00 | |
| WEDDY | 2026-09-04 01:53:47 | 53.21844 | 2.86967 | 83° | 122km/h | 3876m | -3.1m/s | -0.1°C | 97.1% | 0hPa | 2.6V | 07:37:00 | 00:00:00 | 00:00:00 | |
| WEDDY | 2026-09-04 01:53:27 | 53.21753 | 2.85954 | 83° | 122km/h | 3939m | -3.2m/s | 0.0°C | 92.4% | 0hPa | 2.6V | 07:37:00 | 00:00:00 | 00:00:00 | |
| WEDDY | 2026-09-04 01:53:06 | 53.21665 | 2.84882 | 84° | 122km/h | 4004m | -3.1m/s | -0.5°C | 94.1% | 0hPa | 2.6V | 07:37:00 | 00:00:00 | 00:00:00 | |
| WEDDY | 2026-09-04 01:52:45 | 53.21586 | 2.83800 | 84° | 124km/h | 4069m | -3.3m/s | -0.8°C | 91.5% | 0hPa | 2.6V | 07:37:00 | 00:00:00 | 00:00:00 | |
| WEDDY | 2026-09-04 01:52:24 | 53.21509 | 2.82714 | 84° | 124km/h | 4135m | -3.0m/s | -1.2°C | 88.2% | 0hPa | 2.6V | 07:37:00 | 00:00:00 | 00:00:00 | |
| WEDDY | 2026-09-04 01:52:03 | 53.21429 | 2.81626 | 84° | 126km/h | 4205m | -3.1m/s | -1.7°C | 86.6% | 0hPa | 2.6V | 07:38:00 | 00:00:00 | 00:00:00 | |
| WEDDY | 2026-09-04 01:51:43 | 53.21353 | 2.80571 | 84° | 126km/h | 4268m | -3.2m/s | -2.1°C | 80.3% | 0hPa | 2.6V | 07:38:00 | 00:00:00 | 00:00:00 | |
| WEDDY | 2026-09-04 01:51:23 | 53.21269 | 2.79506 | 83° | 128km/h | 4333m | -3.6m/s | -2.5°C | 78.8% | 0hPa | 2.6V | 07:38:00 | 00:00:00 | 00:00:00 | |
| WEDDY | 2026-09-04 01:51:02 | 53.21176 | 2.78372 | 83° | 130km/h | 4403m | -2.9m/s | -3.0°C | 76.9% | 0hPa | 2.6V | 07:39:00 | 00:00:00 | 00:00:00 | |
| WEDDY | 2026-09-04 01:50:42 | 53.21082 | 2.77290 | 83° | 131km/h | 4467m | -3.6m/s | -3.2°C | 71.2% | 0hPa | 2.6V | 07:39:00 | 00:00:00 | 00:00:00 | |
| WEDDY | 2026-09-04 01:50:21 | 53.20977 | 2.76121 | 82° | 135km/h | 4535m | -3.0m/s | -3.8°C | 72.1% | 0hPa | 2.6V | 07:40:00 | 00:00:00 | 00:00:00 | |
| WEDDY | 2026-09-04 01:50:00 | 53.20867 | 2.74928 | 82° | 139km/h | 4604m | -3.0m/s | -4.3°C | 72.8% | 0hPa | 2.6V | 07:40:00 | 00:00:00 | 00:00:00 | |
| WEDDY | 2026-09-04 01:49:39 | 53.20760 | 2.73686 | 83° | 144km/h | 4672m | -3.2m/s | -4.6°C | 63.6% | 0hPa | 2.6V | 07:40:00 | 00:00:00 | 00:00:00 | |
| WEDDY | 2026-09-04 01:49:19 | 53.20661 | 2.72474 | 84° | 148km/h | 4741m | -3.0m/s | -5.1°C | 60.4% | 0hPa | 2.6V | 07:41:00 | 00:00:00 | 00:00:00 | |
| WEDDY | 2026-09-04 01:48:58 | 53.20568 | 2.71180 | 84° | 148km/h | 4812m | -3.5m/s | -5.4°C | 48.9% | 0hPa | 2.6V | 07:41:00 | 00:00:00 | 00:00:00 | |
| WEDDY | 2026-09-04 01:48:38 | 53.20478 | 2.69930 | 85° | 150km/h | 4880m | -3.6m/s | -5.9°C | 51.2% | 0hPa | 2.6V | 07:42:00 | 00:00:00 | 00:00:00 | |
| WEDDY | 2026-09-04 01:48:18 | 53.20402 | 2.68666 | 86° | 150km/h | 4945m | -3.0m/s | -6.3°C | 52.6% | 0hPa | 2.6V | 07:42:00 | 00:00:00 | 00:00:00 | |
| WEDDY | 2026-09-04 01:47:57 | 53.20334 | 2.67353 | 86° | 150km/h | 5011m | -2.9m/s | -6.9°C | 52.9% | 0hPa | 2.6V | 07:42:00 | 00:00:00 | 00:00:00 | |
| WEDDY | 2026-09-04 01:47:36 | 53.20264 | 2.66067 | 86° | 144km/h | 5079m | -3.1m/s | -7.4°C | 59.9% | 0hPa | 2.6V | 07:43:00 | 00:00:00 | 00:00:00 | |
| WEDDY | 2026-09-04 01:47:15 | 53.20188 | 2.64794 | 85° | 146km/h | 5145m | -3.4m/s | -7.9°C | 64.0% | 0hPa | 2.6V | 07:43:00 | 00:00:00 | 00:00:00 | |
| WEDDY | 2026-09-04 01:46:54 | 53.20102 | 2.63454 | 85° | 146km/h | 5220m | -3.3m/s | -8.3°C | 64.9% | 0hPa | 2.6V | 07:43:00 | 00:00:00 | 00:00:00 | |
| HTAHTA | 2026-09-04 01:46:46 | 53.20062 | 2.62843 | 83° | 146km/h | 5254m | -3.9m/s | 0°C | -1.0% | -1.0hPa | 2.6V | 00:00:00 | 00:00:00 | 00:00:00 | |
| WEDDY | 2026-09-04 01:46:33 | 53.20023 | 2.62229 | 85° | 148km/h | 5290m | -3.2m/s | -8.8°C | 66.0% | 0hPa | 2.6V | 07:43:00 | 00:00:00 | 00:00:00 | |
| WEDDY | 2026-09-04 01:45:51 | 53.19847 | 2.59648 | 84° | 148km/h | 5434m | -3.3m/s | -10.7°C | 79.5% | 0hPa | 2.6V | 00:00:00 | 00:00:00 | 00:00:00 | |
| WEDDY | 2026-09-04 01:45:30 | 53.19765 | 2.58347 | 85° | 148km/h | 5506m | -3.7m/s | -11.1°C | 83.3% | 0hPa | 2.6V | 00:00:00 | 00:00:00 | 00:00:00 | |
| WEDDY | 2026-09-04 01:45:10 | 53.19685 | 2.57041 | 85° | 148km/h | 5579m | -3.8m/s | -11.4°C | 86.4% | 0hPa | 2.6V | 00:00:00 | 00:00:00 | 00:00:00 | |
| WEDDY | 2026-09-04 01:43:41 | 53.19347 | 2.51590 | 84° | 148km/h | 5889m | -3.3m/s | -14.4°C | 76.6% | 0hPa | 2.6V | 07:46:00 | 00:00:00 | 00:00:00 | |
| WEDDY | 2026-09-04 01:43:19 | 53.19240 | 2.50268 | 84° | 139km/h | 5965m | -3.6m/s | -12.4°C | 89.2% | 0hPa | 2.6V | 07:47:00 | 00:00:00 | 00:00:00 | |
| WEDDY | 2026-09-04 01:42:59 | 53.19160 | 2.49097 | 85° | 142km/h | 6037m | -3.3m/s | -11.7°C | 92.5% | 0hPa | 2.6V | 07:47:00 | 00:00:00 | 00:00:00 | |
| WEDDY | 2026-09-04 01:42:37 | 53.19078 | 2.47788 | 85° | 142km/h | 6119m | -3.8m/s | -12.1°C | 92.8% | 0hPa | 2.6V | 00:00:00 | 00:00:00 | 00:00:00 | |
| WEDDY | 2026-09-04 01:42:12 | 53.18985 | 2.46295 | 85° | 142km/h | 6209m | -3.4m/s | -12.5°C | 93.5% | 0hPa | 2.6V | 00:00:00 | 00:00:00 | 00:00:00 | |
| WEDDY | 2026-09-04 01:41:52 | 53.18908 | 2.45084 | 85° | 146km/h | 6279m | -3.6m/s | -12.8°C | 93.4% | 0hPa | 2.6V | 07:49:00 | 00:00:00 | 00:00:00 | |
| WEDDY | 2026-09-04 01:41:31 | 53.18842 | 2.43798 | 87° | 144km/h | 6354m | -3.3m/s | -13.3°C | 90.9% | 0hPa | 2.6V | 07:49:00 | 00:00:00 | 00:00:00 | |
| WEDDY | 2026-09-04 01:41:10 | 53.18794 | 2.42517 | 88° | 144km/h | 6432m | -4.0m/s | -13.9°C | 92.3% | 0hPa | 2.6V | 07:49:00 | 00:00:00 | 00:00:00 | |
| WEDDY | 2026-09-04 01:40:50 | 53.18759 | 2.41302 | 89° | 146km/h | 6505m | -4.1m/s | -14.4°C | 91.5% | 0hPa | 2.6V | 07:49:00 | 00:00:00 | 00:00:00 | |
| WEDDY | 2026-09-04 01:40:29 | 53.18730 | 2.40022 | 88° | 148km/h | 6584m | -3.6m/s | -15.6°C | 0% | 0hPa | 2.6V | 07:49:00 | 00:00:00 | 00:00:00 | |
| WEDDY | 2026-09-04 01:40:08 | 53.18701 | 2.38731 | 89° | 146km/h | 6664m | -3.5m/s | -15.8°C | 82.3% | 0hPa | 2.6V | 00:00:00 | 00:00:00 | 00:00:00 | |
| WEDDY | 2026-09-04 01:39:48 | 53.18667 | 2.37487 | 88° | 150km/h | 6742m | -4.0m/s | -16.1°C | 83.3% | 0hPa | 2.6V | 00:00:00 | 00:00:00 | 00:00:00 | |
| WEDDY | 2026-09-04 01:39:28 | 53.18631 | 2.36237 | 89° | 150km/h | 6823m | -4.2m/s | -16.0°C | 88.9% | 0hPa | 2.6V | 00:00:00 | 00:00:00 | 00:00:00 | |
| WEDDY | 2026-09-04 01:39:07 | 53.18594 | 2.34910 | 89° | 151km/h | 6906m | -3.8m/s | -16.6°C | 89.1% | 0hPa | 2.6V | 07:51:00 | 00:00:00 | 00:00:00 | |
| WEDDY | 2026-09-04 01:38:46 | 53.18560 | 2.33567 | 88° | 151km/h | 6988m | -3.8m/s | -17.1°C | 90.1% | 0hPa | 2.6V | 07:51:00 | 00:00:00 | 00:00:00 | |
| WEDDY | 2026-09-04 01:38:25 | 53.18514 | 2.32221 | 87° | 151km/h | 7068m | -4.3m/s | -17.6°C | 90.1% | 0hPa | 2.6V | 07:52:00 | 00:00:00 | 00:00:00 | |
| WEDDY | 2026-09-04 01:38:04 | 53.18459 | 2.30860 | 87° | 159km/h | 7150m | -5.0m/s | -18.5°C | 77.4% | 0hPa | 2.6V | 07:52:00 | 00:00:00 | 00:00:00 | |
| WEDDY | 2026-09-04 01:37:43 | 53.18427 | 2.29464 | 91° | 159km/h | 7240m | -2.9m/s | -19.2°C | 81.1% | 0hPa | 2.6V | 07:53:00 | 00:00:00 | 00:00:00 | |
| WEDDY | 2026-09-04 01:37:23 | 53.18414 | 2.28112 | 90° | 161km/h | 7328m | -5.2m/s | -19.8°C | 82.6% | 0hPa | 2.6V | 07:53:00 | 00:00:00 | 00:00:00 | |
| DJ2DS-15 | 2026-09-04 01:37:16 | 53.18387 | 2.26692 | 88° | 161km/h | 7412m | -4.3m/s | -20.4°C | 86.3% | -1.0hPa | 2.6V | 00:00:00 | 00:00:00 | 00:00:00 | |
| WEDDY | 2026-09-04 01:37:01 | 53.18386 | 2.26624 | 89° | 162km/h | 7416m | -3.5m/s | -20.5°C | 86.6% | 0hPa | 2.6V | 07:53:00 | 00:00:00 | 00:00:00 | |
| DM0DOS-11 | 2026-09-04 01:36:42 | 53.18373 | 2.24949 | 89° | 151km/h | 7519m | -4m/s | -21.4°C | 96.4% | 0hPa | 2.6V | 07:53:34 | 02:45:28 | 00:00:00 | |
| DJ2DS-15 | 2026-09-04 01:36:40 | 53.18374 | 2.25077 | 89° | 153km/h | 7511m | -3.3m/s | -21.3°C | 91.2% | -1.0hPa | 2.6V | 00:00:00 | 00:00:00 | 00:00:00 | |
| WEDDY | 2026-09-04 01:36:19 | 53.18363 | 2.23884 | 89° | 150km/h | 7599m | -4.5m/s | -22.2°C | 95.9% | 0hPa | 2.6V | 07:54:00 | 00:00:00 | 00:00:00 | |
| DJ2DS-15 | 2026-09-04 01:36:08 | 53.18343 | 2.23136 | 87° | 150km/h | 7653m | -4.8m/s | -22.7°C | 0% | 0hPa | 2.6V | 00:00:00 | 02:44:59 | 00:00:00 | |
| DJ2DS-15 | 2026-09-04 01:36:04 | 53.18332 | 2.22828 | 86° | 146km/h | 7676m | -4.4m/s | -22.5°C | 88.6% | -1.0hPa | 2.6V | 00:00:00 | 00:00:00 | 00:00:00 | |
| WEDDY | 2026-09-04 01:35:59 | 53.18325 | 2.22641 | 87° | 148km/h | 7690m | -4.4m/s | -22.4°C | 84.7% | 0hPa | 2.6V | 07:54:00 | 00:00:00 | 00:00:00 | |
| DM0DOS-11 | 2026-09-04 01:35:56 | 53.18307 | 2.22138 | 86° | 150km/h | 7724m | -4.3m/s | -21.8°C | 76.5% | 0hPa | 2.6V | 07:54:19 | 02:44:43 | 00:00:00 | |
| DJ2DS-15 | 2026-09-04 01:35:48 | 53.18297 | 2.21886 | 87° | 148km/h | 7742m | -4.1m/s | -22.0°C | 78.0% | 0hPa | 2.5V | 00:00:00 | 02:44:39 | 00:00:00 | |
| DM0DOS-11 | 2026-09-04 01:35:41 | 53.18275 | 2.21141 | 86° | 148km/h | 7793m | -4m/s | -22.3°C | 75% | 0hPa | 2.5V | 07:54:35 | 02:44:27 | 00:00:00 | |
| WEDDY | 2026-09-04 01:35:38 | 53.18280 | 2.21327 | 88° | 148km/h | 7781m | -4.1m/s | -22.2°C | 71.3% | 0hPa | 2.5V | 07:54:00 | 00:00:00 | 00:00:00 | |
| DM0DOS-11 | 2026-09-04 01:35:30 | 53.18254 | 2.20456 | 87° | 150km/h | 7840m | -4.4m/s | -22.8°C | 75.6% | 0hPa | 2.5V | 07:54:46 | 02:44:16 | 00:00:00 | |
| DJ2DS-15 | 2026-09-04 01:35:28 | 53.18258 | 2.20581 | 87° | 148km/h | 7832m | -4.7m/s | -22.7°C | 71.7% | -1.0hPa | 2.6V | 00:00:00 | 00:00:00 | 00:00:00 | |
| DM0DOS-11 | 2026-09-04 01:35:16 | 53.18233 | 2.19827 | 86° | 150km/h | 7882m | -4.4m/s | -23.1°C | 74.4% | 0hPa | 2.6V | 07:54:56 | 02:44:06 | 00:00:00 | |
| DM0DOS-11 | 2026-09-04 01:35:11 | 53.18213 | 2.19198 | 86° | 150km/h | 7926m | -4.3m/s | -23.5°C | 76.3% | 0hPa | 2.6V | 07:55:06 | 02:43:56 | 00:00:00 | |
| WEDDY | 2026-09-04 01:34:55 | 53.18196 | 2.18633 | 88° | 150km/h | 7965m | -4.5m/s | -23.8°C | 72.4% | 0hPa | 2.5V | 07:55:00 | 00:00:00 | 00:00:00 | |
| DM0DOS-11 | 2026-09-04 01:34:50 | 53.18179 | 2.18126 | 86° | 151km/h | 8001m | -4.5m/s | -24.1°C | 78% | 0hPa | 2.5V | 07:55:23 | 02:43:39 | 00:00:00 | |
| DM0DOS-11 | 2026-09-04 01:34:36 | 53.18149 | 2.17295 | 86° | 151km/h | 8059m | -4.6m/s | -24.5°C | 80.1% | 0hPa | 2.5V | 07:55:36 | 02:43:26 | 00:00:00 | |
| WEDDY | 2026-09-04 01:34:32 | 53.18144 | 2.17167 | 88° | 151km/h | 8068m | -4.5m/s | -24.6°C | 75.6% | 0hPa | 2.5V | 07:55:00 | 00:00:00 | 00:00:00 | |
| DM0DOS-11 | 2026-09-04 01:34:30 | 53.18126 | 2.16653 | 86° | 153km/h | 8104m | -4.2m/s | -24.8°C | 79.1% | 0hPa | 2.5V | 07:55:46 | 02:43:16 | 00:00:00 | |
| DM0DOS-11 | 2026-09-04 01:34:20 | 53.18102 | 2.16010 | 86° | 153km/h | 8149m | -4.5m/s | -25.2°C | 80.3% | 0hPa | 2.6V | 07:55:56 | 02:43:06 | 00:00:00 | |
| DJ2DS-15 | 2026-09-04 01:34:16 | 53.18102 | 2.16010 | 86° | 153km/h | 8149m | -4.5m/s | -25.2°C | 75.6% | -1.0hPa | 2.6V | 00:00:00 | 00:00:00 | 00:00:00 | |
| DM0DOS-11 | 2026-09-04 01:34:10 | 53.18076 | 2.15362 | 86° | 157km/h | 8194m | -4.2m/s | -25.6°C | 78.7% | 0hPa | 2.6V | 07:56:06 | 02:42:56 | 00:00:00 | |
| WEDDY | 2026-09-04 01:34:08 | 53.18086 | 2.15622 | 87° | 155km/h | 8176m | -4.7m/s | -25.4°C | 74.7% | 0hPa | 2.5V | 07:56:00 | 00:00:00 | 00:00:00 | |
| DM0DOS-11 | 2026-09-04 01:33:56 | 53.18038 | 2.14441 | 85° | 157km/h | 8257m | -4.3m/s | -26.1°C | 78.1% | 0hPa | 2.5V | 07:56:20 | 02:42:42 | 00:00:00 | |
| WEDDY | 2026-09-04 01:33:47 | 53.18030 | 2.14242 | 87° | 157km/h | 8271m | -4.9m/s | -26.2°C | 74.0% | 0hPa | 2.5V | 07:56:00 | 00:00:00 | 00:00:00 | |
| WEDDY | 2026-09-04 01:33:26 | 53.17975 | 2.12840 | 88° | 159km/h | 8363m | -4.3m/s | -26.9°C | 72.6% | 0hPa | 2.5V | 07:57:00 | 00:00:00 | 00:00:00 | |
| WEDDY | 2026-09-04 01:33:06 | 53.17919 | 2.11423 | 87° | 162km/h | 8453m | -3.8m/s | -27.6°C | 73.7% | 0hPa | 2.5V | 07:57:00 | 00:00:00 | 00:00:00 | |
| DJ2DS-15 | 2026-09-04 01:33:03 | 53.17911 | 2.11219 | 86° | 161km/h | 8466m | -4.5m/s | -27.7°C | 74.2% | -1.0hPa | 2.5V | 00:00:00 | 00:00:00 | 00:00:00 | |
| WEDDY | 2026-09-04 01:32:45 | 53.17871 | 2.10052 | 88° | 164km/h | 8537m | -4.7m/s | -28.2°C | 78.1% | 0hPa | 2.5V | 07:57:00 | 00:00:00 | 00:00:00 | |
| DJ2DS-15 | 2026-09-04 01:32:27 | 53.17826 | 2.08668 | 87° | 164km/h | 8623m | -4.1m/s | -28.9°C | 81.2% | -1.0hPa | 2.5V | 00:00:00 | 00:00:00 | 00:00:00 | |
| DM0DOS-11 | 2026-09-04 01:32:24 | 53.17814 | 2.08181 | 87° | 166km/h | 8654m | -4.4m/s | -29.1°C | 88.1% | 0hPa | 2.5V | 07:57:52 | 02:41:10 | 00:00:00 | |
| WEDDY | 2026-09-04 01:32:04 | 53.17794 | 2.07212 | 89° | 162km/h | 8714m | -4.3m/s | -29.6°C | 83.6% | 0hPa | 2.5V | 07:58:00 | 00:00:00 | 00:00:00 | |
| DJ2DS-15 | 2026-09-04 01:31:51 | 53.17777 | 2.06250 | 88° | 161km/h | 8772m | -3.8m/s | -30.1°C | 85.0% | -1.0hPa | 2.5V | 00:00:00 | 00:00:00 | 00:00:00 | |
| DM0DOS-11 | 2026-09-04 01:31:50 | 53.17774 | 2.06045 | 88° | 162km/h | 8785m | -4m/s | -30.2°C | 91.9% | 0hPa | 2.5V | 07:58:23 | 02:40:39 | 00:00:00 | |
| DM0DOS-11 | 2026-09-04 01:31:43 | 53.17762 | 2.05358 | 88° | 164km/h | 8829m | -4m/s | -30.6°C | 92.4% | 0hPa | 2.5V | 07:58:33 | 02:40:29 | 00:00:00 | |
| DM0DOS-11 | 2026-09-04 01:31:30 | 53.17750 | 2.04545 | 89° | 159km/h | 8879m | -4.5m/s | -31.1°C | 89.7% | 0hPa | 2.5V | 07:58:45 | 02:40:17 | 00:00:00 | |
| WEDDY | 2026-09-04 01:31:22 | 53.17748 | 2.04345 | 90° | 159km/h | 8892m | -4.3m/s | -31.2°C | 82.6% | 0hPa | 2.5V | 07:59:00 | 00:00:00 | 00:00:00 | |
| DM0DOS-11 | 2026-09-04 01:31:21 | 53.17743 | 2.03880 | 88° | 157km/h | 8921m | -4.3m/s | -31.4°C | 89.5% | 0hPa | 2.5V | 07:58:55 | 02:40:07 | 00:00:00 | |
| DJ2DS-15 | 2026-09-04 01:31:15 | 53.17743 | 2.03814 | 89° | 157km/h | 8925m | -4.6m/s | -31.5°C | 83.2% | -1.0hPa | 2.5V | 00:00:00 | 00:00:00 | 00:00:00 | |
| DM0DOS-11 | 2026-09-04 01:31:10 | 53.17735 | 2.03225 | 88° | 155km/h | 8964m | -4m/s | -31.8°C | 92.4% | 0hPa | 2.5V | 07:59:05 | 02:39:57 | 00:00:00 | |
| DJ2DS-15 | 2026-09-04 01:31:10 | 53.17739 | 2.03486 | 89° | 155km/h | 8947m | -4.0m/s | -31.6°C | 91.2% | 0hPa | 2.5V | 00:00:00 | 02:40:01 | 00:00:00 | |
| WEDDY | 2026-09-04 01:31:01 | 53.17732 | 2.02964 | 90° | 155km/h | 8981m | -4.2m/s | 0°C | 0% | 0hPa | 2.5V | 07:59:00 | 00:00:00 | 00:00:00 | |
| DM0DOS-11 | 2026-09-04 01:31:00 | 53.17726 | 2.02574 | 88° | 155km/h | 9005m | -4.1m/s | -32.2°C | 94.3% | 0hPa | 2.5V | 07:59:15 | 02:39:47 | 00:00:00 | |
| DM0DOS-11 | 2026-09-04 01:30:50 | 53.17704 | 2.01929 | 85° | 155km/h | 9045m | -4m/s | -32.5°C | 94.3% | 0hPa | 2.5V | 07:59:25 | 02:39:37 | 00:00:00 | |
| DJ2DS-15 | 2026-09-04 01:30:50 | 53.17715 | 2.02188 | 87° | 155km/h | 9029m | -3.8m/s | -32.3°C | 94.9% | 0hPa | 2.5V | 00:00:00 | 02:39:41 | 00:00:00 | |
| WEDDY | 2026-09-04 01:30:41 | 53.17694 | 2.01671 | 87° | 153km/h | 9061m | -4.0m/s | 0°C | 0% | 0hPa | 2.5V | 00:00:00 | 00:00:00 | 00:00:00 | |
| DJ2DS-15 | 2026-09-04 01:30:39 | 53.17686 | 2.01476 | 86° | 153km/h | 9074m | -4.0m/s | -32.7°C | 81.1% | -1.0hPa | 2.5V | 00:00:00 | 00:00:00 | 00:00:00 | |
| DM0DOS-11 | 2026-09-04 01:30:36 | 53.17676 | 2.01215 | 86° | 155km/h | 9090m | -4.3m/s | -32.8°C | 85.8% | 0hPa | 2.5V | 07:59:36 | 02:39:26 | 00:00:00 | |
| DM0DOS-11 | 2026-09-04 01:30:26 | 53.17648 | 2.00489 | 86° | 157km/h | 9137m | -4.3m/s | -33.1°C | 80.5% | 0hPa | 2.5V | 07:59:47 | 02:39:15 | 00:00:00 | |
| DJ2DS-15 | 2026-09-04 01:30:26 | 53.17653 | 2.00621 | 87° | 164km/h | 9128m | -4.6m/s | -33.0°C | 81.1% | 0hPa | 2.5V | 07:59:00 | 02:39:17 | 00:00:00 | |
| WEDDY | 2026-09-04 01:30:20 | 53.17640 | 2.00291 | 88° | 157km/h | 9150m | -4.3m/s | 0°C | 0% | 0hPa | 2.4V | 00:00:00 | 00:00:00 | 00:00:00 | |
| DM0DOS-11 | 2026-09-04 01:30:02 | 53.17579 | 1.98679 | 86° | 164km/h | 9250m | -4.5m/s | -34.1°C | 80.3% | 0hPa | 2.4V | 08:00:14 | 02:38:48 | 00:00:00 | |
| DM0DOS-11 | 2026-09-04 01:29:50 | 53.17556 | 1.97988 | 87° | 164km/h | 9295m | -4.7m/s | -34.4°C | 79.4% | 0hPa | 2.5V | 08:00:24 | 02:38:38 | 00:00:00 | |
| DM0DOS-11 | 2026-09-04 01:29:42 | 53.17533 | 1.97290 | 87° | 168km/h | 9338m | -4.3m/s | -34.8°C | 77.8% | 0hPa | 2.5V | 08:00:34 | 02:38:28 | 00:00:00 | |
| DM0DOS-11 | 2026-09-04 01:29:30 | 53.17512 | 1.96583 | 86° | 168km/h | 9382m | -4.4m/s | -35.2°C | 74.1% | 0hPa | 2.4V | 08:00:44 | 02:38:18 | 00:00:00 | |
| DJ2DS-15 | 2026-09-04 01:29:27 | 53.17512 | 1.96583 | 86° | 168km/h | 9382m | -4.4m/s | -35.2°C | 67.9% | -1.0hPa | 2.4V | 00:00:00 | 00:00:00 | 00:00:00 | |
| DM0DOS-11 | 2026-09-04 01:29:22 | 53.17484 | 1.95870 | 85° | 170km/h | 9425m | -3.7m/s | -35.4°C | 72.7% | 0hPa | 2.4V | 08:00:54 | 02:38:08 | 00:00:00 | |
| DJ2DS-15 | 2026-09-04 01:29:20 | 53.17493 | 1.96085 | 87° | 173km/h | 9413m | -4.2m/s | -35.3°C | 72.6% | 0hPa | 2.4V | 00:00:00 | 02:38:11 | 00:00:00 | |
| DM0DOS-11 | 2026-09-04 01:29:10 | 53.17452 | 1.95145 | 85° | 173km/h | 9466m | -4.1m/s | -35.5°C | 69.7% | 0hPa | 2.4V | 08:01:04 | 02:37:58 | 00:00:00 | |
| DM0DOS-11 | 2026-09-04 01:29:02 | 53.17415 | 1.94412 | 85° | 175km/h | 9507m | -4.6m/s | -35.8°C | 69.5% | 0hPa | 2.4V | 08:01:14 | 02:37:48 | 00:00:00 | |
| DJ2DS-15 | 2026-09-04 01:28:51 | 53.17393 | 1.93971 | 84° | 175km/h | 9532m | -4.2m/s | -36.0°C | 63.4% | -1.0hPa | 2.4V | 00:00:00 | 00:00:00 | 00:00:00 | |
| DM0DOS-11 | 2026-09-04 01:28:49 | 53.17377 | 1.93674 | 85° | 179km/h | 9549m | -4.3m/s | -36.1°C | 69.3% | 0hPa | 2.4V | 08:01:24 | 02:37:38 | 00:00:00 | |
| DM0DOS-11 | 2026-09-04 01:28:42 | 53.17340 | 1.92930 | 85° | 179km/h | 9591m | -4.3m/s | -36.4°C | 68.7% | 0hPa | 2.4V | 08:01:34 | 02:37:28 | 00:00:00 | |
| DJ2DS-15 | 2026-09-04 01:28:40 | 53.17351 | 1.93153 | 86° | 179km/h | 9578m | -4.2m/s | -36.3°C | 68.7% | 0hPa | 2.5V | 00:00:00 | 02:37:31 | 00:00:00 | |
| DM0DOS-11 | 2026-09-04 01:28:30 | 53.17305 | 1.92181 | 85° | 179km/h | 9634m | -3.9m/s | -36.8°C | 69% | 0hPa | 2.4V | 08:01:44 | 02:37:18 | 00:00:00 | |
| DM0DOS-11 | 2026-09-04 01:28:22 | 53.17270 | 1.91427 | 85° | 181km/h | 9674m | -4.1m/s | -37.1°C | 66.1% | 0hPa | 2.5V | 08:01:54 | 02:37:08 | 00:00:00 | |
| DJ2DS-15 | 2026-09-04 01:28:20 | 53.17280 | 1.91654 | 86° | 183km/h | 9662m | -4.1m/s | -37.0°C | 66.5% | 0hPa | 2.5V | 00:00:00 | 02:37:11 | 00:00:00 | |
| DJ2DS-15 | 2026-09-04 01:28:15 | 53.17263 | 1.91276 | 85° | 179km/h | 9683m | -4.2m/s | -37.2°C | 59.8% | -1.0hPa | 2.5V | 00:00:00 | 00:00:00 | 00:00:00 | |
| DM0DOS-11 | 2026-09-04 01:28:10 | 53.17236 | 1.90666 | 86° | 184km/h | 9716m | -4.3m/s | -37.5°C | 65.4% | 0hPa | 2.5V | 08:02:04 | 02:36:58 | 00:00:00 | |
| DM0DOS-11 | 2026-09-04 01:28:02 | 53.17208 | 1.89894 | 86° | 184km/h | 9755m | -3.9m/s | -37.9°C | 63.9% | 0hPa | 2.4V | 08:02:14 | 02:36:48 | 00:00:00 | |
| DJ2DS-15 | 2026-09-04 01:28:00 | 53.17217 | 1.90126 | 87° | 184km/h | 9743m | -3.9m/s | -37.7°C | 64.5% | 0hPa | 2.4V | 00:00:00 | 02:36:51 | 00:00:00 | |
| DM0DOS-11 | 2026-09-04 01:27:50 | 53.17183 | 1.89119 | 87° | 186km/h | 9796m | -4m/s | -38.3°C | 65.1% | 0hPa | 2.4V | 08:02:24 | 02:36:38 | 00:00:00 | |
| DM0DOS-11 | 2026-09-04 01:27:42 | 53.17169 | 1.88346 | 88° | 183km/h | 9838m | -4.1m/s | -38.7°C | 66% | 0hPa | 2.5V | 08:02:34 | 02:36:28 | 00:00:00 | |
| DJ2DS-15 | 2026-09-04 01:27:40 | 53.17172 | 1.88577 | 89° | 183km/h | 9826m | -3.9m/s | -38.5°C | 66.2% | 0hPa | 2.4V | 08:02:00 | 02:36:31 | 00:00:00 | |
| DJ2DS-15 | 2026-09-04 01:27:39 | 53.17171 | 1.88500 | 88° | 183km/h | 9829m | -4.3m/s | -38.6°C | 59.9% | -1.0hPa | 2.4V | 00:00:00 | 00:00:00 | 00:00:00 | |
| DM0DOS-11 | 2026-09-04 01:27:31 | 53.17164 | 1.87577 | 89° | 183km/h | 9881m | -4.1m/s | -39.1°C | 66.9% | 0hPa | 2.4V | 08:02:44 | 02:36:18 | 00:00:00 | |
| DM0DOS-11 | 2026-09-04 01:27:20 | 53.17163 | 1.86812 | 90° | 183km/h | 9926m | -5.1m/s | -39.5°C | 67.6% | 0hPa | 2.4V | 08:02:54 | 02:36:08 | 00:00:00 | |
| DJ2DS-15 | 2026-09-04 01:27:20 | 53.17163 | 1.87041 | 91° | 179km/h | 9913m | -4.3m/s | -39.3°C | 67.6% | 0hPa | 2.4V | 00:00:00 | 02:36:11 | 00:00:00 | |
| DM0DOS-11 | 2026-09-04 01:27:11 | 53.17166 | 1.86055 | 90° | 177km/h | 9972m | -4.5m/s | -39.9°C | 68.6% | 0hPa | 2.4V | 08:03:04 | 02:35:58 | 00:00:00 | |
| DJ2DS-15 | 2026-09-04 01:27:03 | 53.17168 | 1.85689 | 90° | 172km/h | 9993m | -4.2m/s | -40.1°C | 62.2% | -1.0hPa | 2.5V | 00:00:00 | 00:00:00 | 00:00:00 | |
| DM0DOS-11 | 2026-09-04 01:27:01 | 53.17167 | 1.85327 | 89° | 172km/h | 10015m | -4.3m/s | -40.3°C | 68% | 0hPa | 2.5V | 08:03:14 | 02:35:48 | 00:00:00 | |
| DJ2DS-15 | 2026-09-04 01:27:00 | 53.17168 | 1.85544 | 90° | 172km/h | 10002m | -4.3m/s | -40.1°C | 68.6% | 0hPa | 2.4V | 00:00:00 | 02:35:51 | 00:00:00 | |
| DM0DOS-11 | 2026-09-04 01:26:51 | 53.17162 | 1.84604 | 89° | 172km/h | 10060m | -4.3m/s | -40.6°C | 67.2% | 0hPa | 2.4V | 08:03:24 | 02:35:38 | 00:00:00 | |
| DM0DOS-11 | 2026-09-04 01:26:40 | 53.17155 | 1.83877 | 89° | 173km/h | 10104m | -4.5m/s | -40.9°C | 71.4% | 0hPa | 2.4V | 08:03:34 | 02:35:28 | 00:00:00 | |
| DM0DOS-11 | 2026-09-04 01:26:31 | 53.17148 | 1.83149 | 88° | 173km/h | 10148m | -4.4m/s | -41.3°C | 69.1% | 0hPa | 2.5V | 08:03:44 | 02:35:18 | 00:00:00 | |
| DJ2DS-15 | 2026-09-04 01:26:27 | 53.17144 | 1.82930 | 88° | 172km/h | 10161m | -4.4m/s | -41.4°C | 61.9% | -1.0hPa | 2.5V | 00:00:00 | 00:00:00 | 00:00:00 | |
| DM0DOS-11 | 2026-09-04 01:26:21 | 53.17135 | 1.82420 | 88° | 173km/h | 10192m | -4.4m/s | -41.7°C | 67.6% | 0hPa | 2.5V | 08:03:54 | 02:35:08 | 00:00:00 | |
| DM0DOS-11 | 2026-09-04 01:26:11 | 53.17118 | 1.81691 | 87° | 173km/h | 10239m | -4.7m/s | -42.1°C | 64.5% | 0hPa | 2.4V | 08:04:04 | 02:34:58 | 00:00:00 | |
| DJ2DS-15 | 2026-09-04 01:26:03 | 53.17109 | 1.81398 | 88° | 173km/h | 10257m | -4.4m/s | -42.2°C | 64.8% | 0hPa | 2.4V | 00:00:00 | 02:34:54 | 00:00:00 | |
| DM0DOS-11 | 2026-09-04 01:25:59 | 53.17096 | 1.80960 | 87° | 173km/h | 10283m | -4.3m/s | -42.5°C | 67% | 0hPa | 2.4V | 08:04:14 | 02:34:48 | 00:00:00 | |
| DM0DOS-11 | 2026-09-04 01:25:51 | 53.17072 | 1.80231 | 86° | 173km/h | 10327m | -4.6m/s | -42.9°C | 62.8% | 0hPa | 2.4V | 08:04:24 | 02:34:38 | 00:00:00 | |
| DJ2DS-15 | 2026-09-04 01:25:51 | 53.17080 | 1.80449 | 86° | 173km/h | 10314m | -4.3m/s | -42.8°C | 57.0% | -1.0hPa | 2.4V | 00:00:00 | 00:00:00 | 00:00:00 | |
| DJ2DS-15 | 2026-09-04 01:25:43 | 53.17060 | 1.79939 | 87° | 173km/h | 10346m | -4.3m/s | -43.0°C | 64.4% | 0hPa | 2.4V | 00:00:00 | 02:34:34 | 00:00:00 | |
| DM0DOS-11 | 2026-09-04 01:25:39 | 53.17041 | 1.79500 | 85° | 173km/h | 10372m | -4.5m/s | -43.3°C | 68.6% | 0hPa | 2.4V | 08:04:34 | 02:34:28 | 00:00:00 | |
| DM0DOS-11 | 2026-09-04 01:25:30 | 53.17007 | 1.78770 | 85° | 175km/h | 10416m | -4.2m/s | -43.6°C | 74.3% | 0hPa | 2.4V | 08:04:44 | 02:34:18 | 00:00:00 | |
| DJ2DS-15 | 2026-09-04 01:25:23 | 53.16992 | 1.78477 | 86° | 175km/h | 10435m | -4.4m/s | -43.8°C | 74.9% | 0hPa | 2.4V | 00:00:00 | 02:34:14 | 00:00:00 | |
| DM0DOS-11 | 2026-09-04 01:25:20 | 53.16969 | 1.78038 | 84° | 175km/h | 10461m | -4.6m/s | -44°C | 75.6% | 0hPa | 2.4V | 08:04:54 | 02:34:08 | 00:00:00 | |
| DJ2DS-15 | 2026-09-04 01:25:15 | 53.16956 | 1.77818 | 84° | 175km/h | 10475m | -4.6m/s | -44.2°C | 67.2% | -1.0hPa | 2.5V | 00:00:00 | 00:00:00 | 00:00:00 | |
| DM0DOS-11 | 2026-09-04 01:25:10 | 53.16926 | 1.77303 | 84° | 175km/h | 10507m | -4.5m/s | -44.5°C | 76.4% | 0hPa | 2.5V | 08:05:04 | 02:33:58 | 00:00:00 | |
| DJ2DS-15 | 2026-09-04 01:25:03 | 53.16908 | 1.77008 | 85° | 179km/h | 10525m | -4.5m/s | -44.6°C | 76.2% | 0hPa | 2.4V | 00:00:00 | 02:33:54 | 00:00:00 | |
| DM0DOS-11 | 2026-09-04 01:24:58 | 53.16881 | 1.76565 | 83° | 177km/h | 10553m | -4.6m/s | -44.9°C | 75% | 0hPa | 2.5V | 08:05:14 | 02:33:48 | 00:00:00 | |
| DM0DOS-11 | 2026-09-04 01:24:50 | 53.16833 | 1.75818 | 83° | 181km/h | 10599m | -4.5m/s | -45.3°C | 74.2% | 0hPa | 2.4V | 08:05:24 | 02:33:38 | 00:00:00 | |
| DJ2DS-15 | 2026-09-04 01:24:43 | 53.16812 | 1.75515 | 84° | 183km/h | 10617m | -4.5m/s | -45.4°C | 75.4% | 0hPa | 2.4V | 00:00:00 | 02:33:34 | 00:00:00 | |
| DM0DOS-11 | 2026-09-04 01:24:40 | 53.16782 | 1.75059 | 83° | 183km/h | 10644m | -4.6m/s | -45.7°C | 77% | 0hPa | 2.4V | 08:05:34 | 02:33:28 | 00:00:00 | |
| DJ2DS-15 | 2026-09-04 01:24:39 | 53.16787 | 1.75135 | 83° | 183km/h | 10639m | -4.6m/s | -45.7°C | 68.2% | -1.0hPa | 2.5V | 00:00:00 | 00:00:00 | 00:00:00 | |
| DM0DOS-11 | 2026-09-04 01:24:28 | 53.16732 | 1.74293 | 83° | 183km/h | 10690m | -4.6m/s | -46.1°C | 75.9% | 0hPa | 2.5V | 08:05:44 | 02:33:18 | 00:00:00 | |
| DJ2DS-15 | 2026-09-04 01:24:23 | 53.16711 | 1.73986 | 84° | 186km/h | 10709m | -4.5m/s | -46.2°C | 74.8% | 0hPa | 2.5V | 00:00:00 | 02:33:14 | 00:00:00 | |
| DM0DOS-11 | 2026-09-04 01:24:20 | 53.16680 | 1.73522 | 83° | 186km/h | 10737m | -4.5m/s | -46.5°C | 75.9% | 0hPa | 2.5V | 08:05:54 | 02:33:08 | 00:00:00 | |
| DM0DOS-11 | 2026-09-04 01:24:08 | 53.16628 | 1.72743 | 83° | 186km/h | 10782m | -4.6m/s | -46.9°C | 76.5% | 0hPa | 2.4V | 08:06:04 | 02:32:58 | 00:00:00 | |
| DJ2DS-15 | 2026-09-04 01:24:03 | 53.16608 | 1.72431 | 84° | 188km/h | 10801m | -4.5m/s | -47.0°C | 76.6% | 0hPa | 2.4V | 08:06:00 | 02:32:54 | 00:00:00 | |
| DM0DOS-11 | 2026-09-04 01:24:00 | 53.16576 | 1.71880 | 85° | 190km/h | 10833m | -4.4m/s | -47.4°C | 76.8% | 0hPa | 2.4V | 08:06:15 | 02:32:47 | 00:00:00 | |
| DM0DOS-11 | 2026-09-04 01:23:50 | 53.16539 | 1.71088 | 86° | 188km/h | 10877m | -4.3m/s | -47.8°C | 78.3% | 0hPa | 2.4V | 08:06:25 | 02:32:37 | 00:00:00 | |
| DJ2DS-15 | 2026-09-04 01:23:43 | 53.16530 | 1.70851 | 87° | 184km/h | 10891m | -4.4m/s | -47.8°C | 79.6% | 0hPa | 2.5V | 00:00:00 | 02:32:34 | 00:00:00 | |
| DM0DOS-11 | 2026-09-04 01:23:38 | 53.16512 | 1.70303 | 86° | 186km/h | 10921m | -4.3m/s | -48.1°C | 82.8% | 0hPa | 2.5V | 08:06:35 | 02:32:27 | 00:00:00 | |
| DM0DOS-11 | 2026-09-04 01:23:30 | 53.16488 | 1.69528 | 87° | 183km/h | 10965m | -4.5m/s | -48.5°C | 85.4% | 0hPa | 2.4V | 08:06:45 | 02:32:17 | 00:00:00 | |
| DJ2DS-15 | 2026-09-04 01:23:23 | 53.16482 | 1.69297 | 88° | 183km/h | 10979m | -4.1m/s | -48.6°C | 85.2% | 0hPa | 2.4V | 00:00:00 | 02:32:14 | 00:00:00 | |
| DM0DOS-11 | 2026-09-04 01:23:18 | 53.16467 | 1.68761 | 87° | 183km/h | 11009m | -4.5m/s | -48.9°C | 83.9% | 0hPa | 2.4V | 08:06:55 | 02:32:07 | 00:00:00 | |
| DM0DOS-11 | 2026-09-04 01:23:11 | 53.16448 | 1.67994 | 88° | 183km/h | 11054m | -4.4m/s | -49.3°C | 81.4% | 0hPa | 2.5V | 08:07:05 | 02:31:57 | 00:00:00 | |
| DJ2DS-15 | 2026-09-04 01:23:03 | 53.16443 | 1.67764 | 89° | 183km/h | 11067m | -4.3m/s | -49.3°C | 81.5% | 0hPa | 2.4V | 00:00:00 | 02:31:54 | 00:00:00 | |
| DM0DOS-11 | 2026-09-04 01:22:58 | 53.16434 | 1.67227 | 88° | 183km/h | 11097m | -4.2m/s | -49.6°C | 81.2% | 0hPa | 2.4V | 08:07:15 | 02:31:47 | 00:00:00 | |
| DM0DOS-11 | 2026-09-04 01:22:50 | 53.16424 | 1.66455 | 89° | 183km/h | 11140m | -4.4m/s | -50°C | 76.2% | 0hPa | 2.4V | 08:07:25 | 02:31:37 | 00:00:00 | |
| DJ2DS-15 | 2026-09-04 01:22:43 | 53.16422 | 1.66224 | 90° | 181km/h | 11153m | -4.3m/s | -50.0°C | 75.3% | 0hPa | 2.5V | 00:00:00 | 02:31:34 | 00:00:00 | |
| DM0DOS-11 | 2026-09-04 01:22:40 | 53.16420 | 1.65688 | 89° | 181km/h | 11183m | -4.3m/s | -50.4°C | 74.4% | 0hPa | 2.5V | 08:07:35 | 02:31:27 | 00:00:00 | |
| DM0DOS-11 | 2026-09-04 01:22:30 | 53.16420 | 1.64930 | 90° | 179km/h | 11227m | -4.5m/s | -50.8°C | 75.2% | 0hPa | 2.4V | 08:07:45 | 02:31:17 | 00:00:00 | |
| DJ2DS-15 | 2026-09-04 01:22:22 | 53.16420 | 1.64630 | 90° | 173km/h | 11244m | -4.4m/s | -50.9°C | 75.9% | 0hPa | 2.4V | 00:00:00 | 02:31:13 | 00:00:00 | |
| DM0DOS-11 | 2026-09-04 01:22:18 | 53.16419 | 1.64185 | 89° | 175km/h | 11270m | -4.2m/s | -51.1°C | 76.9% | 0hPa | 2.4V | 08:07:55 | 02:31:07 | 00:00:00 | |
| DJ2DS-15 | 2026-09-04 01:22:14 | 53.16419 | 1.64039 | 89° | 173km/h | 11279m | -4.5m/s | -51.2°C | 66.9% | -1.0hPa | 2.5V | 00:00:00 | 00:00:00 | 00:00:00 | |
| DM0DOS-11 | 2026-09-04 01:22:10 | 53.16413 | 1.63457 | 88° | 172km/h | 11314m | -4.3m/s | -51.6°C | 79.5% | 0hPa | 2.5V | 08:08:05 | 02:30:57 | 00:00:00 | |
| BIOWL9-15 | 2026-09-04 01:22:09 | 53.16398 | 1.62735 | 87° | 172km/h | 11361m | -4.7m/s | -52.0°C | 71.1% | -1.0hPa | 2.4V | 00:00:00 | 00:00:00 | 00:00:00 | |
| DJ2DS-15 | 2026-09-04 01:22:02 | 53.16408 | 1.63168 | 88° | 172km/h | 11332m | -4.4m/s | -51.7°C | 80.6% | 0hPa | 2.4V | 00:00:00 | 02:30:53 | 00:00:00 | |
| DM0DOS-11 | 2026-09-04 01:22:00 | 53.16396 | 1.62663 | 87° | 172km/h | 11365m | -4.7m/s | -52°C | 82.2% | 0hPa | 2.4V | 08:08:16 | 02:30:46 | 00:00:00 | |
| BIOWL1-15 | 2026-09-04 01:21:52 | 53.16390 | 1.62446 | 87° | 172km/h | 11379m | -4.8m/s | -52.2°C | 80.2% | 0hPa | 2.4V | 08:08:35 | 02:30:43 | 00:00:00 | |
| DM0DOS-11 | 2026-09-04 01:21:50 | 53.16375 | 1.61941 | 86° | 172km/h | 11412m | -4.7m/s | -52.5°C | 84.5% | 0hPa | 2.4V | 08:08:26 | 02:30:36 | 00:00:00 | |
| BIOWL1-15 | 2026-09-04 01:21:43 | 53.16366 | 1.61652 | 87° | 172km/h | 11431m | -4.6m/s | -52.7°C | 82.7% | 0hPa | 2.5V | 08:08:35 | 02:30:32 | 00:00:00 | |
| BIOWL1-15 | 2026-09-04 01:21:31 | 53.16337 | 1.60924 | 86° | 175km/h | 11478m | -4.6m/s | -53.1°C | 84.4% | 0hPa | 2.4V | 08:09:26 | 02:30:22 | 00:00:00 | |
| BIOWL1-15 | 2026-09-04 01:21:26 | 53.16298 | 1.60111 | 85° | 177km/h | 11531m | -5m/s | -53.6°C | 82.6% | 0hPa | 2.4V | 08:09:26 | 02:30:11 | 00:00:00 | |
| DJ2DS-15 | 2026-09-04 01:21:22 | 53.16305 | 1.60259 | 86° | 177km/h | 11521m | -5.0m/s | -53.5°C | 85.8% | 0hPa | 2.4V | 00:00:00 | 02:30:13 | 00:00:00 | |
| DM0DOS-11 | 2026-09-04 01:21:20 | 53.16279 | 1.59741 | 85° | 177km/h | 11556m | -5m/s | -53.9°C | 84.5% | 0hPa | 2.4V | 08:08:56 | 02:30:06 | 00:00:00 | |
| BIOWL1-15 | 2026-09-04 01:21:12 | 53.16260 | 1.59368 | 85° | 179km/h | 11581m | -4.9m/s | -54°C | 78.4% | 0hPa | 2.4V | 08:09:26 | 02:30:01 | 00:00:00 | |
| DM0DOS-11 | 2026-09-04 01:21:10 | 53.16240 | 1.58994 | 84° | 179km/h | 11605m | -5m/s | -54.1°C | 80.1% | 0hPa | 2.5V | 08:09:06 | 02:29:56 | 00:00:00 | |
| BIOWL1-15 | 2026-09-04 01:21:01 | 53.16214 | 1.58545 | 84° | 179km/h | 11635m | -5m/s | -54.3°C | 74% | 0hPa | 2.5V | 08:09:26 | 02:29:50 | 00:00:00 | |
| DM0DOS-11 | 2026-09-04 01:20:57 | 53.16195 | 1.58244 | 83° | 179km/h | 11656m | -5m/s | -54.5°C | 75% | 0hPa | 2.4V | 08:09:16 | 02:29:46 | 00:00:00 | |
| DM0DOS-11 | 2026-09-04 01:20:50 | 53.16146 | 1.57493 | 83° | 181km/h | 11706m | -5m/s | -54.7°C | 71% | 0hPa | 2.4V | 08:09:26 | 02:29:36 | 00:00:00 | |
| BIOWL1-15 | 2026-09-04 01:20:48 | 53.16156 | 1.57643 | 84° | 179km/h | 11696m | -4.9m/s | -54.6°C | 68% | 0hPa | 2.5V | 08:09:26 | 02:29:38 | 00:00:00 | |
| DJ2DS-15 | 2026-09-04 01:20:42 | 53.16130 | 1.57266 | 84° | 186km/h | 11721m | -4.8m/s | -54.7°C | 71.7% | 0hPa | 2.5V | 00:00:00 | 02:29:33 | 00:00:00 | |
| DM0DOS-11 | 2026-09-04 01:20:40 | 53.16092 | 1.56730 | 83° | 184km/h | 11756m | -5.2m/s | -55°C | 72.4% | 0hPa | 2.5V | 08:09:36 | 02:29:26 | 00:00:00 | |
| BIOWL1-15 | 2026-09-04 01:20:38 | 53.16109 | 1.56961 | 83° | 184km/h | 11742m | -5m/s | -54.9°C | 70.3% | 0hPa | 2.4V | 08:10:17 | 02:29:29 | 00:00:00 | |
| BIOWL1-15 | 2026-09-04 01:20:28 | 53.16053 | 1.56183 | 84° | 190km/h | 11792m | -4.8m/s | -55.4°C | 70% | 0hPa | 2.5V | 08:10:17 | 02:29:19 | 00:00:00 | |
| DM0DOS-11 | 2026-09-04 01:20:25 | 53.16038 | 1.55945 | 84° | 190km/h | 11807m | -4.9m/s | -55.5°C | 72.5% | 0hPa | 2.4V | 08:09:46 | 02:29:16 | 00:00:00 | |
| BIOWL1-15 | 2026-09-04 01:20:19 | 53.16002 | 1.55306 | 85° | 190km/h | 11847m | -5m/s | -55.8°C | 67.8% | 0hPa | 2.4V | 08:10:17 | 02:29:08 | 00:00:00 | |
| DM0DOS-11 | 2026-09-04 01:20:17 | 53.15994 | 1.55146 | 85° | 190km/h | 11857m | -4.9m/s | -55.9°C | 69.5% | 0hPa | 2.5V | 08:09:56 | 02:29:06 | 00:00:00 | |
| BIOWL1-15 | 2026-09-04 01:20:10 | 53.15942 | 1.54035 | 86° | 188km/h | 11926m | -4.8m/s | -56.4°C | 71.9% | 0hPa | 2.4V | 08:10:17 | 02:28:52 | 00:00:00 | |
| DM0DOS-11 | 2026-09-04 01:20:10 | 53.15956 | 1.54351 | 85° | 190km/h | 11906m | -5m/s | -56.2°C | 73% | 0hPa | 2.4V | 08:10:06 | 02:28:56 | 00:00:00 | |
| BIOWL9-15 | 2026-09-04 01:20:04 | 53.15952 | 1.54272 | 85° | 188km/h | 11911m | -4.9m/s | -56.3°C | 62.0% | -1.0hPa | 2.4V | 00:00:00 | 00:00:00 | 00:00:00 | |
| DJ2DS-15 | 2026-09-04 01:20:02 | 53.15945 | 1.54114 | 86° | 186km/h | 11921m | -4.5m/s | -56.3°C | 74.2% | 0hPa | 2.4V | 00:00:00 | 02:28:53 | 00:00:00 | |
| DM0DOS-11 | 2026-09-04 01:20:00 | 53.15922 | 1.53564 | 86° | 186km/h | 11955m | -5.1m/s | -56.7°C | 76.8% | 0hPa | 2.4V | 08:10:16 | 02:28:46 | 00:00:00 | |
| BIOWL1-15 | 2026-09-04 01:19:54 | 53.15919 | 1.53486 | 86° | 186km/h | 11960m | -5.1m/s | -56.7°C | 74.5% | 0hPa | 2.4V | 08:10:17 | 02:28:45 | 00:00:00 | |
| DJ2DS-15 | 2026-09-04 01:19:50 | 53.15906 | 1.53174 | 86° | 184km/h | 11980m | -4.8m/s | -56.9°C | 66.7% | -1.0hPa | 2.5V | 00:00:00 | 00:00:00 | 00:00:00 | |
| DM0DOS-11 | 2026-09-04 01:19:45 | 53.15892 | 1.52788 | 86° | 183km/h | 12005m | -5.1m/s | -57.2°C | 80.5% | 0hPa | 2.5V | 08:10:26 | 02:28:36 | 00:00:00 | |
| BIOWL1-15 | 2026-09-04 01:19:44 | 53.15889 | 1.52711 | 86° | 183km/h | 12010m | -4.9m/s | -57.2°C | 77.5% | 0hPa | 2.5V | 08:11:08 | 02:28:35 | 00:00:00 | |
| DJ2DS-15 | 2026-09-04 01:19:41 | 53.15880 | 1.52481 | 87° | 179km/h | 12025m | -4.9m/s | -57.3°C | 81.6% | 0hPa | 2.4V | 00:00:00 | 02:28:32 | 00:00:00 | |
| DM0DOS-11 | 2026-09-04 01:19:40 | 53.15862 | 1.52023 | 86° | 181km/h | 12055m | -5m/s | -57.6°C | 82.2% | 0hPa | 2.4V | 08:10:36 | 02:28:26 | 00:00:00 | |
| BIOWL1-15 | 2026-09-04 01:19:33 | 53.15845 | 1.51572 | 86° | 179km/h | 12085m | -5.1m/s | -57.9°C | 79.3% | 0hPa | 2.4V | 08:11:08 | 02:28:20 | 00:00:00 | |
| DM0DOS-11 | 2026-09-04 01:19:30 | 53.15833 | 1.51274 | 86° | 177km/h | 12105m | -5.2m/s | -58.1°C | 83.6% | 0hPa | 2.5V | 08:10:46 | 02:28:16 | 00:00:00 | |
| BIOWL1-15 | 2026-09-04 01:19:21 | 53.15813 | 1.50830 | 86° | 175km/h | 12135m | -5m/s | -58.4°C | 78.3% | 0hPa | 2.5V | 08:11:08 | 02:28:10 | 00:00:00 | |
| DJ2DS-15 | 2026-09-04 01:19:21 | 53.15820 | 1.50977 | 86° | 173km/h | 12125m | -4.8m/s | -58.2°C | 83.2% | 0hPa | 2.4V | 00:00:00 | 02:28:12 | 00:00:00 | |
| DM0DOS-11 | 2026-09-04 01:19:20 | 53.15799 | 1.50537 | 85° | 175km/h | 12154m | -4.8m/s | -58.6°C | 80.9% | 0hPa | 2.4V | 08:10:56 | 02:28:06 | 00:00:00 | |
| BIOWL1-15 | 2026-09-04 01:19:13 | 53.15784 | 1.50245 | 85° | 173km/h | 12174m | -4.9m/s | -58.7°C | 74.9% | 0hPa | 2.4V | 08:11:08 | 02:28:02 | 00:00:00 | |
| DM0DOS-11 | 2026-09-04 01:19:10 | 53.15760 | 1.49809 | 84° | 173km/h | 12204m | -5.1m/s | -59°C | 76.1% | 0hPa | 2.4V | 08:11:06 | 02:27:56 | 00:00:00 | |
| BIOWL1-15 | 2026-09-04 01:19:00 | 53.15736 | 1.49372 | 84° | 173km/h | 12233m | -4.9m/s | -59.2°C | 71.2% | 0hPa | 2.4V | 08:11:59 | 02:27:50 | 00:00:00 | |
| DM0DOS-11 | 2026-09-04 01:18:57 | 53.15704 | 1.48862 | 83° | 175km/h | 12268m | -4.9m/s | -59.6°C | 75.1% | 0hPa | 2.4V | 08:11:19 | 02:27:43 | 00:00:00 | |
| BIOWL1-15 | 2026-09-04 01:18:51 | 53.15688 | 1.48643 | 83° | 175km/h | 12282m | -4.8m/s | -59.7°C | 70.5% | 0hPa | 2.5V | 08:11:59 | 02:27:40 | 00:00:00 | |
| DM0DOS-11 | 2026-09-04 01:18:45 | 53.15649 | 1.48126 | 82° | 177km/h | 12316m | -4.9m/s | -59.9°C | 74.6% | 0hPa | 2.5V | 08:11:29 | 02:27:33 | 00:00:00 | |
| BIOWL1-15 | 2026-09-04 01:18:41 | 53.15632 | 1.47903 | 83° | 179km/h | 12331m | -4.8m/s | -60°C | 69.3% | 0hPa | 2.4V | 08:11:59 | 02:27:30 | 00:00:00 | |
| DJ2DS-15 | 2026-09-04 01:18:41 | 53.15643 | 1.48052 | 83° | 184km/h | 12322m | -4.8m/s | -59.9°C | 74.4% | 0hPa | 2.4V | 00:00:00 | 02:27:32 | 00:00:00 | |
| DJ2DS-15 | 2026-09-04 01:18:38 | 53.15626 | 1.47829 | 82° | 179km/h | 12336m | -4.8m/s | -60.1°C | 60.9% | -1.0hPa | 2.4V | 00:00:00 | 00:00:00 | 00:00:00 | |
| DM0DOS-11 | 2026-09-04 01:18:35 | 53.15590 | 1.47374 | 82° | 184km/h | 12365m | -4.8m/s | -60.4°C | 72.2% | 0hPa | 2.4V | 08:11:39 | 02:27:23 | 00:00:00 | |
| BIOWL1-15 | 2026-09-04 01:18:33 | 53.15572 | 1.47142 | 83° | 186km/h | 12379m | -4.9m/s | -60.5°C | 66.1% | 0hPa | 2.4V | 08:11:59 | 02:27:20 | 00:00:00 | |
| BIOWL9-15 | 2026-09-04 01:18:31 | 53.15584 | 1.47297 | 82° | 184km/h | 12370m | -4.9m/s | -60.4°C | 58.8% | -1.0hPa | 2.4V | 00:00:00 | 00:00:00 | 00:00:00 | |
| DM0DOS-11 | 2026-09-04 01:18:23 | 53.15532 | 1.46595 | 83° | 188km/h | 12414m | -5m/s | -60.7°C | 68.4% | 0hPa | 2.4V | 08:11:49 | 02:27:13 | 00:00:00 | |
| BIOWL1-15 | 2026-09-04 01:18:20 | 53.15510 | 1.46283 | 83° | 186km/h | 12434m | -4.8m/s | -60.9°C | 64.5% | 0hPa | 2.5V | 08:11:59 | 02:27:09 | 00:00:00 | |
| BIOWL1-15 | 2026-09-04 01:18:10 | 53.15456 | 1.45505 | 84° | 186km/h | 12482m | -5.1m/s | -61.3°C | 62.9% | 0hPa | 2.4V | 08:12:50 | 02:26:59 | 00:00:00 | |
| BIOWL7-15 | 2026-09-04 01:18:03 | 53.15435 | 1.45191 | 85° | 188km/h | 12503m | -4.8m/s | 0°C | 0% | 0hPa | 2.4V | 00:00:00 | 00:00:00 | 00:00:00 | |
| DJ2DS-15 | 2026-09-04 01:18:02 | 53.15425 | 1.45033 | 83° | 188km/h | 12512m | -4.9m/s | -61.6°C | 53.5% | -1.0hPa | 2.4V | 00:00:00 | 00:00:00 | 00:00:00 | |
| BIOWL9-15 | 2026-09-04 01:18:00 | 53.15414 | 1.44875 | 83° | 188km/h | 12522m | -4.8m/s | -61.6°C | 53.0% | -1.0hPa | 2.4V | 00:00:00 | 00:00:00 | 00:00:00 | |
| DM0DOS-11 | 2026-09-04 01:17:57 | 53.15374 | 1.44241 | 84° | 190km/h | 12561m | -4.9m/s | -62°C | 63.3% | 0hPa | 2.4V | 08:12:19 | 02:26:43 | 00:00:00 | |
| BIOWL1-15 | 2026-09-04 01:17:57 | 53.15399 | 1.44638 | 84° | 190km/h | 12537m | -4.9m/s | -61.8°C | 60.3% | 0hPa | 2.4V | 08:12:50 | 02:26:48 | 00:00:00 | |
| BIOWL1-15 | 2026-09-04 01:17:49 | 53.15349 | 1.43841 | 84° | 192km/h | 12585m | -4.8m/s | -62.2°C | 57.2% | 0hPa | 2.5V | 08:12:50 | 02:26:38 | 00:00:00 | |
| DM0DOS-11 | 2026-09-04 01:17:47 | 53.15325 | 1.43441 | 84° | 192km/h | 12610m | -4.8m/s | -62.3°C | 60.9% | 0hPa | 2.5V | 08:12:29 | 02:26:33 | 00:00:00 | |
| BIOWL1-15 | 2026-09-04 01:17:38 | 53.15298 | 1.42959 | 85° | 192km/h | 12639m | -5m/s | -62.6°C | 55.6% | 0hPa | 2.5V | 08:12:50 | 02:26:27 | 00:00:00 | |
| DM0DOS-11 | 2026-09-04 01:17:37 | 53.15281 | 1.42638 | 85° | 192km/h | 12658m | -4.9m/s | -62.7°C | 60.3% | 0hPa | 2.5V | 08:12:39 | 02:26:23 | 00:00:00 | |
| BIOWL9-15 | 2026-09-04 01:17:29 | 53.15269 | 1.42397 | 85° | 190km/h | 12673m | -4.8m/s | -62.8°C | 47.6% | -1.0hPa | 2.4V | 00:00:00 | 00:00:00 | 00:00:00 | |
| DM0DOS-11 | 2026-09-04 01:17:25 | 53.15238 | 1.41838 | 84° | 190km/h | 12706m | -4.8m/s | -62.9°C | 59% | 0hPa | 2.4V | 08:12:49 | 02:26:13 | 00:00:00 | |
| BIOWL1-15 | 2026-09-04 01:17:25 | 53.15252 | 1.42077 | 85° | 192km/h | 12692m | -4.8m/s | -62.7°C | 54.2% | 0hPa | 2.5V | 08:12:50 | 02:26:16 | 00:00:00 | |
| BIOWL1-15 | 2026-09-04 01:17:16 | 53.15205 | 1.41198 | 86° | 192km/h | 12745m | -4.8m/s | -63.1°C | 53.1% | 0hPa | 2.4V | 08:13:41 | 02:26:05 | 00:00:00 | |
| DM0DOS-11 | 2026-09-04 01:17:15 | 53.15198 | 1.41038 | 85° | 192km/h | 12754m | -4.8m/s | -63.1°C | 57.8% | 0hPa | 2.5V | 08:12:59 | 02:26:03 | 00:00:00 | |
| DM0DOS-11 | 2026-09-04 01:17:03 | 53.15168 | 1.40236 | 86° | 192km/h | 12803m | -4.9m/s | -63.4°C | 55.3% | 0hPa | 2.4V | 08:13:09 | 02:25:53 | 00:00:00 | |
| BIOWL1-15 | 2026-09-04 01:17:03 | 53.15170 | 1.40316 | 87° | 192km/h | 12799m | -4.9m/s | -63.4°C | 50.1% | 0hPa | 2.5V | 08:13:41 | 02:25:54 | 00:00:00 | |
| BIOWL9-15 | 2026-09-04 01:16:58 | 53.15157 | 1.39915 | 86° | 190km/h | 12822m | -4.9m/s | -63.4°C | 42.0% | -1.0hPa | 2.4V | 00:00:00 | 00:00:00 | 00:00:00 | |
| DJ2DS-15 | 2026-09-04 01:16:57 | 53.15154 | 1.39835 | 87° | 190km/h | 12828m | -5.1m/s | -63.4°C | 53.3% | 0hPa | 2.4V | 00:00:00 | 02:25:48 | 00:00:00 | |
| DM0DOS-11 | 2026-09-04 01:16:56 | 53.15139 | 1.39349 | 87° | 192km/h | 12858m | -5.2m/s | -63.5°C | 52.8% | 0hPa | 2.4V | 08:13:20 | 02:25:42 | 00:00:00 | |
| BIOWL1-15 | 2026-09-04 01:16:53 | 53.15144 | 1.39511 | 87° | 193km/h | 12848m | -5.1m/s | -63.5°C | 47.2% | 0hPa | 2.5V | 08:13:41 | 02:25:44 | 00:00:00 | |
| DJ2DS-15 | 2026-09-04 01:16:50 | 53.15137 | 1.39268 | 87° | 192km/h | 12863m | -4.9m/s | -63.5°C | 41.1% | -1.0hPa | 2.5V | 00:00:00 | 00:00:00 | 00:00:00 | |
| DM0DOS-11 | 2026-09-04 01:16:45 | 53.15125 | 1.38552 | 88° | 190km/h | 12906m | -4.8m/s | -63.2°C | 50.7% | 0hPa | 2.5V | 08:13:30 | 02:25:32 | 00:00:00 | |
| BIOWL1-15 | 2026-09-04 01:16:42 | 53.15124 | 1.38472 | 89° | 188km/h | 12911m | -5m/s | -63.2°C | 46.5% | 0hPa | 2.4V | 08:13:41 | 02:25:31 | 00:00:00 | |
| DJ2DS-15 | 2026-09-04 01:16:37 | 53.15122 | 1.38234 | 90° | 186km/h | 12927m | -5.2m/s | -63.1°C | 49.5% | 0hPa | 2.5V | 00:00:00 | 02:25:28 | 00:00:00 | |
| DM0DOS-11 | 2026-09-04 01:16:35 | 53.15120 | 1.37758 | 89° | 188km/h | 12958m | -5.4m/s | -63.3°C | 50% | 0hPa | 2.5V | 08:13:40 | 02:25:22 | 00:00:00 | |
| BIOWL1-15 | 2026-09-04 01:16:34 | 53.15120 | 1.37837 | 90° | 188km/h | 12953m | -5.3m/s | -63.3°C | 45.7% | 0hPa | 2.5V | 08:13:41 | 02:25:23 | 00:00:00 | |
| BIOWL9-15 | 2026-09-04 01:16:27 | 53.15119 | 1.37442 | 90° | 186km/h | 12979m | -5.4m/s | -63.4°C | 39.3% | -1.0hPa | 2.5V | 00:00:00 | 00:00:00 | 00:00:00 | |
| DM0DOS-11 | 2026-09-04 01:16:23 | 53.15121 | 1.36972 | 90° | 184km/h | 13010m | -5.1m/s | -63.6°C | 50.8% | 0hPa | 2.5V | 08:13:50 | 02:25:12 | 00:00:00 | |
| BIOWL1-15 | 2026-09-04 01:16:21 | 53.15122 | 1.36972 | 91° | 184km/h | 13010m | -5.1m/s | -63.6°C | 45.3% | 0hPa | 2.5V | 08:14:32 | 02:25:12 | 00:00:00 | |
| DM0DOS-11 | 2026-09-04 01:16:16 | 53.15137 | 1.36127 | 92° | 181km/h | 13067m | -5m/s | -63.5°C | 48.9% | 0hPa | 2.5V | 08:14:01 | 02:25:01 | 00:00:00 | |
| BIOWL1-15 | 2026-09-04 01:16:11 | 53.15138 | 1.36127 | 93° | 181km/h | 13067m | -5m/s | -63.5°C | 44.5% | 0hPa | 2.5V | 08:14:32 | 02:25:01 | 00:00:00 | |
| DM0DOS-11 | 2026-09-04 01:16:05 | 53.15161 | 1.35451 | 93° | 177km/h | 13112m | -5m/s | -63.4°C | 47.6% | 0hPa | 2.5V | 08:14:10 | 02:24:52 | 00:00:00 | |
| BIOWL1-15 | 2026-09-04 01:16:03 | 53.15167 | 1.35304 | 94° | 175km/h | 13123m | -5.1m/s | -63.4°C | 44% | 0hPa | 2.5V | 08:14:32 | 02:24:50 | 00:00:00 | |
| BIOWL9-15 | 2026-09-04 01:15:56 | 53.15177 | 1.35083 | 94° | 173km/h | 13138m | -4.9m/s | -63.4°C | 36.8% | -1.0hPa | 2.5V | 00:00:00 | 00:00:00 | 00:00:00 | |
| DJ2DS-15 | 2026-09-04 01:15:55 | 53.15180 | 1.35010 | 95° | 172km/h | 13143m | -4.8m/s | -63.4°C | 48.2% | 0hPa | 2.5V | 00:00:00 | 02:24:46 | 00:00:00 | |
| DM0DOS-11 | 2026-09-04 01:15:50 | 53.15208 | 1.34429 | 94° | 172km/h | 13183m | -5.1m/s | -63.6°C | 46.2% | 0hPa | 2.5V | 08:14:24 | 02:24:38 | 00:00:00 | |
| BIOWL1-15 | 2026-09-04 01:15:48 | 53.15205 | 1.34501 | 95° | 172km/h | 13178m | -5.2m/s | -63.6°C | 43.3% | 0hPa | 2.5V | 08:14:32 | 02:24:39 | 00:00:00 | |
| BIOWL1-15 | 2026-09-04 01:15:37 | 53.15251 | 1.33439 | 93° | 166km/h | 13257m | -5.4m/s | -64.1°C | 39.6% | 0hPa | 2.5V | 08:15:23 | 02:24:24 | 00:00:00 | |
| BIOWL1-15 | 2026-09-04 01:15:24 | 53.15267 | 1.32744 | 91° | 166km/h | 13309m | -5.3m/s | -64.5°C | 35.9% | 0hPa | 2.5V | 08:15:23 | 02:24:14 | 00:00:00 | |
| BIOWL1-15 | 2026-09-04 01:15:13 | 53.15272 | 1.31686 | 91° | 172km/h | 13388m | -5.2m/s | -64.7°C | 28.3% | 0hPa | 2.5V | 08:15:23 | 02:23:59 | 00:00:00 | |
| BIOWL1-15 | 2026-09-04 01:15:02 | 53.15275 | 1.31252 | 91° | 172km/h | 13420m | -5.4m/s | -64.5°C | 24.7% | 0hPa | 2.5V | 08:15:23 | 02:23:53 | 00:00:00 | |
| BIOWL1-15 | 2026-09-04 01:14:51 | 53.15292 | 1.30464 | 93° | 168km/h | 13479m | -5.7m/s | 0°C | 0% | 0hPa | 2.5V | 08:15:23 | 02:23:42 | 00:00:00 | |
| BIOWL1-15 | 2026-09-04 01:14:39 | 53.15325 | 1.29503 | 93° | 159km/h | 13561m | -6.3m/s | 0°C | 0% | 0hPa | 2.4V | 18:12:15 | 02:23:28 | 00:00:00 | |
| DJ2DS-15 | 2026-09-04 01:14:35 | 53.15329 | 1.29370 | 93° | 153km/h | 13573m | -6.3m/s | -63.3°C | 16.2% | 0hPa | 2.5V | 00:00:00 | 02:23:26 | 00:00:00 | |
| DJ2DS-15 | 2026-09-04 01:14:26 | 53.15346 | 1.28724 | 92° | 150km/h | 13632m | -5.6m/s | -62.3°C | 7.0% | -1.0hPa | 2.5V | 00:00:00 | 00:00:00 | 00:00:00 | |
| DJ2DS-15 | 2026-09-04 01:14:15 | 53.15358 | 1.28086 | 93° | 144km/h | 13684m | -5.1m/s | -59.8°C | 9.4% | 0hPa | 2.5V | 00:00:00 | 02:23:06 | 00:00:00 | |
| HTAHTA | 2026-09-04 01:14:10 | 53.15379 | 1.27637 | 96° | 150km/h | 13722m | -5.8m/s | -58.7°C | 4.3% | -1.0hPa | 2.5V | 00:00:00 | 00:00:00 | 00:00:00 | |
| DJ2DS-15 | 2026-09-04 01:13:55 | 53.15429 | 1.26880 | 94° | 131km/h | 13796m | -5.6m/s | -58.6°C | 8.3% | 0hPa | 2.5V | 00:00:00 | 02:22:46 | 00:00:00 | |
| DM0DOS-11 | 2026-09-04 01:13:50 | 53.15443 | 1.26436 | 92° | 133km/h | 13842m | -5.8m/s | -58.5°C | 8.1% | 0hPa | 2.5V | 08:16:24 | 02:22:38 | 00:00:00 | |
| DJ2DS-15 | 2026-09-04 01:13:50 | 53.15440 | 1.26548 | 92° | 131km/h | 13830m | -5.7m/s | -58.5°C | 4.2% | -1.0hPa | 2.5V | 00:00:00 | 00:00:00 | 00:00:00 | |
| DM0DOS-11 | 2026-09-04 01:13:40 | 53.15452 | 1.25881 | 90° | 131km/h | 13903m | -6.4m/s | -58.8°C | 7.9% | 0hPa | 2.5V | 08:16:34 | 02:22:28 | 00:00:00 | |
| DJ2DS-15 | 2026-09-04 01:13:35 | 53.15453 | 1.25770 | 91° | 124km/h | 13916m | -6.3m/s | -58.7°C | 7.9% | 0hPa | 2.5V | 00:00:00 | 02:22:26 | 00:00:00 | |
| DM0DOS-11 | 2026-09-04 01:13:30 | 53.15456 | 1.25233 | 90° | 122km/h | 13975m | -5.8m/s | -58.5°C | 7.5% | 0hPa | 2.5V | 08:16:46 | 02:22:16 | 00:00:00 | |
| DJ2DS-15 | 2026-09-04 01:13:15 | 53.15448 | 1.24732 | 87° | 117km/h | 14034m | -5.8m/s | -58.1°C | 7.1% | 0hPa | 2.5V | 00:00:00 | 02:22:06 | 00:00:00 | |
| DJ2DS-15 | 2026-09-04 01:12:55 | 53.15381 | 1.23763 | 82° | 120km/h | 14150m | -5.5m/s | -58.0°C | 7.1% | 0hPa | 2.5V | 00:00:00 | 02:21:46 | 00:00:00 | |
| DM0DOS-11 | 2026-09-04 01:12:50 | 53.15349 | 1.23415 | 81° | 120km/h | 14188m | -5.6m/s | -58°C | 6.7% | 0hPa | 2.5V | 08:17:23 | 02:21:39 | 00:00:00 | |
| DM0DOS-11 | 2026-09-04 01:12:40 | 53.15298 | 1.22858 | 81° | 122km/h | 14252m | -5.6m/s | -58°C | 6.7% | 0hPa | 2.5V | 08:17:34 | 02:21:28 | 00:00:00 | |
| DJ2DS-15 | 2026-09-04 01:12:38 | 53.15298 | 1.22858 | 81° | 120km/h | 14252m | -5.6m/s | -58.0°C | 3.1% | -1.0hPa | 2.6V | 00:00:00 | 00:00:00 | 00:00:00 | |
| DJ2DS-15 | 2026-09-04 01:12:35 | 53.15289 | 1.22756 | 83° | 124km/h | 14263m | -5.5m/s | -58.0°C | 6.8% | 0hPa | 2.6V | 00:00:00 | 02:21:26 | 00:00:00 | |
| DM0DOS-11 | 2026-09-04 01:12:30 | 53.15257 | 1.22344 | 82° | 124km/h | 14309m | -5.7m/s | -58.2°C | 6.7% | 0hPa | 2.6V | 08:17:44 | 02:21:18 | 00:00:00 | |
| DM0DOS-11 | 2026-09-04 01:12:20 | 53.15221 | 1.21822 | 84° | 126km/h | 14367m | -5.9m/s | -58.5°C | 6.9% | 0hPa | 2.5V | 08:17:54 | 02:21:08 | 00:00:00 | |
| DJ2DS-15 | 2026-09-04 01:12:15 | 53.15216 | 1.21717 | 86° | 120km/h | 14379m | -5.7m/s | -58.4°C | 6.8% | 0hPa | 2.5V | 00:00:00 | 02:21:06 | 00:00:00 | |
| DM0DOS-11 | 2026-09-04 01:12:10 | 53.15200 | 1.21305 | 87° | 120km/h | 14426m | -6m/s | -58.9°C | 6.9% | 0hPa | 2.5V | 08:18:04 | 02:20:58 | 00:00:00 | |
| DJ2DS-15 | 2026-09-04 01:12:01 | 53.15194 | 1.21001 | 88° | 119km/h | 14460m | -5.7m/s | -59.0°C | 3.0% | -1.0hPa | 2.5V | 00:00:00 | 00:00:00 | 00:00:00 | |
| DM0DOS-11 | 2026-09-04 01:12:00 | 53.15191 | 1.20801 | 88° | 119km/h | 14483m | -5.7m/s | -58.9°C | 6.8% | 0hPa | 2.5V | 08:18:14 | 02:20:48 | 00:00:00 | |
| DJ2DS-15 | 2026-09-04 01:11:55 | 53.15190 | 1.20703 | 90° | 113km/h | 14494m | -5.9m/s | -58.9°C | 6.9% | 0hPa | 2.5V | 08:18:00 | 02:20:46 | 00:00:00 | |
| DM0DOS-11 | 2026-09-04 01:11:50 | 53.15189 | 1.20318 | 89° | 113km/h | 14541m | -5.8m/s | -59.1°C | 7.1% | 0hPa | 2.5V | 08:18:24 | 02:20:38 | 00:00:00 | |
| DM0DOS-11 | 2026-09-04 01:11:40 | 53.15185 | 1.19851 | 88° | 110km/h | 14597m | -5.9m/s | -58.5°C | 6.7% | 0hPa | 2.5V | 08:18:34 | 02:20:28 | 00:00:00 | |
| DJ2DS-15 | 2026-09-04 01:11:35 | 53.15183 | 1.19759 | 89° | 115km/h | 14609m | -5.7m/s | -58.4°C | 6.6% | 0hPa | 2.5V | 00:00:00 | 02:20:26 | 00:00:00 | |
| DM0DOS-11 | 2026-09-04 01:11:30 | 53.15168 | 1.19385 | 85° | 113km/h | 14654m | -6.3m/s | -58.4°C | 6.5% | 0hPa | 2.5V | 08:18:44 | 02:20:18 | 00:00:00 | |
| BIOWL1-15 | 2026-09-04 01:11:26 | 53.15166 | 1.19338 | 86° | 115km/h | 14660m | -6.5m/s | -58.4°C | 2.8% | 0hPa | 2.5V | 08:20:29 | 02:20:17 | 00:00:00 | |
| DJ2DS-15 | 2026-09-04 01:11:25 | 53.15164 | 1.19290 | 85° | 113km/h | 14667m | -6.4m/s | -58.3°C | 2.7% | -1.0hPa | 2.5V | 00:00:00 | 00:00:00 | 00:00:00 | |
| DM0DOS-11 | 2026-09-04 01:11:20 | 53.15150 | 1.18894 | 88° | 120km/h | 14712m | -5.9m/s | -58°C | 6.1% | 0hPa | 2.5V | 08:18:54 | 02:20:08 | 00:00:00 | |
| BIOWL9-15 | 2026-09-04 01:11:17 | 53.15150 | 1.18844 | 89° | 119km/h | 14718m | -6.2m/s | -58.0°C | 2.5% | -1.0hPa | 2.5V | 00:00:00 | 00:00:00 | 00:00:00 | |
| DJ2DS-15 | 2026-09-04 01:11:15 | 53.15149 | 1.18793 | 90° | 117km/h | 14724m | -5.9m/s | -58.0°C | 6.1% | 0hPa | 2.5V | 00:00:00 | 02:20:06 | 00:00:00 | |
| DM0DOS-11 | 2026-09-04 01:11:10 | 53.15149 | 1.18394 | 90° | 117km/h | 14770m | -6.4m/s | -58.1°C | 6.2% | 0hPa | 2.5V | 08:19:04 | 02:19:58 | 00:00:00 | |
| HTAHTA | 2026-09-04 01:11:03 | 53.15150 | 1.18151 | 90° | 115km/h | 14799m | -5.9m/s | -58.2°C | 2.5% | -1.0hPa | 2.5V | 00:00:00 | 00:00:00 | 00:00:00 | |
| DJ2DS-15 | 2026-09-04 01:10:55 | 53.15153 | 1.17811 | 91° | 111km/h | 14843m | -6.4m/s | -58.4°C | 6.2% | 0hPa | 2.5V | 00:00:00 | 02:19:46 | 00:00:00 | |
| DM0DOS-11 | 2026-09-04 01:10:50 | 53.15157 | 1.17332 | 91° | 111km/h | 14902m | -6.2m/s | -57.9°C | 6% | 0hPa | 2.5V | 08:19:26 | 02:19:36 | 00:00:00 | |
| DJ2DS-15 | 2026-09-04 01:10:49 | 53.15155 | 1.17521 | 90° | 111km/h | 14880m | -5.4m/s | -58.0°C | 2.3% | -1.0hPa | 2.5V | 00:00:00 | 00:00:00 | 00:00:00 | |
| BIOWL9-15 | 2026-09-04 01:10:46 | 53.15156 | 1.17332 | 91° | 111km/h | 14902m | -6.2m/s | -57.9°C | 2.3% | -1.0hPa | 2.5V | 00:00:00 | 00:00:00 | 00:00:00 | |
| DM0DOS-11 | 2026-09-04 01:10:40 | 53.15166 | 1.16884 | 91° | 99km/h | 14966m | -6.2m/s | -57°C | 5.7% | 0hPa | 2.5V | 08:19:36 | 02:19:26 | 00:00:00 | |
| BIOWL1-15 | 2026-09-04 01:10:40 | 53.15162 | 1.17099 | 93° | 108km/h | 14934m | -6.3m/s | -57.2°C | 1.9% | 0hPa | 2.5V | 08:20:29 | 02:19:31 | 00:00:00 | |
| DJ2DS-15 | 2026-09-04 01:10:35 | 53.15167 | 1.16884 | 92° | 97km/h | 14966m | -6.2m/s | -56.9°C | 5.7% | 0hPa | 2.6V | 00:00:00 | 02:19:26 | 00:00:00 | |
| DM0DOS-11 | 2026-09-04 01:10:30 | 53.15159 | 1.16476 | 86° | 97km/h | 15032m | -6.8m/s | -56.3°C | 5.3% | 0hPa | 2.6V | 08:19:46 | 02:19:16 | 00:00:00 | |
| BIOWL1-15 | 2026-09-04 01:10:27 | 53.15144 | 1.16189 | 84° | 97km/h | 15077m | -6.3m/s | -55.9°C | 1.6% | 0hPa | 2.6V | 08:20:29 | 02:19:09 | 00:00:00 | |
| DM0DOS-11 | 2026-09-04 01:10:20 | 53.15135 | 1.16068 | 82° | 97km/h | 15095m | -6.5m/s | -55.6°C | 5.1% | 0hPa | 2.5V | 08:19:56 | 02:19:06 | 00:00:00 | |
| BIOWL1-15 | 2026-09-04 01:10:11 | 53.15107 | 1.15684 | 84° | 106km/h | 15151m | -6.4m/s | -55.3°C | 1.5% | 0hPa | 2.5V | 08:20:29 | 02:18:57 | 00:00:00 | |
| DM0DOS-11 | 2026-09-04 01:10:10 | 53.15105 | 1.15640 | 84° | 104km/h | 15157m | -6.9m/s | -55.3°C | 5.1% | 0hPa | 2.6V | 08:20:06 | 02:18:56 | 00:00:00 | |
| HTAHTA | 2026-09-04 01:10:01 | 53.15084 | 1.15250 | 85° | 104km/h | 15216m | -6.6m/s | -54.6°C | 1.7% | -1.0hPa | 2.5V | 00:00:00 | 00:00:00 | 00:00:00 | |
| DM0DOS-11 | 2026-09-04 01:10:00 | 53.15082 | 1.15206 | 85° | 104km/h | 15223m | -6.5m/s | -54.5°C | 4.8% | 0hPa | 2.5V | 08:20:16 | 02:18:46 | 00:00:00 | |
| BIOWL1-15 | 2026-09-04 01:10:00 | 53.15088 | 1.15337 | 85° | 104km/h | 15203m | -6.9m/s | -54.7°C | 1.4% | 0hPa | 2.5V | 08:20:29 | 02:18:49 | 00:00:00 | |
| DJ2DS-15 | 2026-09-04 01:09:53 | 53.15078 | 1.15119 | 87° | 108km/h | 15235m | -6.1m/s | -54.4°C | 4.7% | 0hPa | 2.6V | 00:00:00 | 02:18:44 | 00:00:00 | |
| DM0DOS-11 | 2026-09-04 01:09:50 | 53.15064 | 1.14763 | 86° | 106km/h | 15286m | -6.9m/s | -54.5°C | 4.7% | 0hPa | 2.5V | 08:20:26 | 02:18:36 | 00:00:00 | |
| BIOWL1-15 | 2026-09-04 01:09:47 | 53.15064 | 1.14763 | 87° | 106km/h | 15286m | -6.9m/s | -54.6°C | 1.4% | 0hPa | 2.5V | 08:20:29 | 02:18:36 | 00:00:00 | |
| BIOWL9-15 | 2026-09-04 01:09:43 | 53.15061 | 1.14673 | 86° | 108km/h | 15300m | -6.6m/s | -54.6°C | 1.8% | -1.0hPa | 2.5V | 00:00:00 | 00:00:00 | 00:00:00 | |
| DM0DOS-11 | 2026-09-04 01:09:40 | 53.15050 | 1.14308 | 88° | 110km/h | 15351m | -7m/s | -54.8°C | 4.8% | 0hPa | 2.5V | 08:20:36 | 02:18:26 | 00:00:00 | |
| BIOWL1-15 | 2026-09-04 01:09:35 | 53.15049 | 1.14262 | 88° | 110km/h | 15358m | -6.9m/s | -54.9°C | 1.5% | 0hPa | 2.5V | 08:21:20 | 02:18:25 | 00:00:00 | |
| DJ2DS-15 | 2026-09-04 01:09:33 | 53.15048 | 1.14216 | 88° | 111km/h | 15365m | -6.0m/s | -54.9°C | 4.8% | 0hPa | 2.5V | 00:00:00 | 02:18:24 | 00:00:00 | |
| DM0DOS-11 | 2026-09-04 01:09:30 | 53.15041 | 1.13839 | 88° | 115km/h | 15417m | -6.4m/s | -55.2°C | 4.9% | 0hPa | 2.5V | 08:20:46 | 02:18:16 | 00:00:00 | |
| BIOWL1-15 | 2026-09-04 01:09:24 | 53.15040 | 1.13791 | 90° | 113km/h | 15423m | -6.7m/s | -55.2°C | 1.6% | 0hPa | 2.5V | 08:21:20 | 02:18:15 | 00:00:00 | |
| DM0DOS-11 | 2026-09-04 01:09:20 | 53.15046 | 1.13370 | 92° | 108km/h | 15481m | -6.5m/s | -55.7°C | 5% | 0hPa | 2.6V | 08:20:56 | 02:18:06 | 00:00:00 | |
| BIOWL1-15 | 2026-09-04 01:09:14 | 53.15059 | 1.12966 | 93° | 104km/h | 15540m | -6.4m/s | -56.1°C | 1.7% | 0hPa | 2.5V | 08:21:20 | 02:17:57 | 00:00:00 | |
| DJ2DS-15 | 2026-09-04 01:09:13 | 53.15048 | 1.13280 | 94° | 104km/h | 15494m | -6.1m/s | -55.7°C | 5.1% | 0hPa | 2.6V | 00:00:00 | 02:18:04 | 00:00:00 | |
| BIOWL9-15 | 2026-09-04 01:09:12 | 53.15050 | 1.13235 | 93° | 106km/h | 15500m | -6.4m/s | -55.8°C | 1.9% | -1.0hPa | 2.6V | 00:00:00 | 00:00:00 | 00:00:00 | |
| DM0DOS-11 | 2026-09-04 01:09:10 | 53.15060 | 1.12922 | 93° | 104km/h | 15546m | -7.1m/s | -56.1°C | 5.1% | 0hPa | 2.6V | 08:21:06 | 02:17:56 | 00:00:00 | |
| BIOWL1-15 | 2026-09-04 01:09:08 | 53.15065 | 1.12748 | 92° | 102km/h | 15573m | -6.2m/s | -56.3°C | 1.7% | 0hPa | 2.5V | 08:21:20 | 02:17:52 | 00:00:00 | |
| DJ2DS-15 | 2026-09-04 01:09:01 | 53.15065 | 1.12748 | 91° | 100km/h | 15573m | -6.2m/s | -56.3°C | 1.9% | -1.0hPa | 2.6V | 00:00:00 | 00:00:00 | 00:00:00 | |
| HTAHTA | 2026-09-04 01:08:59 | 53.15073 | 1.12373 | 90° | 95km/h | 15631m | -6.0m/s | -56.9°C | 2.0% | -1.0hPa | 2.6V | 00:00:00 | 00:00:00 | 00:00:00 | |
| DM0DOS-11 | 2026-09-04 01:08:55 | 53.15073 | 1.12413 | 91° | 97km/h | 15625m | -6.8m/s | -56.8°C | 5.3% | 0hPa | 2.6V | 08:21:18 | 02:17:44 | 00:00:00 | |
| DJ2DS-15 | 2026-09-04 01:08:53 | 53.15073 | 1.12413 | 92° | 93km/h | 15625m | -6.7m/s | -56.8°C | 5.3% | 0hPa | 2.6V | 08:21:00 | 02:17:44 | 00:00:00 | |
| BIOWL1-15 | 2026-09-04 01:08:53 | 53.15073 | 1.12373 | 90° | 95km/h | 15631m | -6m/s | -56.9°C | 1.8% | 0hPa | 2.5V | 08:21:20 | 02:17:43 | 00:00:00 | |
| DM0DOS-11 | 2026-09-04 01:08:44 | 53.15075 | 1.12014 | 90° | 95km/h | 15691m | -6.8m/s | -57.2°C | 5.5% | 0hPa | 2.6V | 08:21:28 | 02:17:34 | 00:00:00 | |
| BIOWL1-15 | 2026-09-04 01:08:42 | 53.15077 | 1.11781 | 91° | 93km/h | 15730m | -6.1m/s | -57.2°C | 1.8% | 0hPa | 2.6V | 08:22:11 | 02:17:28 | 00:00:00 | |
| BIOWL9-15 | 2026-09-04 01:08:41 | 53.15076 | 1.11936 | 91° | 91km/h | 15704m | -6.9m/s | -57.2°C | 2.0% | -1.0hPa | 2.5V | 00:00:00 | 00:00:00 | 00:00:00 | |
| DM0DOS-11 | 2026-09-04 01:08:34 | 53.15080 | 1.11629 | 91° | 88km/h | 15754m | -5.9m/s | -57°C | 5.5% | 0hPa | 2.5V | 08:21:38 | 02:17:24 | 00:00:00 | |
| BIOWL1-15 | 2026-09-04 01:08:32 | 53.15094 | 1.11266 | 93° | 84km/h | 15820m | -6.4m/s | -56.6°C | 1.5% | 0hPa | 2.6V | 08:22:11 | 02:17:14 | 00:00:00 | |
| HTAHTA | 2026-09-04 01:08:29 | 53.15086 | 1.11446 | 93° | 86km/h | 15787m | -6.7m/s | -56.5°C | 1.8% | -1.0hPa | 2.6V | 00:00:00 | 00:00:00 | 00:00:00 | |
| DM0DOS-11 | 2026-09-04 01:08:24 | 53.15094 | 1.11266 | 93° | 84km/h | 15820m | -6.4m/s | -56.6°C | 5.1% | 0hPa | 2.6V | 08:21:48 | 02:17:14 | 00:00:00 | |
| BIOWL1-15 | 2026-09-04 01:08:24 | 53.15096 | 1.11231 | 95° | 84km/h | 15826m | -7.2m/s | -56.6°C | 1.4% | 0hPa | 2.5V | 08:22:11 | 02:17:13 | 00:00:00 | |
| DM0DOS-11 | 2026-09-04 01:08:14 | 53.15103 | 1.10926 | 88° | 78km/h | 15884m | -5.8m/s | -56.2°C | 5% | 0hPa | 2.6V | 08:21:58 | 02:17:04 | 00:00:00 | |
| BIOWL1-15 | 2026-09-04 01:08:13 | 53.15102 | 1.10860 | 89° | 78km/h | 15896m | -5.9m/s | -56.2°C | 1.4% | 0hPa | 2.5V | 08:22:11 | 02:17:02 | 00:00:00 | |
| DJ2DS-15 | 2026-09-04 01:08:13 | 53.15103 | 1.10925 | 89° | 88km/h | 15885m | -5.8m/s | -56.2°C | 5.0% | 0hPa | 2.5V | 00:00:00 | 02:17:04 | 00:00:00 | |
| DB0UT-7 | 2026-09-04 01:08:11 | 53.15102 | 1.10860 | 89° | 68km/h | 15897m | -5.9m/s | -56.2°C | 5.0% | 0hPa | 2.5V | 00:00:00 | 02:17:02 | 00:00:00 | |
| BIOWL9-15 | 2026-09-04 01:08:10 | 53.15102 | 1.10827 | 88° | 78km/h | 15902m | -6.3m/s | -56.2°C | 1.7% | -1.0hPa | 2.5V | 00:00:00 | 00:00:00 | 00:00:00 | |
| DM0DOS-11 | 2026-09-04 01:08:08 | 53.15094 | 1.10581 | 88° | 89km/h | 15947m | -6.9m/s | -56.4°C | 5% | 0hPa | 2.5V | 08:22:08 | 02:16:54 | 00:00:00 | |
| BIOWL1-15 | 2026-09-04 01:08:00 | 53.15093 | 1.10466 | 90° | 95km/h | 15967m | -6.5m/s | -56.5°C | 1.3% | 0hPa | 2.5V | 08:22:11 | 02:16:51 | 00:00:00 | |
| BIOWL1-15 | 2026-09-04 01:07:49 | 53.15120 | 1.10037 | 102° | 86km/h | 16037m | -7.2m/s | -56.6°C | 1.4% | 0hPa | 2.6V | 08:23:02 | 02:16:40 | 00:00:00 | |
| DM0DOS-11 | 2026-09-04 01:07:46 | 53.15144 | 1.09833 | 100° | 80km/h | 16077m | -6.4m/s | -56.1°C | 5% | 0hPa | 2.5V | 08:22:28 | 02:16:34 | 00:00:00 | |
| BIOWL1-15 | 2026-09-04 01:07:40 | 53.15163 | 1.09667 | 100° | 80km/h | 16111m | -7m/s | -56.2°C | 1.4% | 0hPa | 2.5V | 08:23:02 | 02:16:29 | 00:00:00 | |
| BIOWL9-15 | 2026-09-04 01:07:39 | 53.15159 | 1.09700 | 101° | 80km/h | 16104m | -7.2m/s | -56.2°C | 1.6% | -1.0hPa | 2.6V | 00:00:00 | 00:00:00 | 00:00:00 | |
| DM0DOS-11 | 2026-09-04 01:07:36 | 53.15181 | 1.09505 | 100° | 77km/h | 16147m | -7m/s | -56°C | 4.9% | 0hPa | 2.6V | 08:22:38 | 02:16:24 | 00:00:00 | |
| BIOWL1-15 | 2026-09-04 01:07:27 | 53.15199 | 1.09325 | 98° | 71km/h | 16188m | -7.1m/s | -56.1°C | 1.3% | 0hPa | 2.5V | 08:23:02 | 02:16:18 | 00:00:00 | |
| DM0DOS-11 | 2026-09-04 01:07:26 | 53.15209 | 1.09210 | 97° | 68km/h | 16216m | -7m/s | -56.1°C | 4.9% | 0hPa | 2.5V | 08:22:48 | 02:16:14 | 00:00:00 | |
| BIOWL1-15 | 2026-09-04 01:07:17 | 53.15215 | 1.09040 | 93° | 68km/h | 16257m | -7.8m/s | -56.1°C | 1.2% | 0hPa | 2.6V | 08:23:02 | 02:16:08 | 00:00:00 | |
| DM0DOS-11 | 2026-09-04 01:07:16 | 53.15217 | 1.08927 | 90° | 69km/h | 16287m | -7.7m/s | -56°C | 4.9% | 0hPa | 2.5V | 08:22:58 | 02:16:04 | 00:00:00 | |
| BIOWL1-15 | 2026-09-04 01:07:07 | 53.15216 | 1.08758 | 87° | 68km/h | 16329m | -7.3m/s | -56°C | 1.3% | 0hPa | 2.5V | 08:24:44 | 02:15:58 | 00:00:00 | |
| DM0DOS-11 | 2026-09-04 01:07:06 | 53.15211 | 1.08645 | 83° | 69km/h | 16357m | -7.5m/s | -56°C | 4.9% | 0hPa | 2.5V | 08:23:08 | 02:15:54 | 00:00:00 | |
| BIOWL1-15 | 2026-09-04 01:06:57 | 53.15198 | 1.08477 | 80° | 68km/h | 16399m | -7m/s | -56.1°C | 1.3% | 0hPa | 2.5V | 08:24:44 | 02:15:48 | 00:00:00 | |
| DM0DOS-11 | 2026-09-04 01:06:56 | 53.15185 | 1.08366 | 77° | 68km/h | 16427m | -7.5m/s | -55.7°C | 4.9% | 0hPa | 2.6V | 08:23:18 | 02:15:44 | 00:00:00 | |
| HTAHTA | 2026-09-04 01:06:55 | 53.15185 | 1.08366 | 77° | 66km/h | 16427m | -7.5m/s | -55.7°C | 1.6% | -1.0hPa | 2.5V | 00:00:00 | 00:00:00 | 00:00:00 | |
| DJ2DS-15 | 2026-09-04 01:06:51 | 53.15177 | 1.08312 | 76° | 73km/h | 16441m | -7.5m/s | -55.5°C | 4.8% | 0hPa | 2.5V | 00:00:00 | 02:15:42 | 00:00:00 | |
| DM0DOS-11 | 2026-09-04 01:06:46 | 53.15141 | 1.08093 | 73° | 73km/h | 16498m | -7.2m/s | -55.5°C | 4.8% | 0hPa | 2.5V | 08:23:28 | 02:15:34 | 00:00:00 | |
| DJ2DS-15 | 2026-09-04 01:06:37 | 53.15104 | 1.07876 | 75° | 80km/h | 16551m | -7.3m/s | -55.4°C | 1.6% | -1.0hPa | 2.6V | 00:00:00 | 00:00:00 | 00:00:00 | |
| DM0DOS-11 | 2026-09-04 01:06:36 | 53.15089 | 1.07778 | 76° | 78km/h | 16572m | -7.4m/s | -55.3°C | 4.7% | 0hPa | 2.6V | 08:23:38 | 02:15:24 | 00:00:00 | |
| DJ2DS-15 | 2026-09-04 01:06:31 | 53.15081 | 1.07714 | 78° | 75km/h | 16587m | -7.5m/s | -55.1°C | 4.7% | 0hPa | 2.6V | 00:00:00 | 02:15:22 | 00:00:00 | |
| DM0DOS-11 | 2026-09-04 01:06:26 | 53.15051 | 1.07454 | 80° | 78km/h | 16644m | -7.4m/s | -55.2°C | 4.7% | 0hPa | 2.6V | 08:23:48 | 02:15:14 | 00:00:00 | |
| DM0DOS-11 | 2026-09-04 01:06:16 | 53.15030 | 1.07149 | 85° | 71km/h | 16718m | -8.4m/s | -54.9°C | 4.5% | 0hPa | 2.5V | 08:23:58 | 02:15:04 | 00:00:00 | |
| BIOWL1-15 | 2026-09-04 01:06:11 | 53.15027 | 1.07089 | 86° | 71km/h | 16735m | -8.2m/s | -55°C | 1% | 0hPa | 2.5V | 08:24:44 | 02:15:02 | 00:00:00 | |
| DJ2DS-15 | 2026-09-04 01:06:11 | 53.15027 | 1.07089 | 86° | 71km/h | 16735m | -8.2m/s | -54.9°C | 4.5% | 0hPa | 2.6V | 00:00:00 | 02:15:02 | 00:00:00 | |
| BIOWL9-15 | 2026-09-04 01:06:06 | 53.15020 | 1.06939 | 84° | 68km/h | 16773m | -7.9m/s | -54.9°C | 1.5% | -1.0hPa | 2.6V | 00:00:00 | 00:00:00 | 00:00:00 | |
| DM0DOS-11 | 2026-09-04 01:06:04 | 53.15017 | 1.06851 | 87° | 73km/h | 16795m | -8.1m/s | -54.8°C | 4.5% | 0hPa | 2.6V | 08:24:08 | 02:14:54 | 00:00:00 | |
| BIOWL1-15 | 2026-09-04 01:05:59 | 53.15016 | 1.06671 | 92° | 69km/h | 16840m | -7.7m/s | -54.9°C | 1% | 0hPa | 2.5V | 08:24:44 | 02:14:48 | 00:00:00 | |
| DM0DOS-11 | 2026-09-04 01:05:54 | 53.15020 | 1.06552 | 92° | 73km/h | 16870m | -7.8m/s | -55°C | 4.5% | 0hPa | 2.5V | 08:24:18 | 02:14:44 | 00:00:00 | |
| BIOWL1-15 | 2026-09-04 01:05:47 | 53.15030 | 1.06311 | 95° | 73km/h | 16930m | -7.7m/s | -54.8°C | 0.9% | 0hPa | 2.5V | 08:24:44 | 02:14:36 | 00:00:00 | |
| DM0DOS-11 | 2026-09-04 01:05:44 | 53.15033 | 1.06248 | 93° | 75km/h | 16945m | -7.8m/s | -54.8°C | 4.5% | 0hPa | 2.6V | 08:24:28 | 02:14:34 | 00:00:00 | |
| BIOWL1-15 | 2026-09-04 01:05:36 | 53.15054 | 1.05984 | 99° | 60km/h | 17013m | -7.8m/s | -55°C | 1.2% | 0hPa | 2.6V | 08:24:44 | 02:14:25 | 00:00:00 | |
| DM0DOS-11 | 2026-09-04 01:05:34 | 53.15056 | 1.05958 | 94° | 60km/h | 17020m | -7.9m/s | -55°C | 4.9% | 0hPa | 2.6V | 08:24:38 | 02:14:24 | 00:00:00 | |
| BIOWL1-15 | 2026-09-04 01:05:27 | 53.15053 | 1.05755 | 79° | 49km/h | 17196m | -24.2m/s | -55.3°C | 1% | 0hPa | 2.5V | 08:25:35 | 02:14:15 | 00:00:00 | |
| DB0UT-7 | 2026-09-04 01:05:26 | 53.15056 | 1.05797 | 85° | 58km/h | 17146m | -25.5m/s | -55.2°C | 4.6% | 0hPa | 2.6V | 00:00:00 | 00:00:00 | 00:00:00 | |
| DM0DOS-11 | 2026-09-04 01:05:24 | 53.15051 | 1.05734 | 76° | 51km/h | 17219m | -24.6m/s | -55.2°C | 4.6% | 0hPa | 2.6V | 08:24:48 | 02:14:14 | 00:00:00 | |
| DM0DOS-11 | 2026-09-04 01:05:14 | 53.15013 | 1.05491 | 80° | 62km/h | 17459m | -24.5m/s | -55°C | 4.6% | 0hPa | 2.5V | 08:24:58 | 02:14:04 | 00:00:00 | |
| DJ2DS-15 | 2026-09-04 01:05:11 | 53.15009 | 1.05440 | 85° | 60km/h | 17508m | -25.5m/s | -54.7°C | 4.5% | 0hPa | 2.5V | 00:00:00 | 02:14:02 | 00:00:00 | |
| DM0DOS-11 | 2026-09-04 01:05:09 | 53.15005 | 1.05241 | 88° | 58km/h | 17705m | -25m/s | -54.8°C | 4.6% | 0hPa | 2.5V | 08:25:08 | 02:13:54 | 00:00:00 | |
| BIOWL9-15 | 2026-09-04 01:05:04 | 53.15005 | 1.05146 | 87° | 58km/h | 17806m | -26.2m/s | -54.9°C | 1.4% | -1.0hPa | 2.5V | 00:00:00 | 00:00:00 | 00:00:00 | |
| DM0DOS-11 | 2026-09-04 01:04:57 | 53.15002 | 1.04997 | 84° | 64km/h | 17958m | -25.6m/s | -54.2°C | 4.4% | 0hPa | 2.5V | 08:25:18 | 02:13:44 | 00:00:00 | |
| BIOWL1-15 | 2026-09-04 01:04:54 | 53.15003 | 1.05023 | 85° | 64km/h | 17933m | -25.2m/s | -54.5°C | 0.9% | 0hPa | 2.5V | 08:25:35 | 02:13:45 | 00:00:00 | |
| DJ2DS-15 | 2026-09-04 01:04:51 | 53.15000 | 1.04944 | 86° | 53km/h | 18008m | -25.0m/s | -53.8°C | 4.3% | 0hPa | 2.6V | 00:00:00 | 02:13:42 | 00:00:00 | |
| DM0DOS-11 | 2026-09-04 01:04:47 | 53.14999 | 1.04758 | 88° | 51km/h | 18207m | -26m/s | -54°C | 4.4% | 0hPa | 2.6V | 08:25:28 | 02:13:34 | 00:00:00 | |
| DM0DOS-11 | 2026-09-04 01:04:37 | 53.14979 | 1.04556 | 71° | 55km/h | 18463m | -25.8m/s | -54°C | 4.5% | 0hPa | 2.5V | 08:25:38 | 02:13:24 | 00:00:00 | |
| BIOWL1-15 | 2026-09-04 01:04:32 | 53.14975 | 1.04534 | 73° | 57km/h | 18489m | -25.9m/s | -53.8°C | 0.9% | 0hPa | 2.5V | 08:26:26 | 02:13:23 | 00:00:00 | |
| DJ2DS-15 | 2026-09-04 01:04:31 | 53.14971 | 1.04511 | 76° | 35km/h | 18515m | -25.2m/s | -53.7°C | 4.3% | 0hPa | 2.5V | 00:00:00 | 02:13:22 | 00:00:00 | |
| DM0DOS-11 | 2026-09-04 01:04:26 | 53.14964 | 1.04342 | 97° | 38km/h | 18718m | -26.7m/s | -52.2°C | 3.7% | 0hPa | 2.5V | 08:25:48 | 02:13:14 | 00:00:00 | |
| BIOWL1-15 | 2026-09-04 01:04:22 | 53.14973 | 1.04234 | 89° | 16km/h | 18992m | -28.1m/s | -53°C | 0.6% | 0hPa | 2.6V | 08:26:26 | 02:13:04 | 00:00:00 | |
| HTAHTA | 2026-09-04 01:04:19 | 53.14970 | 1.04287 | 99° | 24km/h | 18825m | -27.4m/s | -52.1°C | 1.1% | -1.0hPa | 2.6V | 00:00:00 | 00:00:00 | 00:00:00 | |
| DM0DOS-11 | 2026-09-04 01:04:14 | 53.14973 | 1.04234 | 88° | 16km/h | 18992m | -28.1m/s | -53°C | 3.9% | 0hPa | 2.6V | 08:25:58 | 02:13:04 | 00:00:00 | |
| BIOWL1-15 | 2026-09-04 01:04:08 | 53.14946 | 1.04084 | 74° | 35km/h | 19361m | -29.3m/s | -54.3°C | 0.9% | 0hPa | 2.5V | 08:26:26 | 02:12:51 | 00:00:00 | |
| DM0DOS-11 | 2026-09-04 01:04:04 | 53.14953 | 1.04127 | 71° | 35km/h | 19274m | -28.6m/s | -54.3°C | 4.5% | 0hPa | 2.5V | 08:26:08 | 02:12:54 | 00:00:00 | |
| BIOWL1-15 | 2026-09-04 01:03:57 | 53.14938 | 1.04039 | 71° | 38km/h | 19449m | -30.7m/s | -54.5°C | 1% | 0hPa | 2.5V | 08:26:26 | 02:12:48 | 00:00:00 | |
| DB0UT-7 | 2026-09-04 01:03:56 | 53.14935 | 1.04023 | 71° | 38km/h | 19480m | -30.3m/s | -54.5°C | 4.6% | 0hPa | 2.5V | 00:00:00 | 02:12:47 | 00:00:00 | |
| DJ2DS-15 | 2026-09-04 01:03:51 | 53.14913 | 1.03935 | 67° | 42km/h | 19629m | -30.2m/s | -53.9°C | 4.4% | 0hPa | 2.5V | 00:00:00 | 02:12:42 | 00:00:00 | |
| DM0DOS-11 | 2026-09-04 01:03:47 | 53.14883 | 1.03749 | 87° | 46km/h | 19906m | -31.2m/s | -53.7°C | 4.5% | 0hPa | 2.5V | 08:26:29 | 02:12:33 | 00:00:00 | |
| BIOWL1-15 | 2026-09-04 01:03:45 | 53.14888 | 1.03679 | 102° | 37km/h | 20038m | -35.8m/s | -52.4°C | 0.6% | 0hPa | 2.6V | 08:28:08 | 02:12:29 | 00:00:00 | |
| BIOWL1-15 | 2026-09-04 01:03:30 | 53.14894 | 1.03585 | 87° | 27km/h | 20319m | -35.4m/s | -52.5°C | 0.7% | 0hPa | 2.5V | 08:28:08 | 02:12:21 | 00:00:00 | |
| DM0DOS-11 | 2026-09-04 01:03:27 | 53.14898 | 1.03501 | 102° | 24km/h | 20599m | -33.8m/s | -52.6°C | 4.1% | 0hPa | 2.5V | 08:26:49 | 02:12:13 | 00:00:00 | |
| BIOWL1-15 | 2026-09-04 01:03:17 | 53.14897 | 1.03456 | 74° | 22km/h | 20767m | -32.6m/s | -52.4°C | 0.6% | 0hPa | 2.5V | 08:28:08 | 02:12:08 | 00:00:00 | |
| DL1XH-west | 2026-09-04 01:03:15 | 53.14893 | 1.03437 | 69° | 26km/h | 20831m | -32.7m/s | -52.6°C | 0.7% | 0hPa | 2.5V | 08:28:08 | 02:12:06 | 00:00:00 | |
| DM0DOS-11 | 2026-09-04 01:03:14 | 53.14885 | 1.03403 | 70° | 33km/h | 20930m | -34.3m/s | -52.7°C | 4.1% | 0hPa | 2.5V | 08:26:59 | 02:12:03 | 00:00:00 | |
| BIOWL1-15 | 2026-09-04 01:03:06 | 53.14875 | 1.03305 | 87° | 31km/h | 21168m | -36.3m/s | -52.5°C | 0.6% | 0hPa | 2.5V | 08:28:08 | 02:11:56 | 00:00:00 | |
| DM0DOS-11 | 2026-09-04 01:03:04 | 53.14875 | 1.03271 | 88° | 20km/h | 21274m | -35.2m/s | -51.9°C | 3.9% | 0hPa | 2.5V | 08:27:09 | 02:11:53 | 00:00:00 | |
| DL1XH-west | 2026-09-04 01:02:58 | 53.14871 | 1.03233 | 80° | 22km/h | 21411m | -34.1m/s | -52.1°C | 0.6% | 0hPa | 2.6V | 08:28:08 | 02:11:49 | 00:00:00 | |
| BIOWL1-15 | 2026-09-04 01:02:56 | 53.14869 | 1.03212 | 75° | 26km/h | 21478m | -35.2m/s | -52.2°C | 0.6% | 0hPa | 2.5V | 08:28:08 | 02:11:47 | 00:00:00 | |
| DM0DOS-11 | 2026-09-04 01:02:54 | 53.14862 | 1.03164 | 73° | 27km/h | 21618m | -36.2m/s | -52.2°C | 4% | 0hPa | 2.6V | 08:27:19 | 02:11:43 | 00:00:00 | |
| HTAHTA | 2026-09-04 01:02:46 | 53.14851 | 1.03097 | 69° | 24km/h | 21833m | -36.3m/s | -51.6°C | 1.0% | -1.0hPa | 2.5V | 00:00:00 | 00:00:00 | 00:00:00 | |
| DM0DOS-11 | 2026-09-04 01:02:44 | 53.14844 | 1.03058 | 72° | 24km/h | 21978m | -37m/s | -52°C | 3.9% | 0hPa | 2.5V | 08:27:29 | 02:11:33 | 00:00:00 | |
| DL1XH-west | 2026-09-04 01:02:41 | 53.14842 | 1.03048 | 70° | 24km/h | 22014m | -36.6m/s | -52.3°C | 0.6% | 0hPa | 2.6V | 08:28:08 | 02:11:32 | 00:00:00 | |
| BIOWL1-15 | 2026-09-04 01:02:34 | 53.14839 | 1.02982 | 89° | 22km/h | 22269m | -35.9m/s | -52.3°C | 0.7% | 0hPa | 2.5V | 08:28:08 | 02:11:25 | 00:00:00 | |
| DM0DOS-11 | 2026-09-04 01:02:34 | 53.14840 | 1.02965 | 89° | 18km/h | 22341m | -36.2m/s | -52.4°C | 4% | 0hPa | 2.5V | 08:27:39 | 02:11:23 | 00:00:00 | |
| DL1XH-west | 2026-09-04 01:02:30 | 53.14840 | 1.02951 | 84° | 16km/h | 22414m | -37.1m/s | -51.9°C | 0.6% | 0hPa | 2.6V | 08:28:08 | 02:11:21 | 00:00:00 | |
| BIOWL9-15 | 2026-09-04 01:02:29 | 53.14841 | 1.02937 | 97° | 15km/h | 22488m | -37.5m/s | -51.6°C | 1.0% | -1.0hPa | 2.5V | 00:00:00 | 00:00:00 | 00:00:00 | |
| DL1XH1-15 | 2026-09-04 01:02:26 | 53.14843 | 1.02883 | 92° | 18km/h | 22750m | -38.2m/s | -52.2°C | 3.9% | 0hPa | 2.5V | 08:27:50 | 02:11:12 | 00:00:00 | |
| BIOWL1-15 | 2026-09-04 01:02:25 | 53.14843 | 1.02899 | 90° | 16km/h | 22676m | -37.4m/s | -51.9°C | 0.6% | 0hPa | 2.6V | 08:28:08 | 02:11:14 | 00:00:00 | |
| DM0DOS-11 | 2026-09-04 01:02:23 | 53.14843 | 1.02891 | 88° | 18km/h | 22712m | -37.6m/s | -52°C | 3.9% | 0hPa | 2.5V | 08:27:49 | 02:11:13 | 00:00:00 | |
| DL1XH-west | 2026-09-04 01:02:20 | 53.14844 | 1.02875 | 96° | 20km/h | 22788m | -38.5m/s | -52.5°C | 0.6% | 0hPa | 2.5V | 08:28:08 | 02:11:11 | 00:00:00 | |
| DB0UT-7 | 2026-09-04 01:02:19 | 53.14844 | 1.02866 | 97° | 16km/h | 22826m | -38.1m/s | -52.7°C | 4.2% | 0hPa | 2.5V | 00:00:00 | 00:00:00 | 00:00:00 | |
| DL1XH1-15 | 2026-09-04 01:02:15 | 53.14862 | 1.02802 | 125° | 18km/h | 23135m | -39.3m/s | -52.5°C | 4.2% | 0hPa | 2.5V | 08:28:00 | 02:11:02 | 00:00:00 | |
| BIOWL1-15 | 2026-09-04 01:02:15 | 53.14856 | 1.02816 | 123° | 18km/h | 23056m | -39.7m/s | -52.7°C | 0.8% | 0hPa | 2.6V | 08:28:08 | 02:11:04 | 00:00:00 | |
| DL1XH-west | 2026-09-04 01:02:10 | 53.14868 | 1.02791 | 123° | 15km/h | 23213m | -39.9m/s | -52.4°C | 0.7% | 0hPa | 2.5V | 08:28:08 | 02:11:00 | 00:00:00 | |
| DL1XH1-15 | 2026-09-04 01:02:05 | 53.14877 | 1.02761 | 89° | 9km/h | 23530m | -38.9m/s | -52.3°C | 4.3% | 0hPa | 2.5V | 08:28:10 | 02:10:52 | 00:00:00 | |
| DM0DOS-11 | 2026-09-04 01:02:03 | 53.14877 | 1.02765 | 89° | 9km/h | 23492m | -38.9m/s | -52.2°C | 4.2% | 0hPa | 2.6V | 08:28:09 | 02:10:53 | 00:00:00 | |
| BIOWL1-15 | 2026-09-04 01:01:59 | 53.14879 | 1.02745 | 94° | 9km/h | 23684m | -39.3m/s | -51.4°C | 0.7% | 0hPa | 2.6V | 08:28:59 | 02:10:48 | 00:00:00 | |
| DL1XH-west | 2026-09-04 01:01:58 | 53.14878 | 1.02749 | 100° | 9km/h | 23645m | -39.2m/s | -51.7°C | 0.7% | 0hPa | 2.5V | 08:28:59 | 02:10:49 | 00:00:00 | |
| BIOWL9-15 | 2026-09-04 01:01:58 | 53.14879 | 1.02745 | 94° | 9km/h | 23684m | -39.3m/s | -51.4°C | 1.1% | -1.0hPa | 2.5V | 00:00:00 | 00:00:00 | 00:00:00 | |
| DM0DOS-11 | 2026-09-04 01:01:53 | 53.14881 | 1.02721 | 122° | 13km/h | 23882m | -42m/s | -50.9°C | 3.9% | 0hPa | 2.5V | 08:28:19 | 02:10:43 | 00:00:00 | |
| BIOWL1-15 | 2026-09-04 01:01:49 | 53.14886 | 1.02707 | 133° | 11km/h | 24006m | -42.5m/s | -50.8°C | 0.6% | 0hPa | 2.6V | 08:28:59 | 02:10:40 | 00:00:00 | |
| DJ2DS-15 | 2026-09-04 01:01:48 | 53.14888 | 1.02703 | 135° | 11km/h | 24048m | -42.7m/s | -50.7°C | 1.0% | -1.0hPa | 2.6V | 00:00:00 | 00:00:00 | 00:00:00 | |
| DL1XH-west | 2026-09-04 01:01:48 | 53.14888 | 1.02703 | 136° | 11km/h | 24048m | -42.7m/s | -50.7°C | 0.5% | 0hPa | 2.5V | 08:28:59 | 02:10:39 | 00:00:00 | |
| BIOWL1-15 | 2026-09-04 01:01:39 | 53.14907 | 1.02672 | 157° | 15km/h | 24428m | -42.4m/s | -50.2°C | 0.4% | 0hPa | 2.6V | 08:28:59 | 02:10:30 | 00:00:00 | |
| DL1XH-west | 2026-09-04 01:01:38 | 53.14910 | 1.02669 | 164° | 16km/h | 24470m | -42.3m/s | -49.8°C | 0.4% | 0hPa | 2.5V | 08:28:59 | 02:10:29 | 00:00:00 | |
| BIOWL1-15 | 2026-09-04 01:01:29 | 53.14934 | 1.02662 | 92° | 5km/h | 25029m | -43.9m/s | -50.8°C | 0.7% | 0hPa | 2.5V | 08:28:59 | 02:10:16 | 00:00:00 | |
| DL1XH-west | 2026-09-04 01:01:27 | 53.14934 | 1.02668 | 73° | 5km/h | 24942m | -43.7m/s | -50.5°C | 0.6% | 0hPa | 2.6V | 08:28:59 | 02:10:18 | 00:00:00 | |
| BIOWL9-15 | 2026-09-04 01:01:26 | 53.14934 | 1.02665 | 78° | 5km/h | 24985m | -44.0m/s | -50.6°C | 1.0% | -1.0hPa | 2.6V | 00:00:00 | 00:00:00 | 00:00:00 | |
| DM0DOS-11 | 2026-09-04 01:01:23 | 53.14936 | 1.02653 | 134° | 7km/h | 25161m | -44.2m/s | -51.1°C | 4.2% | 0hPa | 2.6V | 08:28:49 | 02:10:13 | 00:00:00 | |
| BIOWL1-15 | 2026-09-04 01:01:17 | 53.14948 | 1.02647 | 188° | 11km/h | 25385m | -46.5m/s | -50.1°C | 0.6% | 0hPa | 2.6V | 08:28:59 | 02:10:08 | 00:00:00 | |
| DM0DOS-11 | 2026-09-04 01:01:13 | 53.14960 | 1.02648 | 175° | 7km/h | 25617m | -47.8m/s | -49.2°C | 3.8% | 0hPa | 2.6V | 08:28:59 | 02:10:03 | 00:00:00 | |
| HTAHTA | 2026-09-04 01:01:13 | 53.14958 | 1.02648 | 178° | 7km/h | 25569m | -47.8m/s | -49.4°C | 1.0% | -1.0hPa | 2.5V | 00:00:00 | 00:00:00 | 00:00:00 | |
| BIOWL1-15 | 2026-09-04 01:01:07 | 53.14999 | 1.02717 | 252° | 13km/h | 26469m | -52.5m/s | -47.3°C | 0.2% | 0hPa | 2.5V | 08:29:50 | 02:09:46 | 00:00:00 | |
| DL1XH-west | 2026-09-04 01:01:06 | 53.14977 | 1.02658 | 220° | 18km/h | 25910m | -50.4m/s | -48.3°C | 0.4% | 0hPa | 2.6V | 08:29:50 | 02:09:57 | 00:00:00 | |
| DM0DOS-11 | 2026-09-04 01:01:03 | 53.14988 | 1.02677 | 239° | 16km/h | 26111m | -50.2m/s | -48.2°C | 3.5% | 0hPa | 2.5V | 08:29:09 | 02:09:53 | 00:00:00 | |
| DL1XH-west | 2026-09-04 01:00:56 | 53.14998 | 1.02711 | 253° | 15km/h | 26416m | -52.1m/s | -47.5°C | 0.2% | 0hPa | 2.5V | 08:29:50 | 02:09:47 | 00:00:00 | |
| BIOWL9-15 | 2026-09-04 01:00:55 | 53.14999 | 1.02717 | 252° | 13km/h | 26469m | -52.5m/s | -47.3°C | 0.8% | -1.0hPa | 2.5V | 00:00:00 | 00:00:00 | 00:00:00 | |
| DM0DOS-11 | 2026-09-04 01:00:53 | 53.15001 | 1.02731 | 257° | 11km/h | 26627m | -52.6m/s | -47°C | 3.2% | 0hPa | 2.5V | 08:29:19 | 02:09:43 | 00:00:00 | |
| BIOWL1-15 | 2026-09-04 01:00:48 | 53.14999 | 1.02747 | 288° | 9km/h | 26832m | -51.2m/s | -47.5°C | 0.3% | 0hPa | 2.6V | 08:29:50 | 02:09:39 | 00:00:00 | |
| DM0DOS-11 | 2026-09-04 01:00:48 | 53.14989 | 1.02746 | 44° | 13km/h | 27142m | -53.2m/s | -47.9°C | 3.6% | 0hPa | 2.5V | 08:29:29 | 02:09:33 | 00:00:00 | |
| DL1XH-west | 2026-09-04 01:00:45 | 53.14996 | 1.02752 | 350° | 7km/h | 26985m | -52.5m/s | -47.6°C | 0.4% | 0hPa | 2.5V | 08:29:50 | 02:09:36 | 00:00:00 | |
| HTAHTA | 2026-09-04 01:00:42 | 53.14987 | 1.02741 | 48° | 15km/h | 27196m | -53.7m/s | -47.8°C | 0.9% | -1.0hPa | 2.5V | 00:00:00 | 00:00:00 | 00:00:00 | |
| AU51GT2 | 2026-09-04 01:00:39 | 53.14982 | 1.02727 | 74° | 9km/h | 27357m | -54.7m/s | -47.0°C | 0.9% | -1.0hPa | 2.5V | 00:00:00 | 00:00:00 | 00:00:00 | |
| DM0DOS-11 | 2026-09-04 01:00:37 | 53.14981 | 1.02709 | 123° | 2km/h | 27686m | -55.8m/s | -45.8°C | 3.2% | 0hPa | 2.5V | 08:29:39 | 02:09:23 | 00:00:00 | |
| DL1XH-west | 2026-09-04 01:00:35 | 53.14981 | 1.02715 | 97° | 7km/h | 27521m | -55.6m/s | -46.3°C | 0.2% | 0hPa | 2.5V | 08:29:50 | 02:09:26 | 00:00:00 | |
| BIOWL1-15 | 2026-09-04 01:00:32 | 53.14982 | 1.02708 | 149° | 4km/h | 27741m | -56.1m/s | -45.7°C | 0.1% | 0hPa | 2.6V | 08:29:50 | 02:09:22 | 00:00:00 | |
| DJ2DS-15 | 2026-09-04 01:00:31 | 53.14982 | 1.02708 | 149° | 11km/h | 27742m | -56.1m/s | -45.6°C | 3.2% | 0hPa | 2.5V | 00:00:00 | 02:09:22 | 00:00:00 | |
| DM0DOS-11 | 2026-09-04 01:00:27 | 53.14992 | 1.02696 | 112° | 11km/h | 28257m | -59m/s | -45.6°C | 3.2% | 0hPa | 2.5V | 08:29:49 | 02:09:13 | 00:00:00 | |
| DL1XH-west | 2026-09-04 01:00:25 | 53.14990 | 1.02705 | 117° | 7km/h | 28082m | -58.4m/s | -45.4°C | 0.2% | 0hPa | 2.6V | 08:29:50 | 02:09:16 | 00:00:00 | |
| BIOWL1-15 | 2026-09-04 01:00:21 | 53.14993 | 1.02692 | 118° | 13km/h | 28315m | -59.1m/s | -45.7°C | 0.3% | 0hPa | 2.5V | 08:29:50 | 02:09:12 | 00:00:00 | |
| DL1XH1-15 | 2026-09-04 01:00:20 | 53.15003 | 1.02668 | 128° | 15km/h | 28610m | -59.6m/s | -45°C | 3.2% | 0hPa | 2.5V | 08:30:00 | 02:09:07 | 00:00:00 | |
| DL1XH-west | 2026-09-04 01:00:14 | 53.15008 | 1.02659 | 141° | 16km/h | 28729m | -59.9m/s | -44.5°C | 0.1% | 0hPa | 2.5V | 18:12:15 | 02:09:05 | 00:00:00 | |
| BIOWL1-15 | 2026-09-04 01:00:11 | 53.15019 | 1.02648 | 166° | 20km/h | 28909m | -61.6m/s | -43.1°C | 0% | 0hPa | 2.5V | 18:12:15 | 02:09:02 | 00:00:00 | |
| DJ2DS-15 | 2026-09-04 01:00:11 | 53.15019 | 1.02648 | 166° | 11km/h | 28910m | -61.5m/s | -43.1°C | 2.7% | 0hPa | 2.5V | 00:00:00 | 02:09:02 | 00:00:00 | |
| DL1XH1-15 | 2026-09-04 01:00:10 | 53.15042 | 1.02641 | 173° | 18km/h | 29222m | -63.5m/s | -42.4°C | 2.5% | 0hPa | 2.5V | 08:30:00 | 02:08:57 | 00:00:00 | |
| AU51GT2 | 2026-09-04 01:00:08 | 53.15038 | 1.02642 | 170° | 18km/h | 29159m | -63.2m/s | -42.4°C | 0.6% | -1.0hPa | 2.6V | 00:00:00 | 00:00:00 | 00:00:00 | |
| DM0DOS-11 | 2026-09-04 01:00:06 | 53.15057 | 1.02641 | 191° | 11km/h | 29476m | -64.3m/s | -42.4°C | 2.5% | 0hPa | 2.6V | 08:30:00 | 02:08:53 | 00:00:00 | |
| DL1XH-west | 2026-09-04 01:00:04 | 53.15051 | 1.02640 | 184° | 16km/h | 29348m | -63.7m/s | -42.2°C | 0% | 0hPa | 2.5V | 18:12:15 | 02:08:55 | 00:00:00 | |
| BIOWL1-15 | 2026-09-04 01:00:01 | 53.15063 | 1.02650 | 326° | 4km/h | 29792m | -62.9m/s | -42.2°C | 0% | 0hPa | 2.5V | 18:12:15 | 02:08:48 | 00:00:00 | |
| DB0ND-19 | 2026-09-04 00:59:57 | 53.15061 | 1.02652 | 3° | 4km/h | 29973m | -58.7m/s | -43.1°C | -1.0% | -1.0hPa | 2.5V | 00:00:00 | 00:00:00 | 00:00:00 | |
| DM0DOS-11 | 2026-09-04 00:59:56 | 53.15058 | 1.02649 | 40° | 9km/h | 30088m | -56.1m/s | -43.4°C | 2.4% | 0hPa | 2.5V | 08:30:00 | 02:08:43 | 00:00:00 | |
| DL1XH1-15 | 2026-09-04 00:59:55 | 53.15060 | 1.02651 | 29° | 7km/h | 30031m | -58.1m/s | -43.3°C | 2.4% | 0hPa | 2.5V | 08:30:00 | 02:08:44 | 00:00:00 | |
| DL1XH-west | 2026-09-04 00:59:53 | 53.15060 | 1.02651 | 30° | 7km/h | 30031m | -58.1m/s | -43.3°C | 0% | 0hPa | 2.5V | 18:12:15 | 02:08:44 | 00:00:00 | |
| BIOWL1-15 | 2026-09-04 00:59:50 | 53.15054 | 1.02641 | 54° | 15km/h | 30199m | -52.6m/s | -44.2°C | 0% | 0hPa | 2.6V | 18:12:15 | 02:08:41 | 00:00:00 | |
| DM0DOS-11 | 2026-09-04 00:59:46 | 53.15029 | 1.02577 | 56° | 27km/h | 30495m | -12.1m/s | -45.1°C | 2.9% | 0hPa | 2.6V | 08:30:00 | 02:08:33 | 00:00:00 | |
| DL1XH1-15 | 2026-09-04 00:59:45 | 53.15033 | 1.02587 | 51° | 29km/h | 30479m | -20.2m/s | -45.1°C | 2.9% | 0hPa | 2.6V | 08:30:00 | 02:08:34 | 00:00:00 | |
| DL1XH-west | 2026-09-04 00:59:42 | 53.15029 | 1.02577 | 57° | 27km/h | 30495m | -12.1m/s | -45.1°C | 0% | 0hPa | 2.6V | 18:12:15 | 02:08:33 | 00:00:00 | |
| HTAHTA | 2026-09-04 00:59:40 | 53.15018 | 1.02548 | 66° | 22km/h | 30496m | 5.6m/s | -45.2°C | 0.7% | -1.0hPa | 2.6V | 00:00:00 | 00:00:00 | 00:00:00 | |
| AU51GT2 | 2026-09-04 00:59:36 | 53.15015 | 1.02527 | 75° | 13km/h | 30480m | 4.0m/s | -45.2°C | 0.7% | -1.0hPa | 2.6V | 00:00:00 | 00:00:00 | 00:00:00 | |
| DM0DOS-11 | 2026-09-04 00:59:35 | 53.14993 | 1.02501 | 21° | 33km/h | 30455m | 4.7m/s | -45.4°C | 2.9% | 0hPa | 2.6V | 08:30:00 | 02:08:22 | 00:00:00 | |
| DL1XH-west | 2026-09-04 00:59:31 | 53.14985 | 1.02496 | 21° | 29km/h | 30450m | 5.1m/s | -45.4°C | 0% | 0hPa | 2.5V | 18:12:15 | 02:08:21 | 00:00:00 | |
| BIOWL1-15 | 2026-09-04 00:59:29 | 53.14979 | 1.02492 | 24° | 24km/h | 30445m | 4.9m/s | -45.5°C | 0% | 0hPa | 2.5V | 18:12:15 | 02:08:20 | 00:00:00 | |
| DM0DOS-11 | 2026-09-04 00:59:25 | 53.14973 | 1.02438 | 100° | 15km/h | 30404m | 5.1m/s | -45.6°C | 3% | 0hPa | 2.5V | 08:30:00 | 02:08:12 | 00:00:00 | |
| DL1XH-west | 2026-09-04 00:59:19 | 53.14972 | 1.02429 | 26° | 7km/h | 30389m | 4.6m/s | -45.6°C | 0% | 0hPa | 2.6V | 18:12:15 | 02:08:09 | 00:00:00 | |
| DM0DOS-11 | 2026-09-04 00:59:15 | 53.14946 | 1.02395 | 55° | 13km/h | 30352m | 5.5m/s | -45.7°C | 3.1% | 0hPa | 2.5V | 08:30:00 | 02:08:02 | 00:00:00 | |
| DL1XH-west | 2026-09-04 00:59:08 | 53.14944 | 1.02383 | 83° | 9km/h | 30336m | 6m/s | -45.7°C | 0% | 0hPa | 2.6V | 18:12:15 | 02:07:59 | 00:00:00 | |
| DM0DOS-11 | 2026-09-04 00:59:05 | 53.14931 | 1.02375 | 3° | 15km/h | 30299m | 4.3m/s | -45.5°C | 3% | 0hPa | 2.6V | 08:30:00 | 02:07:52 | 00:00:00 | |
| DL1XH-west | 2026-09-04 00:58:58 | 53.14917 | 1.02365 | 30° | 24km/h | 30282m | 4.8m/s | -45.4°C | 0.1% | 0hPa | 2.5V | 18:12:15 | 02:07:49 | 00:00:00 | |
| DM0DOS-11 | 2026-09-04 00:58:55 | 53.14890 | 1.02375 | 321° | 15km/h | 30246m | 5.9m/s | -45.2°C | 3% | 0hPa | 2.5V | 08:30:00 | 02:07:42 | 00:00:00 | |
| BIOWL1-15 | 2026-09-04 00:58:54 | 53.14888 | 1.02378 | 331° | 11km/h | 30241m | 5.3m/s | -45.1°C | 0.1% | 0hPa | 2.5V | 18:12:15 | 02:07:41 | 00:00:00 | |
| DL1XH-west | 2026-09-04 00:58:48 | 53.14884 | 1.02380 | 359° | 7km/h | 30231m | 4.9m/s | -45.1°C | 0% | 0hPa | 2.6V | 18:12:15 | 02:07:39 | 00:00:00 | |
| DM0DOS-11 | 2026-09-04 00:58:45 | 53.14867 | 1.02394 | 351° | 15km/h | 30192m | 5.7m/s | -44.8°C | 2.9% | 0hPa | 2.5V | 08:30:00 | 02:07:32 | 00:00:00 | |
| HTAHTA | 2026-09-04 00:58:38 | 53.14855 | 1.02398 | 332° | 15km/h | 30176m | 6.1m/s | -44.7°C | 0.7% | -1.0hPa | 2.5V | 00:00:00 | 00:00:00 | 00:00:00 | |
| DL1XH-west | 2026-09-04 00:58:38 | 53.14855 | 1.02398 | 333° | 16km/h | 30176m | 6.1m/s | -44.7°C | 0% | 0hPa | 2.5V | 18:12:15 | 02:07:29 | 00:00:00 | |
| DM0DOS-11 | 2026-09-04 00:58:35 | 53.14839 | 1.02424 | 321° | 9km/h | 30139m | 4.6m/s | -44.5°C | 2.9% | 0hPa | 2.5V | 08:30:00 | 02:07:22 | 00:00:00 | |
| DL1XH-west | 2026-09-04 00:58:28 | 53.14834 | 1.02438 | 293° | 16km/h | 30121m | 5.3m/s | -44.5°C | 0% | 0hPa | 2.5V | 18:12:15 | 02:07:19 | 00:00:00 | |
| BIOWL1-15 | 2026-09-04 00:58:27 | 53.14832 | 1.02445 | 294° | 16km/h | 30116m | 5.2m/s | -44.5°C | 0% | 0hPa | 2.5V | 18:12:15 | 02:07:18 | 00:00:00 | |
| DL1XH1-15 | 2026-09-04 00:58:24 | 53.14822 | 1.02465 | 315° | 13km/h | 30089m | 5.8m/s | -44.5°C | 2.9% | 0hPa | 2.5V | 08:30:00 | 02:07:13 | 00:00:00 | |
| DL1XH-west | 2026-09-04 00:58:17 | 53.14813 | 1.02497 | 288° | 15km/h | 30061m | 6.2m/s | -44.7°C | 0% | 0hPa | 2.6V | 18:12:15 | 02:07:08 | 00:00:00 | |
| BIOWL1-15 | 2026-09-04 00:58:17 | 53.14812 | 1.02509 | 277° | 11km/h | 30044m | 5.2m/s | -44.7°C | 0% | 0hPa | 2.5V | 18:12:15 | 02:07:05 | 00:00:00 | |
| DL1XH1-15 | 2026-09-04 00:58:14 | 53.14810 | 1.02520 | 283° | 15km/h | 30033m | 5.4m/s | -44.6°C | 2.9% | 0hPa | 2.6V | 08:30:00 | 02:07:03 | 00:00:00 | |
| BIOWL1-15 | 2026-09-04 00:58:08 | 53.14809 | 1.02566 | 265° | 20km/h | 29987m | 5.9m/s | -44.3°C | 0% | 0hPa | 2.6V | 18:12:15 | 02:06:55 | 00:00:00 | |
| DL1XH-west | 2026-09-04 00:58:06 | 53.14808 | 1.02553 | 257° | 13km/h | 29999m | 4.9m/s | -44.4°C | 0% | 0hPa | 2.6V | 18:12:15 | 02:06:57 | 00:00:00 | |
| DM0DOS-11 | 2026-09-04 00:58:05 | 53.14812 | 1.02593 | 246° | 22km/h | 29971m | 6.1m/s | -44.2°C | 2.9% | 0hPa | 2.5V | 08:30:00 | 02:06:52 | 00:00:00 | |
| DL1XH1-15 | 2026-09-04 00:58:04 | 53.14811 | 1.02584 | 255° | 22km/h | 29976m | 5.2m/s | -44.2°C | 2.9% | 0hPa | 2.5V | 08:30:00 | 02:06:53 | 00:00:00 | |
| DL1XH-west | 2026-09-04 00:57:56 | 53.14825 | 1.02624 | 255° | 15km/h | 29941m | 6.2m/s | -44°C | 0% | 0hPa | 2.5V | 18:12:15 | 02:06:47 | 00:00:00 | |
| DM0DOS-11 | 2026-09-04 00:57:55 | 53.14828 | 1.02650 | 229° | 9km/h | 29912m | 5.9m/s | -43.9°C | 2.8% | 0hPa | 2.5V | 08:30:00 | 02:06:42 | 00:00:00 | |
| BIOWL1-15 | 2026-09-04 00:57:55 | 53.14826 | 1.02631 | 264° | 16km/h | 29936m | 5.1m/s | -44°C | 0% | 0hPa | 2.5V | 18:12:15 | 02:06:46 | 00:00:00 | |
| DL1XH-west | 2026-09-04 00:57:45 | 53.14844 | 1.02691 | 230° | 26km/h | 29876m | 6.3m/s | -43.7°C | 0% | 0hPa | 2.5V | 18:12:15 | 02:06:36 | 00:00:00 | |
| DM0DOS-11 | 2026-09-04 00:57:45 | 53.14860 | 1.02716 | 230° | 16km/h | 29854m | 5.9m/s | -43.6°C | 2.8% | 0hPa | 2.6V | 08:30:00 | 02:06:32 | 00:00:00 | |
| BIOWL1-15 | 2026-09-04 00:57:44 | 53.14864 | 1.02738 | 255° | 11km/h | 29830m | 6.2m/s | -43.6°C | 0% | 0hPa | 2.5V | 18:12:15 | 02:06:28 | 00:00:00 | |
| DL1XH1-15 | 2026-09-04 00:57:44 | 53.14857 | 1.02711 | 217° | 18km/h | 29860m | 5.5m/s | -43.6°C | 2.8% | 0hPa | 2.5V | 08:30:00 | 02:06:33 | 00:00:00 | |
| DL1XH-west | 2026-09-04 00:57:34 | 53.14869 | 1.02747 | 213° | 11km/h | 29812m | 5.2m/s | -43.4°C | 0% | 0hPa | 2.5V | 18:12:15 | 02:06:25 | 00:00:00 | |
| DL1XH1-15 | 2026-09-04 00:57:34 | 53.14875 | 1.02755 | 222° | 16km/h | 29800m | 5.7m/s | -43.4°C | 2.8% | 0hPa | 2.5V | 08:30:00 | 02:06:23 | 00:00:00 | |
| BIOWL1-15 | 2026-09-04 00:57:33 | 53.14881 | 1.02764 | 223° | 16km/h | 29789m | 5.9m/s | -43.3°C | 0% | 0hPa | 2.6V | 18:12:15 | 02:06:21 | 00:00:00 | |
| DM0DOS-11 | 2026-09-04 00:57:33 | 53.14878 | 1.02760 | 223° | 16km/h | 29795m | 5.2m/s | -43.3°C | 2.7% | 0hPa | 2.5V | 08:30:00 | 02:06:22 | 00:00:00 | |
| AU51GT2 | 2026-09-04 00:57:32 | 53.14875 | 1.02755 | 222° | 16km/h | 29801m | 5.7m/s | -43.4°C | 0.7% | -1.0hPa | 2.6V | 00:00:00 | 00:00:00 | 00:00:00 | |
| DJ2DS-15 | 2026-09-04 00:57:31 | 53.14877 | 1.02760 | 224° | 13km/h | 29795m | 5.2m/s | -43.3°C | 2.7% | 0hPa | 2.6V | 00:00:00 | 02:06:22 | 00:00:00 | |
| DL1XH1-15 | 2026-09-04 00:57:24 | 53.14893 | 1.02790 | 246° | 9km/h | 29741m | 6.7m/s | -43.1°C | 2.7% | 0hPa | 2.6V | 08:30:00 | 02:06:13 | 00:00:00 | |
| DL1XH-west | 2026-09-04 00:57:23 | 53.14893 | 1.02786 | 264° | 9km/h | 29747m | 4.9m/s | -43.2°C | 0% | 0hPa | 2.5V | 18:12:15 | 02:06:14 | 00:00:00 | |
| DM0DOS-11 | 2026-09-04 00:57:22 | 53.14895 | 1.02793 | 209° | 11km/h | 29734m | 6.9m/s | -43.1°C | 2.7% | 0hPa | 2.6V | 08:30:00 | 02:06:12 | 00:00:00 | |
| BIOWL1-15 | 2026-09-04 00:57:19 | 53.14918 | 1.02808 | 222° | 16km/h | 29698m | 6.1m/s | -43°C | 0% | 0hPa | 2.6V | 18:12:15 | 02:06:06 | 00:00:00 | |
| BIOWL9-15 | 2026-09-04 00:57:18 | 53.14906 | 1.02797 | 191° | 16km/h | 29717m | 5.2m/s | -43.1°C | 0.7% | -1.0hPa | 2.5V | 00:00:00 | 00:00:00 | 00:00:00 | |
| DM0DOS-11 | 2026-09-04 00:57:16 | 53.14926 | 1.02817 | 178° | 5km/h | 29674m | 5.1m/s | -43°C | 2.6% | 0hPa | 2.5V | 08:30:00 | 02:06:02 | 00:00:00 | |
| DL1XH1-15 | 2026-09-04 00:57:14 | 53.14925 | 1.02816 | 194° | 7km/h | 29679m | 5.4m/s | -43°C | 2.6% | 0hPa | 2.5V | 08:30:00 | 02:06:03 | 00:00:00 | |
| DL1XH-west | 2026-09-04 00:57:12 | 53.14925 | 1.02816 | 195° | 7km/h | 29679m | 5.4m/s | -43°C | 0% | 0hPa | 2.5V | 18:12:15 | 02:06:03 | 00:00:00 | |
| BIOWL1-15 | 2026-09-04 00:57:09 | 53.14928 | 1.02817 | 230° | 4km/h | 29663m | 6.6m/s | -43.1°C | 0% | 0hPa | 2.6V | 18:12:15 | 02:06:00 | 00:00:00 | |
| DM0DOS-11 | 2026-09-04 00:57:05 | 53.14961 | 1.02824 | 187° | 26km/h | 29613m | 6.9m/s | -43.5°C | 2.7% | 0hPa | 2.5V | 08:30:00 | 02:05:52 | 00:00:00 | |
| DL1XH1-15 | 2026-09-04 00:57:04 | 53.14955 | 1.02823 | 177° | 27km/h | 29620m | 6.9m/s | -43.5°C | 2.8% | 0hPa | 2.6V | 08:30:00 | 02:05:53 | 00:00:00 | |
| DL1XH-west | 2026-09-04 00:57:02 | 53.14955 | 1.02823 | 178° | 27km/h | 29620m | 6.9m/s | -43.5°C | 0% | 0hPa | 2.6V | 18:12:15 | 02:05:53 | 00:00:00 | |
| BIOWL1-15 | 2026-09-04 00:56:59 | 53.14972 | 1.02827 | 193° | 18km/h | 29602m | 5.3m/s | -43.6°C | 0% | 0hPa | 2.5V | 18:12:15 | 02:05:50 | 00:00:00 | |
| DM0DOS-11 | 2026-09-04 00:56:55 | 53.14995 | 1.02821 | 188° | 18km/h | 29552m | 5m/s | -43.8°C | 2.8% | 0hPa | 2.6V | 08:30:00 | 02:05:42 | 00:00:00 | |
| DL1XH-west | 2026-09-04 00:56:51 | 53.14995 | 1.02821 | 189° | 18km/h | 29553m | 5m/s | -43.8°C | 0% | 0hPa | 2.6V | 18:12:15 | 02:05:42 | 00:00:00 | |
| BIOWL1-15 | 2026-09-04 00:56:50 | 53.15012 | 1.02819 | 166° | 24km/h | 29535m | 6m/s | -43.7°C | 0% | 0hPa | 2.5V | 18:12:15 | 02:05:39 | 00:00:00 | |
| BIOWL9-15 | 2026-09-04 00:56:47 | 53.15017 | 1.02817 | 164° | 22km/h | 29529m | 5.0m/s | -43.7°C | 0.7% | -1.0hPa | 2.5V | 00:00:00 | 00:00:00 | 00:00:00 | |
| DM0DOS-11 | 2026-09-04 00:56:45 | 53.15035 | 1.02809 | 147° | 7km/h | 29492m | 5.4m/s | -43.7°C | 2.9% | 0hPa | 2.5V | 08:30:00 | 02:05:32 | 00:00:00 | |
| DL1XH-west | 2026-09-04 00:56:41 | 53.15035 | 1.02809 | 148° | 7km/h | 29492m | 5.4m/s | -43.7°C | 0% | 0hPa | 2.5V | 18:12:15 | 02:05:32 | 00:00:00 | |
| BIOWL1-15 | 2026-09-04 00:56:37 | 53.15046 | 1.02814 | 211° | 22km/h | 29469m | 6.3m/s | -43.6°C | 0% | 0hPa | 2.6V | 18:12:15 | 02:05:28 | 00:00:00 | |
| DM0DOS-11 | 2026-09-04 00:56:35 | 53.15087 | 1.02827 | 176° | 26km/h | 29432m | 7.2m/s | -43.3°C | 2.7% | 0hPa | 2.6V | 08:30:00 | 02:05:22 | 00:00:00 | |
| DL1XH1-15 | 2026-09-04 00:56:33 | 53.15080 | 1.02828 | 177° | 29km/h | 29438m | 5.4m/s | -43.3°C | 2.8% | 0hPa | 2.5V | 08:30:00 | 02:05:23 | 00:00:00 | |
| DL1XH-west | 2026-09-04 00:56:30 | 53.15093 | 1.02827 | 182° | 22km/h | 29425m | 6.2m/s | -43.2°C | 0% | 0hPa | 2.6V | 18:12:15 | 02:05:21 | 00:00:00 | |
| BIOWL1-15 | 2026-09-04 00:56:29 | 53.15107 | 1.02826 | 171° | 16km/h | 29408m | 6.4m/s | -43.2°C | 0% | 0hPa | 2.5V | 18:12:15 | 02:05:18 | 00:00:00 | |
| DM0DOS-11 | 2026-09-04 00:56:25 | 53.15139 | 1.02836 | 197° | 31km/h | 29371m | 5.6m/s | -43.1°C | 2.7% | 0hPa | 2.5V | 08:30:00 | 02:05:12 | 00:00:00 | |
| DL1XH1-15 | 2026-09-04 00:56:23 | 53.15132 | 1.02832 | 203° | 31km/h | 29377m | 5.4m/s | -43.1°C | 2.7% | 0hPa | 2.5V | 08:30:00 | 02:05:13 | 00:00:00 | |
| DL1XH-west | 2026-09-04 00:56:20 | 53.15147 | 1.02839 | 192° | 33km/h | 29365m | 6.1m/s | -43.1°C | 0% | 0hPa | 2.5V | 18:12:15 | 02:05:11 | 00:00:00 | |
| BIOWL1-15 | 2026-09-04 00:56:18 | 53.15192 | 1.02828 | 153° | 18km/h | 29320m | 5.8m/s | -43.4°C | 0% | 0hPa | 2.5V | 18:12:15 | 02:05:03 | 00:00:00 | |
| DL1XH1-15 | 2026-09-04 00:56:17 | 53.15192 | 1.02828 | 152° | 18km/h | 29320m | 5.8m/s | -43.4°C | 2.7% | 0hPa | 2.5V | 08:30:00 | 02:05:03 | 00:00:00 | |
| DL1XH-west | 2026-09-04 00:56:09 | 53.15208 | 1.02814 | 158° | 27km/h | 29303m | 4.9m/s | -43.4°C | 0% | 0hPa | 2.6V | 18:12:15 | 02:05:00 | 00:00:00 | |
| DM0DOS-11 | 2026-09-04 00:56:05 | 53.15273 | 1.02801 | 167° | 37km/h | 29256m | 4.8m/s | -43.5°C | 2.8% | 0hPa | 2.5V | 08:30:00 | 02:04:52 | 00:00:00 | |
| BIOWL1-15 | 2026-09-04 00:56:01 | 53.15308 | 1.02784 | 152° | 26km/h | 29228m | 6m/s | -43.5°C | 0% | 0hPa | 2.5V | 18:12:15 | 02:04:47 | 00:00:00 | |
| DL1XH-west | 2026-09-04 00:55:58 | 53.15296 | 1.02792 | 164° | 26km/h | 29239m | 4.9m/s | -43.5°C | 0% | 0hPa | 2.6V | 18:12:15 | 02:04:49 | 00:00:00 | |
| DL1XH1-15 | 2026-09-04 00:55:53 | 53.15335 | 1.02760 | 156° | 31km/h | 29205m | 5.7m/s | -43.5°C | 2.8% | 0hPa | 2.5V | 08:30:00 | 02:04:43 | 00:00:00 | |
| DJ2DS-15 | 2026-09-04 00:55:48 | 53.15367 | 1.02751 | 170° | 24km/h | 29174m | 5.9m/s | -43.5°C | 0.7% | -1.0hPa | 2.5V | 00:00:00 | 00:00:00 | 00:00:00 | |
| DL1XH-west | 2026-09-04 00:55:48 | 53.15367 | 1.02751 | 170° | 26km/h | 29174m | 5.9m/s | -43.5°C | 0% | 0hPa | 2.5V | 18:12:15 | 02:04:38 | 00:00:00 | |
| DL1XH1-15 | 2026-09-04 00:55:47 | 53.15392 | 1.02738 | 153° | 18km/h | 29144m | 5m/s | -43.4°C | 2.7% | 0hPa | 2.5V | 08:30:00 | 02:04:33 | 00:00:00 | |
| BIOWL1-15 | 2026-09-04 00:55:45 | 53.15392 | 1.02738 | 153° | 20km/h | 29144m | 5m/s | -43.4°C | 0% | 0hPa | 2.5V | 18:12:15 | 02:04:33 | 00:00:00 | |
| DM0DOS-11 | 2026-09-04 00:55:36 | 53.15454 | 1.02698 | 155° | 24km/h | 29081m | 5.6m/s | -43.5°C | 2.7% | 0hPa | 2.6V | 08:30:00 | 02:04:22 | 00:00:00 | |
| DL1XH1-15 | 2026-09-04 00:55:36 | 53.15448 | 1.02701 | 159° | 24km/h | 29086m | 5.7m/s | -43.5°C | 2.7% | 0hPa | 2.5V | 08:30:00 | 02:04:23 | 00:00:00 | |
| DL1XH-west | 2026-09-04 00:55:36 | 53.15427 | 1.02710 | 168° | 22km/h | 29110m | 5.6m/s | -43.6°C | 0% | 0hPa | 2.6V | 18:12:15 | 02:04:27 | 00:00:00 | |
| BIOWL1-15 | 2026-09-04 00:55:33 | 53.15443 | 1.02704 | 166° | 22km/h | 29093m | 6.6m/s | -43.5°C | 0% | 0hPa | 2.5V | 18:12:15 | 02:04:24 | 00:00:00 | |
| DJ2DS-15 | 2026-09-04 00:55:31 | 53.15454 | 1.02697 | 156° | 24km/h | 29081m | 5.6m/s | -43.5°C | 2.7% | 0hPa | 2.5V | 00:00:00 | 02:04:22 | 00:00:00 | |
| DB0UT-7 | 2026-09-04 00:55:27 | 53.15472 | 1.02684 | 150° | 15km/h | 29059m | 5.6m/s | -43.5°C | 2.7% | 0hPa | 2.5V | 00:00:00 | 00:00:00 | 00:00:00 | |
| DM0DOS-11 | 2026-09-04 00:55:26 | 53.15506 | 1.02654 | 158° | 24km/h | 29023m | 5.3m/s | -43.4°C | 2.7% | 0hPa | 2.5V | 08:30:00 | 02:04:12 | 00:00:00 | |
| DL1XH-west | 2026-09-04 00:55:26 | 53.15477 | 1.02678 | 147° | 24km/h | 29052m | 6.9m/s | -43.5°C | 0% | 0hPa | 2.5V | 18:12:15 | 02:04:17 | 00:00:00 | |
| DL1XH1-15 | 2026-09-04 00:55:23 | 53.15500 | 1.02657 | 159° | 24km/h | 29029m | 5.5m/s | -43.4°C | 2.7% | 0hPa | 2.5V | 08:30:00 | 02:04:13 | 00:00:00 | |
| BIOWL1-15 | 2026-09-04 00:55:21 | 53.15517 | 1.02645 | 151° | 26km/h | 29011m | 5.6m/s | -43.5°C | 0% | 0hPa | 2.5V | 18:12:15 | 02:04:10 | 00:00:00 | |
| DL1XH-west | 2026-09-04 00:55:15 | 53.15537 | 1.02620 | 143° | 20km/h | 28989m | 5m/s | -43.7°C | 0% | 0hPa | 2.6V | 18:12:15 | 02:04:06 | 00:00:00 | |
| DM0DOS-11 | 2026-09-04 00:55:15 | 53.15559 | 1.02593 | 146° | 37km/h | 28968m | 5.2m/s | -44°C | 2.7% | 0hPa | 2.5V | 08:30:00 | 02:04:02 | 00:00:00 | |
| BIOWL1-15 | 2026-09-04 00:55:09 | 53.15583 | 1.02569 | 154° | 33km/h | 28952m | 5.9m/s | -44.2°C | 0% | 0hPa | 2.5V | 18:12:15 | 02:03:59 | 00:00:00 | |
| DL1XH1-15 | 2026-09-04 00:55:07 | 53.15619 | 1.02536 | 139° | 27km/h | 28919m | 3.9m/s | -44.3°C | 2.8% | 0hPa | 2.6V | 08:30:00 | 02:03:53 | 00:00:00 | |
| DL1XH-west | 2026-09-04 00:55:05 | 53.15603 | 1.02555 | 155° | 26km/h | 28936m | 5m/s | -44.3°C | 0% | 0hPa | 2.5V | 18:12:15 | 02:03:56 | 00:00:00 | |
| DM0DOS-11 | 2026-09-04 00:55:02 | 53.15624 | 1.02528 | 134° | 26km/h | 28915m | 5m/s | -44.3°C | 2.8% | 0hPa | 2.5V | 08:30:00 | 02:03:52 | 00:00:00 | |
| BIOWL1-15 | 2026-09-04 00:54:57 | 53.15640 | 1.02499 | 137° | 26km/h | 28893m | 4.9m/s | -44.4°C | 0% | 0hPa | 2.6V | 18:12:15 | 02:03:48 | 00:00:00 | |
| AU51GT2 | 2026-09-04 00:54:57 | 53.15640 | 1.02499 | 136° | 24km/h | 28893m | 4.9m/s | -44.4°C | 0.7% | -1.0hPa | 2.6V | 00:00:00 | 00:00:00 | 00:00:00 | |
| DM0DOS-11 | 2026-09-04 00:54:56 | 53.15672 | 1.02451 | 125° | 16km/h | 28860m | 5.9m/s | -44.6°C | 2.7% | 0hPa | 2.6V | 08:30:00 | 02:03:42 | 00:00:00 | |
| DL1XH-west | 2026-09-04 00:54:54 | 53.15658 | 1.02474 | 140° | 33km/h | 28876m | 3.7m/s | -44.5°C | 0% | 0hPa | 2.5V | 18:12:15 | 02:03:45 | 00:00:00 | |
| BIOWL1-15 | 2026-09-04 00:54:47 | 53.15679 | 1.02401 | 107° | 26km/h | 28828m | 4.8m/s | -45°C | 0% | 0hPa | 2.5V | 18:12:15 | 02:03:36 | 00:00:00 | |
| DM0DOS-11 | 2026-09-04 00:54:44 | 53.15687 | 1.02368 | 122° | 18km/h | 28805m | 6.1m/s | -45.2°C | 2.9% | 0hPa | 2.6V | 08:30:00 | 02:03:32 | 00:00:00 | |
| DL1XH-west | 2026-09-04 00:54:44 | 53.15681 | 1.02391 | 106° | 24km/h | 28822m | 6.1m/s | -45°C | 0% | 0hPa | 2.5V | 18:12:15 | 02:03:35 | 00:00:00 | |
| DL1XH1-15 | 2026-09-04 00:54:43 | 53.15685 | 1.02375 | 117° | 18km/h | 28811m | 5.1m/s | -45.1°C | 2.8% | 0hPa | 2.6V | 08:30:00 | 02:03:33 | 00:00:00 | |
| BIOWL9-15 | 2026-09-04 00:54:43 | 53.15685 | 1.02375 | 117° | 16km/h | 28811m | 5.1m/s | -45.1°C | 0.7% | -1.0hPa | 2.5V | 00:00:00 | 00:00:00 | 00:00:00 | |
| GOEST3-10 | 2026-09-04 00:54:39 | 53.15693 | 1.02354 | 127° | 22km/h | 28794m | 4.5m/s | -45.3°C | 2.9% | 0hPa | 2.5V | 00:00:00 | 02:03:30 | 00:00:00 | |
| DL1XH1-15 | 2026-09-04 00:54:37 | 53.15703 | 1.02313 | 102° | 20km/h | 28755m | 4.8m/s | -45.7°C | 2.9% | 0hPa | 2.5V | 08:30:00 | 02:03:23 | 00:00:00 | |
| BIOWL1-15 | 2026-09-04 00:54:37 | 53.15698 | 1.02341 | 127° | 15km/h | 28783m | 6.2m/s | -45.4°C | 0% | 0hPa | 2.5V | 18:12:15 | 02:03:28 | 00:00:00 | |
| DL1XH-west | 2026-09-04 00:54:33 | 53.15702 | 1.02321 | 101° | 18km/h | 28761m | 6.5m/s | -45.6°C | 0% | 0hPa | 2.5V | 18:12:15 | 02:03:24 | 00:00:00 | |
| BIOWL1-15 | 2026-09-04 00:54:26 | 53.15707 | 1.02274 | 85° | 7km/h | 28719m | 6.2m/s | -46.1°C | 0.1% | 0hPa | 2.5V | 18:12:15 | 02:03:16 | 00:00:00 | |
| DL1XH1-15 | 2026-09-04 00:54:23 | 53.15709 | 1.02266 | 132° | 5km/h | 28703m | 6.6m/s | -46.1°C | 3% | 0hPa | 2.6V | 08:30:00 | 02:03:13 | 00:00:00 | |
| DL1XH-west | 2026-09-04 00:54:22 | 53.15709 | 1.02266 | 132° | 5km/h | 28703m | 6.6m/s | -46.1°C | 0% | 0hPa | 2.6V | 18:12:15 | 02:03:13 | 00:00:00 | |
| DM0DOS-11 | 2026-09-04 00:54:22 | 53.15710 | 1.02264 | 150° | 7km/h | 28697m | 5.2m/s | -46.2°C | 3% | 0hPa | 2.6V | 08:30:00 | 02:03:12 | 00:00:00 | |
| DL1XH1-15 | 2026-09-04 00:54:18 | 53.15726 | 1.02227 | 96° | 4km/h | 28649m | 5.3m/s | -46.3°C | 3.1% | 0hPa | 2.5V | 08:30:00 | 02:03:03 | 00:00:00 | |
| DM0DOS-11 | 2026-09-04 00:54:16 | 53.15726 | 1.02225 | 80° | 5km/h | 28643m | 6.2m/s | -46.3°C | 3.1% | 0hPa | 2.5V | 08:30:00 | 02:03:02 | 00:00:00 | |
| BIOWL1-15 | 2026-09-04 00:54:16 | 53.15722 | 1.02240 | 122° | 18km/h | 28671m | 4.5m/s | -46.3°C | 0.1% | 0hPa | 2.5V | 18:12:15 | 02:03:07 | 00:00:00 | |
| DL1XH-west | 2026-09-04 00:54:12 | 53.15726 | 1.02227 | 96° | 4km/h | 28649m | 5.3m/s | -46.3°C | 0.1% | 0hPa | 2.5V | 18:12:15 | 02:03:03 | 00:00:00 | |
| BIOWL9-15 | 2026-09-04 00:54:12 | 53.15726 | 1.02225 | 80° | 4km/h | 28644m | 6.2m/s | -46.3°C | 0.8% | -1.0hPa | 2.5V | 00:00:00 | 00:00:00 | 00:00:00 | |
| DJ2DS-15 | 2026-09-04 00:54:11 | 53.15726 | 1.02225 | 81° | 15km/h | 28644m | 6.2m/s | -46.3°C | 3.1% | 0hPa | 2.5V | 00:00:00 | 02:03:02 | 00:00:00 | |
| GOEST3-10 | 2026-09-04 00:54:10 | 53.15726 | 1.02223 | 99° | 7km/h | 28638m | 5.3m/s | -46.3°C | 3.1% | 0hPa | 2.5V | 00:00:00 | 02:03:01 | 00:00:00 | |
| DM0DOS-11 | 2026-09-04 00:54:06 | 53.15751 | 1.02179 | 146° | 20km/h | 28589m | 4.5m/s | -46.4°C | 3.1% | 0hPa | 2.6V | 08:30:00 | 02:02:52 | 00:00:00 | |
| BIOWL1-15 | 2026-09-04 00:54:05 | 53.15738 | 1.02198 | 138° | 22km/h | 28604m | 6.2m/s | -46.4°C | 0.1% | 0hPa | 2.5V | 18:12:15 | 02:02:55 | 00:00:00 | |
| DL1XH1-15 | 2026-09-04 00:54:04 | 53.15746 | 1.02184 | 138° | 24km/h | 28594m | 4.3m/s | -46.4°C | 3.1% | 0hPa | 2.5V | 08:30:00 | 02:02:53 | 00:00:00 | |
| DL1XH-west | 2026-09-04 00:54:01 | 53.15751 | 1.02179 | 146° | 20km/h | 28589m | 4.5m/s | -46.4°C | 0.1% | 0hPa | 2.6V | 18:12:15 | 02:02:52 | 00:00:00 | |
| HTAHTA | 2026-09-04 00:53:58 | 53.15761 | 1.02175 | 206° | 7km/h | 28574m | 4.4m/s | -46.4°C | 0.8% | -1.0hPa | 2.5V | 00:00:00 | 00:00:00 | 00:00:00 | |
| GOEST3-10 | 2026-09-04 00:53:55 | 53.15766 | 1.02175 | 145° | 16km/h | 28559m | 5.2m/s | -46.4°C | 3.1% | 0hPa | 2.5V | 00:00:00 | 02:02:46 | 00:00:00 | |
| DM0DOS-11 | 2026-09-04 00:53:54 | 53.15779 | 1.02156 | 143° | 18km/h | 28536m | 5.7m/s | -46.4°C | 3.1% | 0hPa | 2.5V | 08:30:00 | 02:02:42 | 00:00:00 | |
| DL1XH1-15 | 2026-09-04 00:53:54 | 53.15775 | 1.02161 | 140° | 20km/h | 28542m | 5.8m/s | -46.4°C | 3.1% | 0hPa | 2.5V | 08:30:00 | 02:02:43 | 00:00:00 | |
| DL1XH-west | 2026-09-04 00:53:50 | 53.15783 | 1.02152 | 149° | 18km/h | 28531m | 4.7m/s | -46.4°C | 0.1% | 0hPa | 2.5V | 18:12:15 | 02:02:41 | 00:00:00 | |
| DB0UT-7 | 2026-09-04 00:53:46 | 53.15796 | 1.02131 | 145° | 5km/h | 28502m | 6.0m/s | -46.4°C | 3.1% | 0hPa | 2.5V | 00:00:00 | 00:00:00 | 00:00:00 | |
| DL1XH1-15 | 2026-09-04 00:53:44 | 53.15800 | 1.02130 | 171° | 5km/h | 28486m | 4.5m/s | -46.5°C | 3.1% | 0hPa | 2.5V | 08:30:00 | 02:02:33 | 00:00:00 | |
| DM0DOS-11 | 2026-09-04 00:53:42 | 53.15802 | 1.02129 | 136° | 9km/h | 28481m | 6.1m/s | -46.5°C | 3.1% | 0hPa | 2.5V | 08:30:00 | 02:02:32 | 00:00:00 | |
| BIOWL1-15 | 2026-09-04 00:53:40 | 53.15803 | 1.02125 | 127° | 15km/h | 28475m | 5.6m/s | -46.6°C | 0.1% | 0hPa | 2.6V | 18:12:15 | 02:02:31 | 00:00:00 | |
| DL1XH-west | 2026-09-04 00:53:40 | 53.15806 | 1.02119 | 121° | 18km/h | 28470m | 5m/s | -46.6°C | 0.1% | 0hPa | 2.6V | 18:12:15 | 02:02:30 | 00:00:00 | |
| DM0DOS-11 | 2026-09-04 00:53:36 | 53.15817 | 1.02079 | 94° | 11km/h | 28425m | 5.1m/s | -46.9°C | 3.2% | 0hPa | 2.5V | 08:30:00 | 02:02:22 | 00:00:00 | |
| BIOWL1-15 | 2026-09-04 00:53:29 | 53.15821 | 1.02050 | 107° | 15km/h | 28377m | 4.6m/s | -47.1°C | 0.2% | 0hPa | 2.5V | 18:12:15 | 02:02:13 | 00:00:00 | |
| DL1XH-west | 2026-09-04 00:53:28 | 53.15817 | 1.02070 | 67° | 4km/h | 28409m | 5.9m/s | -47°C | 0.2% | 0hPa | 2.5V | 18:12:15 | 02:02:19 | 00:00:00 | |
| GOEST3-10 | 2026-09-04 00:53:27 | 53.15817 | 1.02069 | 80° | 2km/h | 28404m | 4.4m/s | -46.9°C | 3.2% | 0hPa | 2.5V | 00:00:00 | 00:00:00 | 00:00:00 | |
| DM0DOS-11 | 2026-09-04 00:53:26 | 53.15822 | 1.02045 | 96° | 13km/h | 28371m | 6.6m/s | -47.1°C | 3.3% | 0hPa | 2.5V | 08:30:00 | 02:02:12 | 00:00:00 | |
| DL1XH-west | 2026-09-04 00:53:17 | 53.15821 | 1.02032 | 76° | 5km/h | 28347m | 6.3m/s | -47°C | 0.2% | 0hPa | 2.6V | 18:12:15 | 02:02:08 | 00:00:00 | |
| BIOWL1-15 | 2026-09-04 00:53:14 | 53.15819 | 1.02023 | 33° | 5km/h | 28324m | 5.9m/s | -46.9°C | 0.2% | 0hPa | 2.5V | 18:12:15 | 02:02:04 | 00:00:00 | |
| DM0DOS-11 | 2026-09-04 00:53:12 | 53.15817 | 1.02020 | 49° | 4km/h | 28313m | 5.6m/s | -46.8°C | 3.2% | 0hPa | 2.6V | 08:30:00 | 02:02:02 | 00:00:00 | |
| DL1XH-west | 2026-09-04 00:53:07 | 53.15817 | 1.02010 | 68° | 5km/h | 28292m | 5.5m/s | -46.8°C | 0.2% | 0hPa | 2.5V | 18:12:15 | 02:01:58 | 00:00:00 | |
| DL1XH1-15 | 2026-09-04 00:53:04 | 53.15811 | 1.02003 | 77° | 7km/h | 28264m | 6.3m/s | -46.7°C | 3.2% | 0hPa | 2.5V | 08:30:00 | 02:01:53 | 00:00:00 | |
| BIOWL1-15 | 2026-09-04 00:53:03 | 53.15811 | 1.02005 | 42° | 5km/h | 28270m | 4.9m/s | -46.8°C | 0.2% | 0hPa | 2.5V | 18:12:15 | 02:01:54 | 00:00:00 | |
| DL1XH-west | 2026-09-04 00:52:57 | 53.15815 | 1.01990 | 202° | 4km/h | 28236m | 5m/s | -46.7°C | 0.2% | 0hPa | 2.6V | 18:12:15 | 02:01:48 | 00:00:00 | |
| HTAHTA | 2026-09-04 00:52:56 | 53.15816 | 1.01991 | 228° | 4km/h | 28231m | 4.7m/s | -46.7°C | 0.8% | -1.0hPa | 2.5V | 00:00:00 | 00:00:00 | 00:00:00 | |
| DB0UT-7 | 2026-09-04 00:52:55 | 53.15817 | 1.01992 | 237° | 7km/h | 28226m | 5.3m/s | -46.6°C | 3.2% | 0hPa | 2.5V | 00:00:00 | 02:01:46 | 00:00:00 | |
| DL1XH1-15 | 2026-09-04 00:52:54 | 53.15818 | 1.01990 | 116° | 5km/h | 28209m | 5.3m/s | -46.7°C | 3.2% | 0hPa | 2.5V | 08:30:00 | 02:01:43 | 00:00:00 | |
| BIOWL1-15 | 2026-09-04 00:52:53 | 53.15819 | 1.01989 | 293° | 2km/h | 28197m | 6.6m/s | -46.7°C | 0.2% | 0hPa | 2.6V | 18:12:15 | 02:01:41 | 00:00:00 | |
| DL1XH-west | 2026-09-04 00:52:46 | 53.15814 | 1.01998 | 326° | 7km/h | 28173m | 5.8m/s | -46.7°C | 0.2% | 0hPa | 2.5V | 18:12:15 | 02:01:37 | 00:00:00 | |
| DL1XH1-15 | 2026-09-04 00:52:44 | 53.15808 | 1.01999 | 333° | 7km/h | 28152m | 6.3m/s | -46.6°C | 3.2% | 0hPa | 2.5V | 08:30:00 | 02:01:33 | 00:00:00 | |
| BIOWL1-15 | 2026-09-04 00:52:44 | 53.15808 | 1.01999 | 334° | 7km/h | 28152m | 6.3m/s | -46.6°C | 0.2% | 0hPa | 2.5V | 18:12:15 | 02:01:33 | 00:00:00 | |
| DM0DOS-11 | 2026-09-04 00:52:42 | 53.15806 | 1.02001 | 315° | 11km/h | 28145m | 6.6m/s | -46.6°C | 3.2% | 0hPa | 2.5V | 08:30:00 | 02:01:32 | 00:00:00 | |
| BIOWL1-15 | 2026-09-04 00:52:38 | 53.15798 | 1.02032 | 251° | 9km/h | 28094m | 5m/s | -46.4°C | 0.2% | 0hPa | 2.5V | 18:12:15 | 02:01:23 | 00:00:00 | |
| DL1XH-west | 2026-09-04 00:52:36 | 53.15797 | 1.02023 | 318° | 5km/h | 28117m | 5.4m/s | -46.5°C | 0.2% | 0hPa | 2.6V | 18:12:15 | 02:01:27 | 00:00:00 | |
| DM0DOS-11 | 2026-09-04 00:52:36 | 53.15799 | 1.02035 | 263° | 7km/h | 28089m | 5.4m/s | -46.4°C | 3.1% | 0hPa | 2.5V | 08:30:00 | 02:01:22 | 00:00:00 | |
| DL1XH1-15 | 2026-09-04 00:52:33 | 53.15798 | 1.02032 | 250° | 9km/h | 28094m | 5m/s | -46.4°C | 3.1% | 0hPa | 2.5V | 08:30:00 | 02:01:23 | 00:00:00 | |
| DJ2DS-15 | 2026-09-04 00:52:31 | 53.15799 | 1.02035 | 264° | 11km/h | 28089m | 5.4m/s | -46.3°C | 3.1% | 0hPa | 2.6V | 00:00:00 | 02:01:22 | 00:00:00 | |
| DL1XH1-15 | 2026-09-04 00:52:27 | 53.15792 | 1.02069 | 237° | 13km/h | 28040m | 5.3m/s | -46.3°C | 3.2% | 0hPa | 2.6V | 08:30:00 | 02:01:13 | 00:00:00 | |
| DM0DOS-11 | 2026-09-04 00:52:26 | 53.15794 | 1.02072 | 220° | 7km/h | 28034m | 6.4m/s | -46.3°C | 3.1% | 0hPa | 2.5V | 08:30:00 | 02:01:12 | 00:00:00 | |
| DL1XH-west | 2026-09-04 00:52:25 | 53.15790 | 1.02051 | 285° | 13km/h | 28056m | 6.5m/s | -46.3°C | 0.1% | 0hPa | 2.5V | 18:12:15 | 02:01:16 | 00:00:00 | |
| BIOWL1-15 | 2026-09-04 00:52:21 | 53.15794 | 1.02072 | 220° | 7km/h | 28034m | 6.4m/s | -46.3°C | 0.2% | 0hPa | 2.5V | 18:12:15 | 02:01:12 | 00:00:00 | |
| DL1XH-west | 2026-09-04 00:52:14 | 53.15807 | 1.02068 | 215° | 13km/h | 27996m | 4.9m/s | -46.1°C | 0.1% | 0hPa | 2.6V | 18:12:15 | 02:01:05 | 00:00:00 | |
| BIOWL1-15 | 2026-09-04 00:52:13 | 53.15814 | 1.02079 | 222° | 11km/h | 27977m | 6.3m/s | -46.1°C | 0.1% | 0hPa | 2.5V | 18:12:15 | 02:01:02 | 00:00:00 | |
| DM0DOS-11 | 2026-09-04 00:52:12 | 53.15815 | 1.02079 | 221° | 11km/h | 27977m | 6.3m/s | -46°C | 3.1% | 0hPa | 2.5V | 08:30:00 | 02:01:02 | 00:00:00 | |
| DL1XH-west | 2026-09-04 00:52:03 | 53.15840 | 1.02072 | 132° | 20km/h | 27928m | 6.3m/s | -46.1°C | 0.1% | 0hPa | 2.5V | 18:12:15 | 02:00:54 | 00:00:00 | |
| BIOWL1-15 | 2026-09-04 00:52:00 | 53.15855 | 1.02061 | 207° | 5km/h | 27897m | 6.4m/s | -46.1°C | 0.1% | 0hPa | 2.5V | 18:12:15 | 02:00:49 | 00:00:00 | |
| DL1XH-west | 2026-09-04 00:51:53 | 53.15856 | 1.02070 | 1° | 4km/h | 27867m | 5.1m/s | -46°C | 0.1% | 0hPa | 2.6V | 18:12:15 | 02:00:44 | 00:00:00 | |
| DM0DOS-11 | 2026-09-04 00:51:52 | 53.15853 | 1.02066 | 55° | 13km/h | 27854m | 5.7m/s | -46.1°C | 3% | 0hPa | 2.5V | 08:30:00 | 02:00:42 | 00:00:00 | |
| BIOWL1-15 | 2026-09-04 00:51:48 | 53.15853 | 1.02041 | 111° | 9km/h | 27826m | 5.4m/s | -46.2°C | 0.1% | 0hPa | 2.6V | 18:12:15 | 02:00:37 | 00:00:00 | |
| DM0DOS-11 | 2026-09-04 00:51:46 | 53.15853 | 1.02038 | 267° | 5km/h | 27795m | 5.7m/s | -46.3°C | 3.1% | 0hPa | 2.5V | 08:30:00 | 02:00:32 | 00:00:00 | |
| DL1XH-west | 2026-09-04 00:51:43 | 53.15853 | 1.02036 | 284° | 4km/h | 27802m | 7m/s | -46.3°C | 0.1% | 0hPa | 2.5V | 18:12:15 | 02:00:33 | 00:00:00 | |
| BIOWL1-15 | 2026-09-04 00:51:38 | 53.15850 | 1.02040 | 29° | 7km/h | 27779m | 6.4m/s | -46.4°C | 0.2% | 0hPa | 2.6V | 18:12:15 | 02:00:29 | 00:00:00 | |
| BIOWL9-15 | 2026-09-04 00:51:37 | 53.15846 | 1.02032 | 58° | 15km/h | 27768m | 4.6m/s | -46.4°C | 0.8% | -1.0hPa | 2.5V | 00:00:00 | 00:00:00 | 00:00:00 | |
| GOEST3-10 | 2026-09-04 00:51:36 | 53.15846 | 1.02032 | 59° | 9km/h | 27768m | 4.6m/s | -46.3°C | 3.1% | 0hPa | 2.5V | 00:00:00 | 00:00:00 | 00:00:00 | |
| DJ2DS-15 | 2026-09-04 00:51:35 | 53.15844 | 1.02026 | 67° | 13km/h | 27763m | 5.3m/s | -46.4°C | 0.8% | -1.0hPa | 2.6V | 00:00:00 | 00:00:00 | 00:00:00 | |
| DL1XH1-15 | 2026-09-04 00:51:34 | 53.15843 | 1.02015 | 329° | 2km/h | 27740m | 6.3m/s | -46.4°C | 3.1% | 0hPa | 2.6V | 08:30:00 | 02:00:22 | 00:00:00 | |
| DL1XH-west | 2026-09-04 00:51:32 | 53.15843 | 1.02015 | 80° | 2km/h | 27746m | 5.7m/s | -46.4°C | 0.1% | 0hPa | 2.6V | 18:12:15 | 02:00:23 | 00:00:00 | |
| BIOWL1-15 | 2026-09-04 00:51:27 | 53.15837 | 1.02020 | 325° | 7km/h | 27717m | 5.4m/s | -46.5°C | 0.2% | 0hPa | 2.5V | 18:12:15 | 02:00:18 | 00:00:00 | |
| DB0UT-7 | 2026-09-04 00:51:25 | 53.15835 | 1.02023 | 332° | 13km/h | 27706m | 4.9m/s | -46.4°C | 3.1% | 0hPa | 2.5V | 00:00:00 | 00:00:00 | 00:00:00 | |
| DL1XH1-15 | 2026-09-04 00:51:23 | 53.15824 | 1.02015 | 40° | 20km/h | 27683m | 4.8m/s | -46.5°C | 3.1% | 0hPa | 2.5V | 08:30:00 | 02:00:12 | 00:00:00 | |
| DL1XH-west | 2026-09-04 00:51:22 | 53.15827 | 1.02019 | 33° | 18km/h | 27688m | 5.6m/s | -46.5°C | 0.2% | 0hPa | 2.5V | 18:12:15 | 02:00:13 | 00:00:00 | |
| BIOWL1-15 | 2026-09-04 00:51:16 | 53.15807 | 1.01986 | 298° | 7km/h | 27630m | 6.4m/s | -46.4°C | 0.1% | 0hPa | 2.5V | 18:12:15 | 02:00:03 | 00:00:00 | |
| DM0DOS-11 | 2026-09-04 00:51:12 | 53.15807 | 1.01989 | 282° | 7km/h | 27625m | 5.5m/s | -46.5°C | 3.1% | 0hPa | 2.5V | 08:30:00 | 02:00:02 | 00:00:00 | |
| DL1XH-west | 2026-09-04 00:51:11 | 53.15807 | 1.01989 | 282° | 7km/h | 27625m | 5.5m/s | -46.5°C | 0.1% | 0hPa | 2.5V | 18:12:15 | 02:00:02 | 00:00:00 | |
| BIOWL1-15 | 2026-09-04 00:51:04 | 53.15789 | 1.01967 | 59° | 22km/h | 27572m | 6m/s | -46.6°C | 0.1% | 0hPa | 2.6V | 18:12:15 | 01:59:53 | 00:00:00 | |
| DM0DOS-11 | 2026-09-04 00:51:02 | 53.15786 | 1.01959 | 56° | 20km/h | 27566m | 4.7m/s | -46.6°C | 3.1% | 0hPa | 2.6V | 08:30:00 | 01:59:52 | 00:00:00 | |
| DL1XH-west | 2026-09-04 00:51:00 | 53.15783 | 1.01953 | 59° | 16km/h | 27561m | 5.8m/s | -46.7°C | 0.1% | 0hPa | 2.6V | 18:12:15 | 01:59:51 | 00:00:00 | |
| DJ2DS-15 | 2026-09-04 00:50:59 | 53.15782 | 1.01948 | 61° | 9km/h | 27555m | 6.4m/s | -46.7°C | 0.8% | -1.0hPa | 2.5V | 00:00:00 | 00:00:00 | 00:00:00 | |
| GOEST3-10 | 2026-09-04 00:50:58 | 53.15781 | 1.01945 | 70° | 7km/h | 27550m | 5.6m/s | -46.7°C | 3.1% | 0hPa | 2.5V | 00:00:00 | 01:59:49 | 00:00:00 | |
| DL1XH1-15 | 2026-09-04 00:50:56 | 53.15773 | 1.01932 | 93° | 9km/h | 27509m | 4.8m/s | -47°C | 3.2% | 0hPa | 2.5V | 08:30:00 | 01:59:42 | 00:00:00 | |
| BIOWL1-15 | 2026-09-04 00:50:52 | 53.15773 | 1.01935 | 87° | 7km/h | 27514m | 6m/s | -47°C | 0.2% | 0hPa | 2.5V | 18:12:15 | 01:59:43 | 00:00:00 | |
| DL1XH-west | 2026-09-04 00:50:49 | 53.15772 | 1.01921 | 77° | 16km/h | 27497m | 5.9m/s | -47.1°C | 0.2% | 0hPa | 2.6V | 18:12:15 | 01:59:40 | 00:00:00 | |
| AU51GT2 | 2026-09-04 00:50:49 | 53.15771 | 1.01913 | 76° | 18km/h | 27492m | 5.0m/s | -47.1°C | 0.8% | -1.0hPa | 2.6V | 00:00:00 | 00:00:00 | 00:00:00 | |
| DL1XH-west | 2026-09-04 00:50:39 | 53.15751 | 1.01856 | 358° | 9km/h | 27441m | 4.5m/s | -47.2°C | 0.2% | 0hPa | 2.6V | 18:12:15 | 01:59:30 | 00:00:00 | |
| GOEST3-10 | 2026-09-04 00:50:38 | 53.15749 | 1.01856 | 354° | 15km/h | 27436m | 4.6m/s | -47.2°C | 3.2% | 0hPa | 2.6V | 00:00:00 | 01:59:29 | 00:00:00 | |
| DM0DOS-11 | 2026-09-04 00:50:37 | 53.15733 | 1.01816 | 91° | 26km/h | 27397m | 5.4m/s | -47.4°C | 3.2% | 0hPa | 2.6V | 08:30:00 | 01:59:22 | 00:00:00 | |
| BIOWL1-15 | 2026-09-04 00:50:28 | 53.15727 | 1.01768 | 54° | 16km/h | 27371m | 6.1m/s | -47.6°C | 0.2% | 0hPa | 2.5V | 18:12:15 | 01:59:17 | 00:00:00 | |
| DL1XH-west | 2026-09-04 00:50:28 | 53.15731 | 1.01783 | 70° | 24km/h | 27381m | 5.1m/s | -47.5°C | 0.2% | 0hPa | 2.5V | 18:12:15 | 01:59:19 | 00:00:00 | |
| DB0UT-7 | 2026-09-04 00:50:25 | 53.15725 | 1.01763 | 54° | 16km/h | 27365m | 6.5m/s | -47.6°C | 3.2% | 0hPa | 2.5V | 00:00:00 | 00:00:00 | 00:00:00 | |
| DL1XH1-15 | 2026-09-04 00:50:23 | 53.15716 | 1.01752 | 39° | 16km/h | 27343m | 5.7m/s | -47.9°C | 3.2% | 0hPa | 2.5V | 08:30:00 | 01:59:12 | 00:00:00 | |
| DL1XH-west | 2026-09-04 00:50:17 | 53.15705 | 1.01723 | 76° | 20km/h | 27321m | 6.2m/s | -48°C | 0.2% | 0hPa | 2.6V | 18:12:15 | 01:59:08 | 00:00:00 | |
| BIOWL1-15 | 2026-09-04 00:50:15 | 53.15703 | 1.01700 | 86° | 20km/h | 27306m | 5.4m/s | 0°C | 0% | 0hPa | 2.5V | 18:12:15 | 01:59:05 | 00:00:00 | |
| BIOWL1-15 | 2026-09-04 00:50:08 | 53.15678 | 1.01656 | 33° | 13km/h | 27245m | 6.2m/s | 0°C | 0% | 0hPa | 2.6V | 18:12:15 | 01:58:54 | 00:00:00 | |
| DL1XH-west | 2026-09-04 00:50:07 | 53.15692 | 1.01662 | 15° | 11km/h | 27266m | 5.7m/s | -48.5°C | 0.3% | 0hPa | 2.5V | 18:12:15 | 01:58:58 | 00:00:00 | |
| DL1XH1-15 | 2026-09-04 00:50:03 | 53.15673 | 1.01648 | 51° | 15km/h | 27234m | 5m/s | -48.6°C | 3.4% | 0hPa | 2.5V | 08:30:00 | 01:58:52 | 00:00:00 | |
| DL1XH-west | 2026-09-04 00:49:56 | 53.15654 | 1.01620 | 31° | 18km/h | 27208m | 5.7m/s | -48.8°C | 0.4% | 0hPa | 2.6V | 18:12:15 | 01:58:47 | 00:00:00 | |
| DB0UT-7 | 2026-09-04 00:49:55 | 53.15651 | 1.01617 | 23° | 11km/h | 27202m | 5.5m/s | -48.8°C | 3.5% | 0hPa | 2.5V | 00:00:00 | 01:58:46 | 00:00:00 | |
| DM0DOS-11 | 2026-09-04 00:49:52 | 53.15638 | 1.01619 | 340° | 16km/h | 27180m | 4.5m/s | -48.9°C | 3.5% | 0hPa | 2.5V | 08:30:00 | 01:58:42 | 00:00:00 | |
| DL1XH-west | 2026-09-04 00:49:45 | 53.15623 | 1.01627 | 1° | 7km/h | 27149m | 5.9m/s | -48.9°C | 0.4% | 0hPa | 2.5V | 18:12:15 | 01:58:36 | 00:00:00 | |
| DL1XH1-15 | 2026-09-04 00:49:43 | 53.15610 | 1.01625 | 352° | 11km/h | 27129m | 5.3m/s | -48.9°C | 3.5% | 0hPa | 2.5V | 08:30:00 | 01:58:32 | 00:00:00 | |
| DL1XH-west | 2026-09-04 00:49:35 | 53.15604 | 1.01650 | 294° | 15km/h | 27096m | 4.7m/s | -48.8°C | 0.4% | 0hPa | 2.5V | 18:12:15 | 01:58:26 | 00:00:00 | |
| DM0DOS-11 | 2026-09-04 00:49:32 | 53.15600 | 1.01672 | 283° | 11km/h | 27074m | 5.4m/s | -48.6°C | 3.4% | 0hPa | 2.6V | 08:30:00 | 01:58:22 | 00:00:00 | |
| GOEST3-10 | 2026-09-04 00:49:32 | 53.15600 | 1.01667 | 283° | 11km/h | 27080m | 5.3m/s | -48.6°C | 3.5% | 0hPa | 2.6V | 00:00:00 | 00:00:00 | 00:00:00 | |
| DJ2DS-15 | 2026-09-04 00:49:31 | 53.15600 | 1.01672 | 284° | 13km/h | 27074m | 5.3m/s | -48.6°C | 3.4% | 0hPa | 2.5V | 00:00:00 | 01:58:22 | 00:00:00 | |
| GOEST3-10 | 2026-09-04 00:49:27 | 53.15594 | 1.01683 | 296° | 9km/h | 27052m | 5.3m/s | -48.6°C | 3.5% | 0hPa | 2.5V | 00:00:00 | 01:58:18 | 00:00:00 | |
| DM0DOS-11 | 2026-09-04 00:49:26 | 53.15596 | 1.01709 | 280° | 16km/h | 27021m | 4.4m/s | -48.6°C | 3.4% | 0hPa | 2.5V | 08:30:00 | 01:58:12 | 00:00:00 | |
| DL1XH-west | 2026-09-04 00:49:24 | 53.15596 | 1.01691 | 249° | 11km/h | 27036m | 5.4m/s | -48.6°C | 0.4% | 0hPa | 2.6V | 18:12:15 | 01:58:15 | 00:00:00 | |
| DL1XH-west | 2026-09-04 00:49:14 | 53.15599 | 1.01758 | 246° | 13km/h | 26976m | 5.6m/s | -48.7°C | 0.4% | 0hPa | 2.5V | 18:12:15 | 01:58:04 | 00:00:00 | |
| DM0DOS-11 | 2026-09-04 00:49:12 | 53.15604 | 1.01768 | 230° | 16km/h | 26965m | 4.8m/s | -48.7°C | 3.5% | 0hPa | 2.6V | 08:30:00 | 01:58:02 | 00:00:00 | |
| GOEST3-10 | 2026-09-04 00:49:12 | 53.15601 | 1.01763 | 232° | 16km/h | 26971m | 5.6m/s | -48.7°C | 3.4% | 0hPa | 2.6V | 00:00:00 | 00:00:00 | 00:00:00 | |
| DJ2DS-15 | 2026-09-04 00:49:11 | 53.15607 | 1.01774 | 235° | 16km/h | 26960m | 5.5m/s | -48.7°C | 0.9% | -1.0hPa | 2.6V | 00:00:00 | 00:00:00 | 00:00:00 | |
| GOEST3-10 | 2026-09-04 00:49:07 | 53.15611 | 1.01795 | 259° | 20km/h | 26944m | 4.6m/s | -48.6°C | 3.5% | 0hPa | 2.6V | 00:00:00 | 01:57:58 | 00:00:00 | |
| DM0DOS-11 | 2026-09-04 00:49:06 | 53.15617 | 1.01840 | 263° | 15km/h | 26910m | 4.9m/s | -48.8°C | 3.5% | 0hPa | 2.6V | 08:30:00 | 01:57:52 | 00:00:00 | |
| DL1XH-west | 2026-09-04 00:49:02 | 53.15617 | 1.01834 | 267° | 16km/h | 26915m | 5.5m/s | -48.8°C | 0.4% | 0hPa | 2.6V | 18:12:15 | 01:57:53 | 00:00:00 | |
| GOEST3-10 | 2026-09-04 00:49:02 | 53.15617 | 1.01834 | 268° | 16km/h | 26915m | 5.5m/s | -48.7°C | 3.5% | 0hPa | 2.6V | 00:00:00 | 00:00:00 | 08:30:00 | |
| GOEST3-10 | 2026-09-04 00:48:57 | 53.15625 | 1.01861 | 223° | 13km/h | 26887m | 5.6m/s | -48.7°C | 3.5% | 0hPa | 2.5V | 00:00:00 | 01:57:48 | 00:00:00 | |
| DL1XH1-15 | 2026-09-04 00:48:55 | 53.15638 | 1.01894 | 262° | 16km/h | 26849m | 6.5m/s | -48.6°C | 3.5% | 0hPa | 2.5V | 08:30:00 | 01:57:41 | 00:00:00 | |
| DB0UT-7 | 2026-09-04 00:48:55 | 53.15630 | 1.01868 | 239° | 15km/h | 26876m | 5.1m/s | -48.7°C | 3.5% | 0hPa | 2.5V | 00:00:00 | 01:57:46 | 00:00:00 | |
| DM0DOS-11 | 2026-09-04 00:48:52 | 53.15637 | 1.01888 | 247° | 16km/h | 26854m | 4.8m/s | -48.6°C | 3.5% | 0hPa | 2.5V | 08:30:00 | 01:57:42 | 00:00:00 | |
| DL1XH-west | 2026-09-04 00:48:52 | 53.15635 | 1.01882 | 238° | 15km/h | 26859m | 5.2m/s | -48.7°C | 0.4% | 0hPa | 2.5V | 18:12:15 | 01:57:43 | 00:00:00 | |
| HTAHTA | 2026-09-04 00:48:48 | 53.15638 | 1.01914 | 268° | 15km/h | 26832m | 6.6m/s | -48.5°C | 0.9% | -1.0hPa | 2.6V | 00:00:00 | 00:00:00 | 00:00:00 | |
| GOEST3-10 | 2026-09-04 00:48:47 | 53.15638 | 1.01914 | 269° | 13km/h | 26832m | 6.6m/s | -48.4°C | 3.5% | 0hPa | 2.6V | 00:00:00 | 01:57:38 | 00:00:00 | |
| DM0DOS-11 | 2026-09-04 00:48:46 | 53.15643 | 1.01941 | 252° | 7km/h | 26799m | 4.3m/s | -48.4°C | 3.4% | 0hPa | 2.5V | 08:30:00 | 01:57:32 | 00:00:00 | |
| AU51GT2 | 2026-09-04 00:48:45 | 53.15641 | 1.01930 | 244° | 11km/h | 26815m | 4.8m/s | -48.4°C | 0.9% | -1.0hPa | 2.5V | 00:00:00 | 00:00:00 | 00:00:00 | |
| DL1XH1-15 | 2026-09-04 00:48:41 | 53.15644 | 1.01944 | 233° | 9km/h | 26795m | 4.5m/s | -48.3°C | 3.4% | 0hPa | 2.5V | 08:30:00 | 01:57:31 | 00:00:00 | |
| DL1XH-west | 2026-09-04 00:48:41 | 53.15643 | 1.01941 | 252° | 7km/h | 26799m | 4.3m/s | -48.4°C | 0.3% | 0hPa | 2.5V | 18:12:15 | 01:57:32 | 00:00:00 | |
| GOEST3-10 | 2026-09-04 00:48:37 | 53.15654 | 1.01958 | 223° | 26km/h | 26779m | 4.8m/s | -48.2°C | 3.4% | 0hPa | 2.6V | 00:00:00 | 01:57:28 | 00:00:00 | |
| DL1XH1-15 | 2026-09-04 00:48:35 | 53.15667 | 1.02014 | 250° | 5km/h | 26740m | 5.7m/s | -48.4°C | 3.4% | 0hPa | 2.6V | 08:30:00 | 01:57:21 | 00:00:00 | |
| DM0DOS-11 | 2026-09-04 00:48:32 | 53.15667 | 1.02011 | 268° | 11km/h | 26746m | 6.2m/s | -48.4°C | 3.4% | 0hPa | 2.6V | 08:30:00 | 01:57:22 | 00:00:00 | |
| DL1XH-west | 2026-09-04 00:48:30 | 53.15667 | 1.02014 | 250° | 5km/h | 26740m | 5.7m/s | -48.4°C | 0.3% | 0hPa | 2.6V | 18:12:15 | 01:57:21 | 00:00:00 | |
| GOEST3-10 | 2026-09-04 00:48:27 | 53.15672 | 1.02022 | 224° | 24km/h | 26724m | 5.7m/s | -48.3°C | 3.4% | 0hPa | 2.6V | 00:00:00 | 01:57:18 | 00:00:00 | |
| DM0DOS-11 | 2026-09-04 00:48:26 | 53.15701 | 1.02067 | 234° | 31km/h | 26689m | 6.1m/s | -48.4°C | 3.4% | 0hPa | 2.6V | 08:30:00 | 01:57:12 | 00:00:00 | |
| DL1XH-west | 2026-09-04 00:48:20 | 53.15705 | 1.02077 | 242° | 27km/h | 26684m | 4.8m/s | -48.4°C | 0.3% | 0hPa | 2.5V | 18:12:15 | 01:57:11 | 00:00:00 | |
| GOEST3-10 | 2026-09-04 00:48:17 | 53.15712 | 1.02101 | 245° | 11km/h | 26667m | 5.2m/s | -48.5°C | 3.5% | 0hPa | 2.5V | 00:00:00 | 01:57:08 | 08:30:00 | |
| DL1XH1-15 | 2026-09-04 00:48:15 | 53.15723 | 1.02133 | 217° | 26km/h | 26628m | 6m/s | -48.5°C | 3.4% | 0hPa | 2.5V | 08:30:00 | 01:57:01 | 00:00:00 | |
| DM0DOS-11 | 2026-09-04 00:48:13 | 53.15719 | 1.02127 | 220° | 20km/h | 26634m | 6.9m/s | -48.5°C | 3.4% | 0hPa | 2.5V | 08:30:00 | 01:57:02 | 00:00:00 | |
| DL1XH-west | 2026-09-04 00:48:09 | 53.15729 | 1.02140 | 219° | 33km/h | 26622m | 5.9m/s | -48.4°C | 0.3% | 0hPa | 2.5V | 18:12:15 | 01:57:00 | 00:00:00 | |
| GOEST3-10 | 2026-09-04 00:48:07 | 53.15742 | 1.02161 | 230° | 31km/h | 26609m | 5.9m/s | -48.4°C | 3.4% | 0hPa | 2.5V | 00:00:00 | 01:56:58 | 00:00:00 | |
| DM0DOS-11 | 2026-09-04 00:48:06 | 53.15763 | 1.02212 | 277° | 9km/h | 26576m | 6.6m/s | -48.5°C | 3.5% | 0hPa | 2.5V | 08:30:00 | 01:56:52 | 00:00:00 | |
| BIOWL1-15 | 2026-09-04 00:48:05 | 53.15753 | 1.02185 | 235° | 33km/h | 26600m | 5.2m/s | -48.5°C | 0.3% | 0hPa | 2.6V | 18:12:15 | 01:56:56 | 00:00:00 | |
| DL1XH1-15 | 2026-09-04 00:48:01 | 53.15762 | 1.02216 | 298° | 9km/h | 26570m | 5.1m/s | -48.5°C | 3.4% | 0hPa | 2.5V | 08:30:00 | 01:56:51 | 00:00:00 | |
| DL1XH-west | 2026-09-04 00:47:59 | 53.15761 | 1.02219 | 290° | 9km/h | 26565m | 3.7m/s | -48.5°C | 0.3% | 0hPa | 2.6V | 18:12:15 | 01:56:50 | 00:00:00 | |
| BIOWL9-15 | 2026-09-04 00:47:59 | 53.15761 | 1.02219 | 290° | 9km/h | 26566m | 3.7m/s | -48.5°C | 0.9% | -1.0hPa | 2.6V | 00:00:00 | 00:00:00 | 00:00:00 | |
| GOEST3-10 | 2026-09-04 00:47:57 | 53.15762 | 1.02226 | 239° | 18km/h | 26555m | 6.1m/s | -48.4°C | 3.5% | 0hPa | 2.6V | 00:00:00 | 01:56:48 | 00:00:00 | |
| DL1XH1-15 | 2026-09-04 00:47:55 | 53.15779 | 1.02280 | 246° | 24km/h | 26516m | 6.4m/s | -48.4°C | 3.4% | 0hPa | 2.6V | 08:30:00 | 01:56:41 | 00:00:00 | |
| BIOWL1-15 | 2026-09-04 00:47:55 | 53.15772 | 1.02251 | 246° | 24km/h | 26532m | 5.5m/s | -48.4°C | 0.3% | 0hPa | 2.5V | 18:12:15 | 01:56:44 | 00:00:00 | |
| DB0UT-7 | 2026-09-04 00:47:55 | 53.15766 | 1.02236 | 232° | 20km/h | 26545m | 5.6m/s | -48.4°C | 3.4% | 0hPa | 2.5V | 00:00:00 | 01:56:46 | 08:30:00 | |
| DM0DOS-11 | 2026-09-04 00:47:52 | 53.15776 | 1.02270 | 250° | 26km/h | 26522m | 4.7m/s | -48.4°C | 3.4% | 0hPa | 2.6V | 08:30:00 | 01:56:42 | 00:00:00 | |
| DL1XH-west | 2026-09-04 00:47:48 | 53.15784 | 1.02295 | 246° | 16km/h | 26504m | 5m/s | -48.4°C | 0.3% | 0hPa | 2.5V | 18:12:15 | 01:56:39 | 00:00:00 | |
| GOEST3-10 | 2026-09-04 00:47:47 | 53.15784 | 1.02301 | 263° | 11km/h | 26499m | 6.9m/s | -48.4°C | 3.3% | 0hPa | 2.5V | 00:00:00 | 01:56:38 | 00:00:00 | |
| DM0DOS-11 | 2026-09-04 00:47:46 | 53.15786 | 1.02329 | 245° | 20km/h | 26464m | 5.8m/s | -48.5°C | 3.4% | 0hPa | 2.6V | 08:30:00 | 01:56:32 | 00:00:00 | |
| BIOWL1-15 | 2026-09-04 00:47:42 | 53.15784 | 1.02323 | 244° | 15km/h | 26470m | 5.8m/s | -48.5°C | 0.3% | 0hPa | 2.6V | 18:12:15 | 01:56:33 | 00:00:00 | |
| DL1XH1-15 | 2026-09-04 00:47:41 | 53.15788 | 1.02338 | 249° | 26km/h | 26458m | 6.4m/s | -48.5°C | 3.4% | 0hPa | 2.5V | 08:30:00 | 01:56:31 | 00:00:00 | |
| DL1XH-west | 2026-09-04 00:47:37 | 53.15799 | 1.02372 | 235° | 33km/h | 26440m | 6.6m/s | -48.7°C | 0.3% | 0hPa | 2.5V | 18:12:15 | 01:56:28 | 00:00:00 | |
| DL1XH1-15 | 2026-09-04 00:47:35 | 53.15823 | 1.02431 | 223° | 16km/h | 26402m | 5.6m/s | -48.8°C | 3.4% | 0hPa | 2.5V | 08:30:00 | 01:56:21 | 00:00:00 | |
| BIOWL1-15 | 2026-09-04 00:47:31 | 53.15820 | 1.02426 | 237° | 16km/h | 26408m | 6.4m/s | -48.8°C | 0.4% | 0hPa | 2.5V | 18:12:15 | 01:56:22 | 00:00:00 | |
| DL1XH-west | 2026-09-04 00:47:27 | 53.15832 | 1.02445 | 226° | 20km/h | 26386m | 6.4m/s | -48.8°C | 0.3% | 0hPa | 2.6V | 18:12:15 | 01:56:18 | 00:00:00 | |
| GOEST3-10 | 2026-09-04 00:47:26 | 53.15836 | 1.02451 | 231° | 27km/h | 26380m | 5.1m/s | -48.7°C | 3.4% | 0hPa | 2.5V | 00:00:00 | 01:56:17 | 00:00:00 | |
| DB0UT-7 | 2026-09-04 00:47:25 | 53.15840 | 1.02459 | 226° | 20km/h | 26374m | 6.2m/s | -48.8°C | 3.4% | 0hPa | 2.5V | 00:00:00 | 00:00:00 | 00:00:00 | |
| DL1XH1-15 | 2026-09-04 00:47:21 | 53.15862 | 1.02501 | 246° | 22km/h | 26345m | 4.4m/s | -49.1°C | 3.5% | 0hPa | 2.5V | 08:30:00 | 01:56:11 | 00:00:00 | |
| BIOWL1-15 | 2026-09-04 00:47:19 | 53.15866 | 1.02514 | 236° | 13km/h | 26335m | 6.5m/s | -49.2°C | 0.4% | 0hPa | 2.6V | 18:12:15 | 01:56:09 | 00:00:00 | |
| DM0DOS-11 | 2026-09-04 00:47:16 | 53.15881 | 1.02544 | 223° | 22km/h | 26296m | 6.5m/s | -49.2°C | 3.5% | 0hPa | 2.6V | 08:30:00 | 01:56:02 | 00:00:00 | |
| DL1XH-west | 2026-09-04 00:47:16 | 53.15870 | 1.02521 | 219° | 9km/h | 26323m | 5.5m/s | -49.2°C | 0.4% | 0hPa | 2.5V | 18:12:15 | 01:56:07 | 00:00:00 | |
| BIOWL1-15 | 2026-09-04 00:47:09 | 53.15890 | 1.02558 | 222° | 27km/h | 26284m | 6m/s | -49.2°C | 0.4% | 0hPa | 2.6V | 18:12:15 | 01:56:00 | 00:00:00 | |
| DL1XH-west | 2026-09-04 00:47:06 | 53.15905 | 1.02579 | 218° | 22km/h | 26268m | 4.8m/s | -49.2°C | 0.4% | 0hPa | 2.5V | 18:12:15 | 01:55:57 | 00:00:00 | |
| DM0DOS-11 | 2026-09-04 00:47:02 | 53.15928 | 1.02592 | 200° | 16km/h | 26239m | 5.7m/s | -49.3°C | 3.5% | 0hPa | 2.6V | 08:30:00 | 01:55:52 | 00:00:00 | |
| BIOWL1-15 | 2026-09-04 00:46:58 | 53.15940 | 1.02603 | 206° | 22km/h | 26222m | 6.1m/s | -49.3°C | 0.4% | 0hPa | 2.5V | 18:12:15 | 01:55:49 | 00:00:00 | |
| BIOWL9-15 | 2026-09-04 00:46:57 | 53.15945 | 1.02607 | 203° | 22km/h | 26216m | 5.5m/s | -49.3°C | 0.9% | -1.0hPa | 2.5V | 00:00:00 | 00:00:00 | 00:00:00 | |
| DM0DOS-11 | 2026-09-04 00:46:56 | 53.15969 | 1.02635 | 198° | 15km/h | 26182m | 6.1m/s | -49.5°C | 3.6% | 0hPa | 2.5V | 08:30:00 | 01:55:42 | 00:00:00 | |
| DL1XH-west | 2026-09-04 00:46:55 | 53.15955 | 1.02617 | 216° | 24km/h | 26205m | 6m/s | -49.4°C | 0.4% | 0hPa | 2.6V | 18:12:15 | 01:55:46 | 00:00:00 | |
| DL1XH1-15 | 2026-09-04 00:46:55 | 53.15973 | 1.02636 | 191° | 13km/h | 26177m | 4.7m/s | -49.5°C | 3.6% | 0hPa | 2.5V | 08:30:00 | 01:55:41 | 00:00:00 | |
| BIOWL1-15 | 2026-09-04 00:46:48 | 53.15978 | 1.02639 | 209° | 9km/h | 26165m | 6.5m/s | -49.5°C | 0.4% | 0hPa | 2.5V | 18:12:15 | 01:55:39 | 00:00:00 | |
| DL1XH-west | 2026-09-04 00:46:45 | 53.15984 | 1.02649 | 224° | 16km/h | 26148m | 6.5m/s | -49.5°C | 0.4% | 0hPa | 2.6V | 18:12:15 | 01:55:36 | 00:00:00 | |
| DM0DOS-11 | 2026-09-04 00:46:42 | 53.15998 | 1.02677 | 243° | 24km/h | 26126m | 5.5m/s | -49.6°C | 3.6% | 0hPa | 2.5V | 08:30:00 | 01:55:32 | 00:00:00 | |
| DL1XH1-15 | 2026-09-04 00:46:41 | 53.16001 | 1.02686 | 242° | 24km/h | 26121m | 4.5m/s | -49.7°C | 3.6% | 0hPa | 2.5V | 08:30:00 | 01:55:31 | 00:00:00 | |
| GOEST3-10 | 2026-09-04 00:46:41 | 53.15999 | 1.02677 | 244° | 24km/h | 26126m | 5.5m/s | 0°C | 0% | 0hPa | 2.6V | 00:00:00 | 00:00:00 | 00:00:00 | |
| AU51GT2 | 2026-09-04 00:46:40 | 53.16001 | 1.02686 | 242° | 24km/h | 26121m | 4.5m/s | -49.7°C | 0.9% | -1.0hPa | 2.6V | 00:00:00 | 00:00:00 | 00:00:00 | |
| DM0DOS-11 | 2026-09-04 00:46:37 | 53.16038 | 1.02724 | 197° | 20km/h | 26069m | 5.9m/s | -49.9°C | 3.6% | 0hPa | 2.6V | 08:30:00 | 01:55:22 | 00:00:00 | |
| GOEST3-10 | 2026-09-04 00:46:36 | 53.16017 | 1.02712 | 204° | 18km/h | 26099m | 5.2m/s | 0°C | 0% | 0hPa | 2.6V | 00:00:00 | 01:55:27 | 00:00:00 | |
| DL1XH1-15 | 2026-09-04 00:46:35 | 53.16042 | 1.02727 | 204° | 20km/h | 26063m | 5.2m/s | -49.9°C | 3.6% | 0hPa | 2.6V | 08:30:00 | 01:55:21 | 00:00:00 | |
| DL1XH-west | 2026-09-04 00:46:34 | 53.16026 | 1.02718 | 199° | 16km/h | 26087m | 5.5m/s | -49.8°C | 0.5% | 0hPa | 2.5V | 18:12:15 | 01:55:25 | 00:00:00 | |
| DJ2DS-15 | 2026-09-04 00:46:31 | 53.16038 | 1.02724 | 198° | 22km/h | 26069m | 5.9m/s | -49.8°C | 3.6% | 0hPa | 2.6V | 00:00:00 | 01:55:22 | 00:00:00 | |
| DM0DOS-11 | 2026-09-04 00:46:26 | 53.16084 | 1.02766 | 201° | 18km/h | 26011m | 4.9m/s | -49.9°C | 3.6% | 0hPa | 2.6V | 08:30:00 | 01:55:12 | 00:00:00 | |
| DL1XH-west | 2026-09-04 00:46:23 | 53.16075 | 1.02760 | 205° | 22km/h | 26023m | 6m/s | -49.9°C | 0.5% | 0hPa | 2.6V | 18:12:15 | 01:55:14 | 00:00:00 | |
| DL1XH1-15 | 2026-09-04 00:46:21 | 53.16089 | 1.02769 | 196° | 20km/h | 26006m | 5.9m/s | -49.9°C | 3.6% | 0hPa | 2.5V | 08:30:00 | 01:55:11 | 00:00:00 | |
| GOEST3-10 | 2026-09-04 00:46:20 | 53.16089 | 1.02769 | 197° | 22km/h | 26006m | 5.9m/s | 0°C | 0% | 0hPa | 2.5V | 00:00:00 | 00:00:00 | 00:00:00 | |
| DM0DOS-11 | 2026-09-04 00:46:16 | 53.16136 | 1.02796 | 194° | 18km/h | 25957m | 5.2m/s | -49.9°C | 3.6% | 0hPa | 2.5V | 08:30:00 | 01:55:02 | 00:00:00 | |
| DL1XH1-15 | 2026-09-04 00:46:15 | 53.16140 | 1.02798 | 195° | 15km/h | 25951m | 5.9m/s | -49.9°C | 3.6% | 0hPa | 2.5V | 08:30:00 | 01:55:01 | 00:00:00 | |
| DL1XH-west | 2026-09-04 00:46:12 | 53.16131 | 1.02794 | 195° | 22km/h | 25962m | 4.3m/s | -49.9°C | 0.4% | 0hPa | 2.5V | 18:12:15 | 01:55:03 | 00:00:00 | |
| DJ2DS-15 | 2026-09-04 00:46:11 | 53.16136 | 1.02796 | 195° | 15km/h | 25957m | 5.1m/s | -49.8°C | 3.6% | 0hPa | 2.5V | 00:00:00 | 01:55:02 | 00:00:00 | |
| GOEST3-10 | 2026-09-04 00:46:10 | 53.16140 | 1.02798 | 196° | 15km/h | 25952m | 5.8m/s | 0°C | 0% | 0hPa | 2.5V | 00:00:00 | 00:00:00 | 00:00:00 | |
| AU51GT2 | 2026-09-04 00:46:09 | 53.16144 | 1.02799 | 200° | 11km/h | 25946m | 4.6m/s | -49.9°C | 0.9% | -1.0hPa | 2.5V | 00:00:00 | 00:00:00 | 00:00:00 | |
| DM0DOS-11 | 2026-09-04 00:46:06 | 53.16179 | 1.02814 | 177° | 13km/h | 25905m | 5.2m/s | -49.9°C | 3.5% | 0hPa | 2.5V | 08:30:00 | 01:54:52 | 00:00:00 | |
| BIOWL1-15 | 2026-09-04 00:46:04 | 53.16170 | 1.02812 | 194° | 24km/h | 25916m | 4.6m/s | -49.9°C | 0.4% | 0hPa | 2.5V | 18:12:15 | 01:54:54 | 00:00:00 | |
| DL1XH-west | 2026-09-04 00:46:01 | 53.16179 | 1.02814 | 178° | 13km/h | 25905m | 5.2m/s | -49.9°C | 0.4% | 0hPa | 2.5V | 18:12:15 | 01:54:52 | 00:00:00 | |
| DL1XH1-15 | 2026-09-04 00:45:59 | 53.16187 | 1.02808 | 145° | 11km/h | 25890m | 5.9m/s | -49.9°C | 3.5% | 0hPa | 2.6V | 08:30:00 | 01:54:49 | 00:00:00 | |
| GOEST3-10 | 2026-09-04 00:45:58 | 53.16186 | 1.02808 | 146° | 11km/h | 25890m | 5.9m/s | 0°C | 0% | 0hPa | 2.6V | 00:00:00 | 00:00:00 | 08:30:00 | |
| DM0DOS-11 | 2026-09-04 00:45:56 | 53.16203 | 1.02809 | 191° | 13km/h | 25852m | 6.2m/s | -50.4°C | 3.6% | 0hPa | 2.6V | 08:30:00 | 01:54:42 | 00:00:00 | |
| DL1XH-west | 2026-09-04 00:45:50 | 53.16207 | 1.02810 | 180° | 16km/h | 25846m | 5.3m/s | -50.4°C | 0.5% | 0hPa | 2.6V | 18:12:15 | 01:54:41 | 00:00:00 | |
| DL1XH1-15 | 2026-09-04 00:45:49 | 53.16216 | 1.02807 | 159° | 16km/h | 25836m | 5.9m/s | -50.5°C | 3.7% | 0hPa | 2.5V | 08:30:00 | 01:54:39 | 00:00:00 | |
| GOEST3-10 | 2026-09-04 00:45:48 | 53.16215 | 1.02807 | 160° | 13km/h | 25836m | 5.9m/s | 0°C | 0% | 0hPa | 2.6V | 00:00:00 | 00:00:00 | 00:00:00 | |
| DM0DOS-11 | 2026-09-04 00:45:46 | 53.16231 | 1.02788 | 100° | 2km/h | 25797m | 6.4m/s | -50.9°C | 3.8% | 0hPa | 2.6V | 08:30:00 | 01:54:32 | 00:00:00 | |
| BIOWL1-15 | 2026-09-04 00:45:45 | 53.16230 | 1.02787 | 26° | 5km/h | 25791m | 5.5m/s | -50.9°C | 0.6% | 0hPa | 2.5V | 18:12:15 | 01:54:31 | 00:00:00 | |
| GOEST3-10 | 2026-09-04 00:45:43 | 53.16228 | 1.02791 | 149° | 5km/h | 25808m | 4.3m/s | 0°C | 0% | 0hPa | 2.5V | 00:00:00 | 01:54:34 | 00:00:00 | |
| DL1XH1-15 | 2026-09-04 00:45:39 | 53.16227 | 1.02785 | 20° | 5km/h | 25782m | 4.5m/s | -50.9°C | 3.8% | 0hPa | 2.5V | 08:30:00 | 01:54:29 | 00:00:00 | |
| DL1XH-west | 2026-09-04 00:45:39 | 53.16229 | 1.02786 | 21° | 7km/h | 25786m | 4.5m/s | -50.9°C | 0.6% | 0hPa | 2.5V | 18:12:15 | 01:54:30 | 00:00:00 | |
| BIOWL1-15 | 2026-09-04 00:45:30 | 53.16231 | 1.02789 | 239° | 7km/h | 25738m | 5.9m/s | -50.9°C | 0.6% | 0hPa | 2.5V | 18:12:15 | 01:54:21 | 00:00:00 | |
| DL1XH1-15 | 2026-09-04 00:45:29 | 53.16233 | 1.02795 | 255° | 7km/h | 25726m | 5.2m/s | -50.9°C | 3.8% | 0hPa | 2.5V | 08:30:00 | 01:54:19 | 00:00:00 | |
| DL1XH-west | 2026-09-04 00:45:28 | 53.16233 | 1.02795 | 255° | 7km/h | 25726m | 5.2m/s | -50.9°C | 0.6% | 0hPa | 2.5V | 18:12:15 | 01:54:19 | 00:00:00 | |
| BIOWL1-15 | 2026-09-04 00:45:19 | 53.16245 | 1.02817 | 221° | 7km/h | 25666m | 5.7m/s | -50.8°C | 0.5% | 0hPa | 2.6V | 18:12:15 | 01:54:08 | 00:00:00 | |
| DL1XH1-15 | 2026-09-04 00:45:19 | 53.16243 | 1.02815 | 230° | 5km/h | 25672m | 4.9m/s | -50.8°C | 3.7% | 0hPa | 2.6V | 08:30:00 | 01:54:09 | 00:00:00 | |
| DL1XH-west | 2026-09-04 00:45:17 | 53.16246 | 1.02820 | 217° | 9km/h | 25661m | 5.7m/s | -50.8°C | 0.5% | 0hPa | 2.5V | 18:12:15 | 01:54:07 | 00:00:00 | |
| DM0DOS-11 | 2026-09-04 00:45:17 | 53.16254 | 1.02831 | 226° | 9km/h | 25634m | 4.7m/s | -50.9°C | 3.7% | 0hPa | 2.6V | 08:30:00 | 01:54:02 | 00:00:00 | |
| GOEST3-10 | 2026-09-04 00:45:13 | 53.16251 | 1.02827 | 221° | 15km/h | 25644m | 5.7m/s | 0°C | 0% | 0hPa | 2.5V | 00:00:00 | 01:54:04 | 00:00:00 | |
| DJ2DS-15 | 2026-09-04 00:45:11 | 53.16254 | 1.02831 | 227° | 16km/h | 25634m | 4.7m/s | -50.9°C | 3.7% | 0hPa | 2.5V | 00:00:00 | 01:54:02 | 00:00:00 | |
| DL1XH1-15 | 2026-09-04 00:45:10 | 53.16264 | 1.02843 | 212° | 20km/h | 25617m | 5.7m/s | -51.1°C | 3.8% | 0hPa | 2.5V | 08:30:00 | 01:53:59 | 00:00:00 | |
| BIOWL1-15 | 2026-09-04 00:45:08 | 53.16263 | 1.02843 | 212° | 20km/h | 25617m | 5.7m/s | -51.1°C | 0.6% | 0hPa | 2.5V | 18:12:15 | 01:53:59 | 00:00:00 | |
| DL1XH-west | 2026-09-04 00:45:06 | 53.16272 | 1.02849 | 195° | 16km/h | 25605m | 5.2m/s | -51.2°C | 0.6% | 0hPa | 2.5V | 18:12:15 | 01:53:57 | 00:00:00 | |
| DM0DOS-11 | 2026-09-04 00:45:02 | 53.16292 | 1.02859 | 206° | 15km/h | 25578m | 4.9m/s | -51.3°C | 3.8% | 0hPa | 2.6V | 08:30:00 | 01:53:52 | 00:00:00 | |
| BIOWL1-15 | 2026-09-04 00:45:00 | 53.16318 | 1.02870 | 191° | 20km/h | 25540m | 4.9m/s | -51.6°C | 0.6% | 0hPa | 2.6V | 18:12:15 | 01:53:45 | 00:00:00 | |
| DL1XH1-15 | 2026-09-04 00:44:59 | 53.16301 | 1.02863 | 189° | 13km/h | 25561m | 4.5m/s | -51.4°C | 3.8% | 0hPa | 2.5V | 08:30:00 | 01:53:49 | 00:00:00 | |
| DM0DOS-11 | 2026-09-04 00:44:56 | 53.16333 | 1.02867 | 153° | 18km/h | 25524m | 4.3m/s | -51.6°C | 3.9% | 0hPa | 2.5V | 08:30:00 | 01:53:42 | 00:00:00 | |
| DL1XH-west | 2026-09-04 00:44:55 | 53.16313 | 1.02868 | 196° | 22km/h | 25545m | 4.4m/s | -51.5°C | 0.6% | 0hPa | 2.6V | 18:12:15 | 01:53:46 | 00:00:00 | |
| BIOWL9-15 | 2026-09-04 00:44:53 | 53.16329 | 1.02869 | 163° | 18km/h | 25529m | 5.5m/s | -51.6°C | 1.1% | -1.0hPa | 2.5V | 00:00:00 | 00:00:00 | 00:00:00 | |
| DJ2DS-15 | 2026-09-04 00:44:51 | 53.16333 | 1.02867 | 154° | 16km/h | 25525m | 4.2m/s | -51.6°C | 3.9% | 0hPa | 2.5V | 00:00:00 | 01:53:42 | 08:30:00 | |
| DL1XH1-15 | 2026-09-04 00:44:49 | 53.16344 | 1.02862 | 185° | 15km/h | 25508m | 5.2m/s | -51.6°C | 3.8% | 0hPa | 2.5V | 08:30:00 | 01:53:39 | 00:00:00 | |
| DL1XH-west | 2026-09-04 00:44:45 | 53.16357 | 1.02864 | 178° | 22km/h | 25492m | 6m/s | -51.6°C | 0.6% | 0hPa | 2.6V | 18:12:15 | 01:53:36 | 00:00:00 | |
| DM0DOS-11 | 2026-09-04 00:44:42 | 53.16378 | 1.02859 | 167° | 18km/h | 25469m | 5.3m/s | -51.7°C | 3.9% | 0hPa | 2.5V | 08:30:00 | 01:53:32 | 00:00:00 | |
| GOEST3-10 | 2026-09-04 00:44:41 | 53.16378 | 1.02859 | 168° | 18km/h | 25470m | 5.2m/s | 0°C | 0% | 0hPa | 2.6V | 00:00:00 | 01:53:32 | 00:00:00 | |
| DL1XH1-15 | 2026-09-04 00:44:39 | 53.16388 | 1.02847 | 120° | 16km/h | 25452m | 5m/s | -51.8°C | 3.9% | 0hPa | 2.6V | 08:30:00 | 01:53:29 | 00:00:00 | |
| DM0DOS-11 | 2026-09-04 00:44:36 | 53.16409 | 1.02827 | 167° | 22km/h | 25414m | 4.5m/s | -52°C | 3.9% | 0hPa | 2.6V | 08:30:00 | 01:53:22 | 00:00:00 | |
| DL1XH-west | 2026-09-04 00:44:35 | 53.16393 | 1.02835 | 149° | 9km/h | 25436m | 5.1m/s | -51.9°C | 0.7% | 0hPa | 2.5V | 18:12:15 | 01:53:26 | 00:00:00 | |
| DJ2DS-15 | 2026-09-04 00:44:31 | 53.16409 | 1.02827 | 168° | 15km/h | 25414m | 4.4m/s | -51.9°C | 3.9% | 0hPa | 2.6V | 00:00:00 | 01:53:22 | 00:00:00 | |
| DM0DOS-11 | 2026-09-04 00:44:26 | 53.16436 | 1.02793 | 95° | 7km/h | 25358m | 4.4m/s | -52.1°C | 4% | 0hPa | 2.6V | 08:30:00 | 01:53:12 | 00:00:00 | |
| BIOWL1-15 | 2026-09-04 00:44:24 | 53.16436 | 1.02808 | 100° | 15km/h | 25376m | 4.4m/s | -52.1°C | 0.7% | 0hPa | 2.5V | 18:12:15 | 01:53:15 | 00:00:00 | |
| BIOWL1-15 | 2026-09-04 00:44:16 | 53.16452 | 1.02772 | 167° | 11km/h | 25319m | 5.3m/s | 0°C | 0% | 0hPa | 2.6V | 18:12:15 | 01:53:05 | 00:00:00 | |
| DL1XH-west | 2026-09-04 00:44:13 | 53.16455 | 1.02771 | 162° | 11km/h | 25314m | 6.5m/s | -52.2°C | 0.7% | 0hPa | 2.6V | 18:12:15 | 01:53:04 | 00:00:00 | |
| DM0DOS-11 | 2026-09-04 00:44:12 | 53.16460 | 1.02767 | 159° | 11km/h | 25302m | 4.6m/s | -52.3°C | 4% | 0hPa | 2.5V | 08:30:00 | 01:53:02 | 00:00:00 | |
| DJ2DS-15 | 2026-09-04 00:44:11 | 53.16460 | 1.02767 | 160° | 9km/h | 25302m | 4.5m/s | -52.3°C | 4.0% | 0hPa | 2.5V | 00:00:00 | 01:53:02 | 00:00:00 | |
| DL1XH1-15 | 2026-09-04 00:44:09 | 53.16465 | 1.02766 | 158° | 4km/h | 25286m | 4.6m/s | -52.4°C | 4.1% | 0hPa | 2.5V | 08:30:00 | 01:52:59 | 00:00:00 | |
| HTAHTA | 2026-09-04 00:44:08 | 53.16465 | 1.02766 | 158° | 2km/h | 25286m | 4.6m/s | -52.4°C | 1.1% | -1.0hPa | 2.5V | 00:00:00 | 00:00:00 | 00:00:00 | |
| DM0DOS-11 | 2026-09-04 00:44:06 | 53.16463 | 1.02736 | 82° | 15km/h | 25244m | 6.3m/s | -52.3°C | 4.1% | 0hPa | 2.5V | 08:30:00 | 01:52:52 | 00:00:00 | |
| DL1XH-west | 2026-09-04 00:44:03 | 53.16465 | 1.02746 | 71° | 13km/h | 25255m | 6m/s | -52.4°C | 0.7% | 0hPa | 2.5V | 18:12:15 | 01:52:54 | 00:00:00 | |
| GOEST3-10 | 2026-09-04 00:44:03 | 53.16465 | 1.02746 | 71° | 13km/h | 25255m | 6.0m/s | 0°C | 0% | 0hPa | 2.6V | 00:00:00 | 00:00:00 | 00:00:00 | |
| DL1XH1-15 | 2026-09-04 00:43:59 | 53.16464 | 1.02718 | 115° | 11km/h | 25226m | 6.2m/s | -52.3°C | 4.1% | 0hPa | 2.6V | 08:30:00 | 01:52:49 | 00:00:00 | |
| BIOWL1-15 | 2026-09-04 00:43:53 | 53.16465 | 1.02696 | 40° | 9km/h | 25176m | 4.8m/s | 0°C | 0% | 0hPa | 2.6V | 18:12:15 | 01:52:40 | 00:00:00 | |
| DL1XH-west | 2026-09-04 00:43:52 | 53.16468 | 1.02702 | 77° | 7km/h | 25193m | 4.8m/s | -52.1°C | 0.8% | 0hPa | 2.5V | 18:12:15 | 01:52:43 | 00:00:00 | |
| BIOWL9-15 | 2026-09-04 00:43:51 | 53.16467 | 1.02698 | 34° | 5km/h | 25181m | 5.4m/s | -52.1°C | 1.1% | -1.0hPa | 2.5V | 00:00:00 | 00:00:00 | 00:00:00 | |
| DL1XH1-15 | 2026-09-04 00:43:49 | 53.16463 | 1.02692 | 51° | 13km/h | 25170m | 6.4m/s | -52°C | 4% | 0hPa | 2.5V | 08:30:00 | 01:52:39 | 00:00:00 | |
| DM0DOS-11 | 2026-09-04 00:43:46 | 53.16447 | 1.02661 | 82° | 9km/h | 25132m | 6.4m/s | -52°C | 4% | 0hPa | 2.6V | 08:30:00 | 01:52:32 | 00:00:00 | |
| DL1XH-west | 2026-09-04 00:43:42 | 53.16448 | 1.02664 | 52° | 9km/h | 25138m | 5.3m/s | -52°C | 0.7% | 0hPa | 2.6V | 18:12:15 | 01:52:33 | 00:00:00 | |
| BIOWL1-15 | 2026-09-04 00:43:39 | 53.16449 | 1.02650 | 315° | 2km/h | 25104m | 4.7m/s | 0°C | 0% | 0hPa | 2.5V | 18:12:15 | 01:52:27 | 00:00:00 | |
| HTAHTA | 2026-09-04 00:43:37 | 53.16449 | 1.02650 | 315° | 2km/h | 25104m | 4.7m/s | -51.9°C | 1.1% | -1.0hPa | 2.5V | 00:00:00 | 00:00:00 | 00:00:00 | |
| AU51GT2 | 2026-09-04 00:43:34 | 53.16448 | 1.02650 | 29° | 2km/h | 25093m | 6.3m/s | -51.8°C | 1.1% | -1.0hPa | 2.5V | 00:00:00 | 00:00:00 | 00:00:00 | |
| DM0DOS-11 | 2026-09-04 00:43:32 | 53.16445 | 1.02646 | 18° | 7km/h | 25076m | 6.5m/s | -51.7°C | 4% | 0hPa | 2.5V | 08:30:00 | 01:52:22 | 00:00:00 | |
| DL1XH-west | 2026-09-04 00:43:31 | 53.16445 | 1.02646 | 19° | 7km/h | 25076m | 6.5m/s | -51.7°C | 0.7% | 0hPa | 2.5V | 18:12:15 | 01:52:22 | 00:00:00 | |
| DJ2DS-15 | 2026-09-04 00:43:31 | 53.16445 | 1.02646 | 19° | 5km/h | 25077m | 6.4m/s | -51.7°C | 4.0% | 0hPa | 2.5V | 00:00:00 | 01:52:22 | 00:00:00 | |
| DM0DOS-11 | 2026-09-04 00:43:26 | 53.16434 | 1.02646 | 267° | 4km/h | 25018m | 6.2m/s | -51.6°C | 3.9% | 0hPa | 2.5V | 08:30:00 | 01:52:12 | 00:00:00 | |
| DL1XH-west | 2026-09-04 00:43:21 | 53.16434 | 1.02646 | 268° | 4km/h | 25018m | 6.2m/s | -51.6°C | 0.6% | 0hPa | 2.5V | 18:12:15 | 01:52:12 | 00:00:00 | |
| DM0DOS-11 | 2026-09-04 00:43:12 | 53.16431 | 1.02655 | 147° | 4km/h | 24963m | 6.2m/s | -51.7°C | 4% | 0hPa | 2.6V | 08:30:00 | 01:52:02 | 00:00:00 | |
| DL1XH-west | 2026-09-04 00:43:11 | 53.16431 | 1.02655 | 147° | 4km/h | 24963m | 6.2m/s | -51.7°C | 0.7% | 0hPa | 2.6V | 18:12:15 | 01:52:02 | 00:00:00 | |
| DJ2DS-15 | 2026-09-04 00:43:11 | 53.16431 | 1.02655 | 148° | 11km/h | 24963m | 6.1m/s | -51.7°C | 4.0% | 0hPa | 2.5V | 00:00:00 | 01:52:02 | 00:00:00 | |
| DL1XH1-15 | 2026-09-04 00:43:09 | 53.16439 | 1.02665 | 211° | 15km/h | 24934m | 5.7m/s | -51.6°C | 4% | 0hPa | 2.5V | 08:30:00 | 01:51:57 | 00:00:00 | |
| DM0DOS-11 | 2026-09-04 00:43:06 | 53.16449 | 1.02679 | 198° | 7km/h | 24906m | 6.5m/s | -51.5°C | 4% | 0hPa | 2.6V | 08:30:00 | 01:51:52 | 00:00:00 | |
| DL1XH-west | 2026-09-04 00:43:01 | 53.16449 | 1.02679 | 198° | 7km/h | 24906m | 6.5m/s | -51.5°C | 0.7% | 0hPa | 2.6V | 18:12:15 | 01:51:52 | 00:00:00 | |
| DL1XH1-15 | 2026-09-04 00:42:59 | 53.16459 | 1.02685 | 212° | 11km/h | 24878m | 4.7m/s | -51.4°C | 4% | 0hPa | 2.5V | 08:30:00 | 01:51:47 | 00:00:00 | |
| DB0UT-7 | 2026-09-04 00:42:55 | 53.16462 | 1.02688 | 202° | 16km/h | 24873m | 6.2m/s | -51.3°C | 3.9% | 0hPa | 2.5V | 00:00:00 | 01:51:46 | 00:00:00 | |
| DM0DOS-11 | 2026-09-04 00:42:52 | 53.16479 | 1.02698 | 202° | 16km/h | 24849m | 5.3m/s | -51.2°C | 3.9% | 0hPa | 2.5V | 08:30:00 | 01:51:42 | 00:00:00 | |
| DL1XH-west | 2026-09-04 00:42:50 | 53.16484 | 1.02700 | 201° | 16km/h | 24844m | 5m/s | -51.2°C | 0.7% | 0hPa | 2.5V | 18:12:15 | 01:51:41 | 00:00:00 | |
| DL1XH1-15 | 2026-09-04 00:42:49 | 53.16500 | 1.02701 | 172° | 16km/h | 24821m | 5.2m/s | -51.1°C | 3.9% | 0hPa | 2.6V | 08:30:00 | 01:51:37 | 00:00:00 | |
| DM0DOS-11 | 2026-09-04 00:42:47 | 53.16516 | 1.02701 | 176° | 15km/h | 24791m | 5.7m/s | -50.9°C | 3.9% | 0hPa | 2.5V | 08:30:00 | 01:51:32 | 00:00:00 | |
| DL1XH-west | 2026-09-04 00:42:40 | 53.16520 | 1.02700 | 176° | 16km/h | 24785m | 5.1m/s | -50.9°C | 0.6% | 0hPa | 2.5V | 18:12:15 | 01:51:31 | 00:00:00 | |
| DL1XH1-15 | 2026-09-04 00:42:39 | 53.16538 | 1.02698 | 170° | 24km/h | 24761m | 6.8m/s | -50.8°C | 3.8% | 0hPa | 2.5V | 08:30:00 | 01:51:27 | 00:00:00 | |
| HTAHTA | 2026-09-04 00:42:35 | 53.16545 | 1.02696 | 167° | 27km/h | 24755m | 5.7m/s | -50.9°C | 1.0% | -1.0hPa | 2.6V | 00:00:00 | 00:00:00 | 00:00:00 | |
| DM0DOS-11 | 2026-09-04 00:42:32 | 53.16568 | 1.02686 | 158° | 18km/h | 24733m | 4.9m/s | -50.8°C | 3.8% | 0hPa | 2.6V | 08:30:00 | 01:51:22 | 00:00:00 | |
| DL1XH-west | 2026-09-04 00:42:30 | 53.16572 | 1.02683 | 154° | 20km/h | 24727m | 6.4m/s | -50.8°C | 0.6% | 0hPa | 2.6V | 18:12:15 | 01:51:21 | 00:00:00 | |
| DL1XH1-15 | 2026-09-04 00:42:29 | 53.16586 | 1.02668 | 136° | 11km/h | 24703m | 5.4m/s | -50.6°C | 3.7% | 0hPa | 2.5V | 08:30:00 | 01:51:17 | 00:00:00 | |
| DM0DOS-11 | 2026-09-04 00:42:26 | 53.16607 | 1.02648 | 153° | 26km/h | 24676m | 5.4m/s | -50.6°C | 3.7% | 0hPa | 2.6V | 08:30:00 | 01:51:12 | 00:00:00 | |
| DB0UT-7 | 2026-09-04 00:42:24 | 53.16592 | 1.02661 | 150° | 18km/h | 24692m | 6.4m/s | -50.6°C | 3.7% | 0hPa | 2.5V | 00:00:00 | 00:00:00 | 00:00:00 | |
| DL1XH1-15 | 2026-09-04 00:42:20 | 53.16626 | 1.02627 | 147° | 13km/h | 24646m | 6.2m/s | -50.8°C | 3.7% | 0hPa | 2.5V | 08:30:00 | 01:51:07 | 00:00:00 | |
| DL1XH-west | 2026-09-04 00:42:19 | 53.16617 | 1.02639 | 145° | 18km/h | 24664m | 6.1m/s | -50.7°C | 0.5% | 0hPa | 2.5V | 18:12:15 | 01:51:10 | 00:00:00 | |
| DM0DOS-11 | 2026-09-04 00:42:12 | 53.16635 | 1.02607 | 126° | 16km/h | 24616m | 6m/s | -50.9°C | 3.7% | 0hPa | 2.5V | 08:30:00 | 01:51:02 | 00:00:00 | |
| DJ2DS-15 | 2026-09-04 00:42:11 | 53.16635 | 1.02607 | 127° | 20km/h | 24616m | 6.0m/s | -50.8°C | 3.7% | 0hPa | 2.6V | 00:00:00 | 01:51:02 | 00:00:00 | |
| DL1XH1-15 | 2026-09-04 00:42:09 | 53.16651 | 1.02566 | 114° | 26km/h | 24589m | 4.5m/s | -51°C | 3.7% | 0hPa | 2.6V | 08:30:00 | 01:50:57 | 00:00:00 | |
| DL1XH-west | 2026-09-04 00:42:09 | 53.16642 | 1.02594 | 129° | 24km/h | 24606m | 4.5m/s | -50.9°C | 0.5% | 0hPa | 2.5V | 18:12:15 | 01:51:00 | 00:00:00 | |
| DM0DOS-11 | 2026-09-04 00:42:06 | 53.16667 | 1.02525 | 125° | 18km/h | 24564m | 5.4m/s | -51.2°C | 3.7% | 0hPa | 2.5V | 08:30:00 | 01:50:52 | 00:00:00 | |
| AU51GT2 | 2026-09-04 00:42:01 | 53.16667 | 1.02525 | 125° | 16km/h | 24564m | 5.4m/s | -51.2°C | 1.0% | -1.0hPa | 2.5V | 00:00:00 | 00:00:00 | 00:00:00 | |
| DL1XH1-15 | 2026-09-04 00:41:59 | 53.16674 | 1.02497 | 123° | 16km/h | 24537m | 5.4m/s | -51.5°C | 3.8% | 0hPa | 2.5V | 08:30:00 | 01:50:47 | 00:00:00 | |
| DL1XH-west | 2026-09-04 00:41:58 | 53.16671 | 1.02508 | 100° | 13km/h | 24548m | 4.2m/s | -51.4°C | 0.6% | 0hPa | 2.6V | 18:12:15 | 01:50:49 | 00:00:00 | |
| DJ2DS-15 | 2026-09-04 00:41:58 | 53.16672 | 1.02503 | 110° | 13km/h | 24543m | 5.5m/s | -51.5°C | 1.0% | -1.0hPa | 2.5V | 00:00:00 | 00:00:00 | 00:00:00 | |
| DB0UT-7 | 2026-09-04 00:41:54 | 53.16679 | 1.02485 | 123° | 13km/h | 24527m | 4.9m/s | -51.5°C | 3.8% | 0hPa | 2.5V | 00:00:00 | 01:50:45 | 00:00:00 | |
| DJ2DS-15 | 2026-09-04 00:41:51 | 53.16684 | 1.02461 | 111° | 11km/h | 24510m | 5.9m/s | -51.6°C | 3.9% | 0hPa | 2.6V | 00:00:00 | 01:50:42 | 08:30:00 | |
| DL1XH1-15 | 2026-09-04 00:41:49 | 53.16690 | 1.02429 | 102° | 9km/h | 24480m | 5.7m/s | -51.8°C | 3.9% | 0hPa | 2.5V | 08:30:00 | 01:50:37 | 00:00:00 | |
| DL1XH-west | 2026-09-04 00:41:47 | 53.16690 | 1.02433 | 94° | 13km/h | 24486m | 5.5m/s | -51.7°C | 0.6% | 0hPa | 2.5V | 18:12:15 | 01:50:38 | 00:00:00 | |
| BIOWL9-15 | 2026-09-04 00:41:47 | 53.16694 | 1.02421 | 121° | 5km/h | 24457m | 5.4m/s | -52.0°C | 1.1% | -1.0hPa | 2.5V | 00:00:00 | 00:00:00 | 00:00:00 | |
| DL1XH1-15 | 2026-09-04 00:41:39 | 53.16704 | 1.02392 | 96° | 16km/h | 24424m | 4.4m/s | -52°C | 4% | 0hPa | 2.5V | 08:30:00 | 01:50:27 | 00:00:00 | |
| DL1XH-west | 2026-09-04 00:41:36 | 53.16704 | 1.02392 | 96° | 16km/h | 24424m | 4.4m/s | -52°C | 0.7% | 0hPa | 2.5V | 18:12:15 | 01:50:27 | 00:00:00 | |
| DM0DOS-11 | 2026-09-04 00:41:32 | 53.16705 | 1.02374 | 101° | 4km/h | 24397m | 5m/s | -52°C | 4% | 0hPa | 2.5V | 08:30:00 | 01:50:22 | 00:00:00 | |
| DJ2DS-15 | 2026-09-04 00:41:31 | 53.16705 | 1.02374 | 102° | 13km/h | 24398m | 4.9m/s | -51.9°C | 4.0% | 0hPa | 2.6V | 00:00:00 | 01:50:22 | 00:00:00 | |
| AU51GT2 | 2026-09-04 00:41:30 | 53.16705 | 1.02372 | 81° | 5km/h | 24392m | 5.4m/s | -52.0°C | 1.1% | -1.0hPa | 2.6V | 00:00:00 | 00:00:00 | 00:00:00 | |
| DL1XH1-15 | 2026-09-04 00:41:29 | 53.16706 | 1.02353 | 118° | 15km/h | 24370m | 5.3m/s | -51.9°C | 4% | 0hPa | 2.6V | 08:30:00 | 01:50:17 | 00:00:00 | |
| BIOWL1-15 | 2026-09-04 00:41:29 | 53.16705 | 1.02368 | 83° | 9km/h | 24386m | 5.7m/s | -52°C | 0.7% | 0hPa | 2.5V | 18:12:15 | 01:50:20 | 00:00:00 | |
| DL1XH-west | 2026-09-04 00:41:26 | 53.16706 | 1.02353 | 118° | 15km/h | 24370m | 5.3m/s | -51.9°C | 0.7% | 0hPa | 2.6V | 18:12:15 | 01:50:17 | 00:00:00 | |
| BIOWL1-15 | 2026-09-04 00:41:21 | 53.16715 | 1.02276 | 104° | 11km/h | 24303m | 5.5m/s | -51.7°C | 0.6% | 0hPa | 2.5V | 18:12:15 | 01:50:04 | 00:00:00 | |
| DL1XH1-15 | 2026-09-04 00:41:19 | 53.16717 | 1.02293 | 72° | 16km/h | 24318m | 4m/s | -51.7°C | 4% | 0hPa | 2.5V | 08:30:00 | 01:50:07 | 00:00:00 | |
| DL1XH-west | 2026-09-04 00:41:15 | 53.16716 | 1.02287 | 74° | 15km/h | 24314m | 5.1m/s | -51.7°C | 0.6% | 0hPa | 2.5V | 18:12:15 | 01:50:06 | 00:00:00 | |
| DM0DOS-11 | 2026-09-04 00:41:12 | 53.16718 | 1.02266 | 114° | 16km/h | 24291m | 6.4m/s | -51.7°C | 4% | 0hPa | 2.6V | 08:30:00 | 01:50:02 | 00:00:00 | |
| DJ2DS-15 | 2026-09-04 00:41:11 | 53.16718 | 1.02266 | 115° | 13km/h | 24291m | 6.3m/s | -51.7°C | 4.0% | 0hPa | 2.5V | 00:00:00 | 01:50:02 | 00:00:00 | |
| DL1XH1-15 | 2026-09-04 00:41:10 | 53.16726 | 1.02239 | 96° | 11km/h | 24264m | 6m/s | -51.8°C | 4% | 0hPa | 2.5V | 08:30:00 | 01:49:57 | 00:00:00 | |
| BIOWL1-15 | 2026-09-04 00:41:06 | 53.16725 | 1.02239 | 96° | 11km/h | 24264m | 6.1m/s | -51.8°C | 0.7% | 0hPa | 2.5V | 18:12:15 | 01:49:57 | 00:00:00 | |
| DM0DOS-11 | 2026-09-04 00:41:06 | 53.16721 | 1.02216 | 69° | 9km/h | 24237m | 4.5m/s | -51.9°C | 4% | 0hPa | 2.6V | 08:30:00 | 01:49:52 | 00:00:00 | |
| DL1XH-west | 2026-09-04 00:41:04 | 53.16724 | 1.02228 | 71° | 15km/h | 24253m | 4.7m/s | -51.8°C | 0.7% | 0hPa | 2.5V | 18:12:15 | 01:49:55 | 00:00:00 | |
| HTAHTA | 2026-09-04 00:41:02 | 53.16721 | 1.02212 | 90° | 9km/h | 24232m | 5.6m/s | -51.9°C | 1.1% | -1.0hPa | 2.5V | 00:00:00 | 00:00:00 | 00:00:00 | |
| DL1XH1-15 | 2026-09-04 00:41:00 | 53.16727 | 1.02191 | 144° | 15km/h | 24210m | 5.9m/s | -51.9°C | 4% | 0hPa | 2.5V | 08:30:00 | 01:49:47 | 00:00:00 | |
| BIOWL1-15 | 2026-09-04 00:40:56 | 53.16731 | 1.02189 | 166° | 13km/h | 24204m | 4.9m/s | -51.9°C | 0.7% | 0hPa | 2.6V | 18:12:15 | 01:49:46 | 00:00:00 | |
| DL1XH-west | 2026-09-04 00:40:54 | 53.16734 | 1.02188 | 173° | 13km/h | 24199m | 4.1m/s | -51.9°C | 0.7% | 0hPa | 2.6V | 18:12:15 | 01:49:45 | 00:00:00 | |
| DB0UT-7 | 2026-09-04 00:40:54 | 53.16734 | 1.02188 | 173° | 13km/h | 24200m | 4.1m/s | -51.9°C | 4.0% | 0hPa | 2.5V | 00:00:00 | 01:49:45 | 00:00:00 | |
| DM0DOS-11 | 2026-09-04 00:40:52 | 53.16741 | 1.02182 | 122° | 9km/h | 24183m | 5.2m/s | -51.9°C | 4% | 0hPa | 2.5V | 08:30:00 | 01:49:42 | 00:00:00 | |
| DJ2DS-15 | 2026-09-04 00:40:51 | 53.16741 | 1.02182 | 123° | 16km/h | 24183m | 5.1m/s | -51.9°C | 4.0% | 0hPa | 2.5V | 00:00:00 | 01:49:42 | 00:00:00 | |
| DL1XH1-15 | 2026-09-04 00:40:49 | 53.16739 | 1.02166 | 82° | 13km/h | 24157m | 6.5m/s | -51.8°C | 4% | 0hPa | 2.6V | 08:30:00 | 01:49:37 | 00:00:00 | |
| DB0ND-19 | 2026-09-04 00:40:49 | 53.16741 | 1.02175 | 66° | 5km/h | 24172m | 6.2m/s | 0°C | -1.0% | -1.0hPa | 2.5V | 00:00:00 | 00:00:00 | 00:00:00 | |
| DM0DOS-11 | 2026-09-04 00:40:46 | 53.16753 | 1.02132 | 143° | 22km/h | 24131m | 4.7m/s | -51.6°C | 3.9% | 0hPa | 2.5V | 08:30:00 | 01:49:32 | 00:00:00 | |
| BIOWL1-15 | 2026-09-04 00:40:45 | 53.16749 | 1.02138 | 138° | 22km/h | 24136m | 5.3m/s | -51.7°C | 0.6% | 0hPa | 2.5V | 18:12:15 | 01:49:33 | 00:00:00 | |
| DL1XH-west | 2026-09-04 00:40:44 | 53.16742 | 1.02152 | 121° | 22km/h | 24146m | 4.5m/s | -51.7°C | 0.7% | 0hPa | 2.5V | 18:12:15 | 01:49:35 | 00:00:00 | |
| DL1XH1-15 | 2026-09-04 00:40:39 | 53.16768 | 1.02098 | 106° | 16km/h | 24104m | 6.4m/s | -51.6°C | 3.9% | 0hPa | 2.5V | 08:30:00 | 01:49:27 | 00:00:00 | |
| DM0DOS-11 | 2026-09-04 00:40:36 | 53.16769 | 1.02063 | 99° | 20km/h | 24078m | 4.2m/s | -51.8°C | 4% | 0hPa | 2.6V | 08:30:00 | 01:49:22 | 00:00:00 | |
| DL1XH-west | 2026-09-04 00:40:34 | 53.16769 | 1.02086 | 88° | 15km/h | 24094m | 4.9m/s | -51.7°C | 0.7% | 0hPa | 2.5V | 18:12:15 | 01:49:25 | 00:00:00 | |
| BIOWL1-15 | 2026-09-04 00:40:31 | 53.16794 | 1.01978 | 90° | 26km/h | 24020m | 6.2m/s | -51.8°C | 0.7% | 0hPa | 2.5V | 18:12:15 | 01:49:11 | 00:00:00 | |
| DJ2DS-15 | 2026-09-04 00:40:31 | 53.16769 | 1.02063 | 100° | 22km/h | 24078m | 4.1m/s | -51.7°C | 4.0% | 0hPa | 2.5V | 00:00:00 | 01:49:22 | 00:00:00 | |
| DL1XH1-15 | 2026-09-04 00:40:29 | 53.16784 | 1.02034 | 136° | 24km/h | 24052m | 5.6m/s | -51.9°C | 4% | 0hPa | 2.5V | 08:30:00 | 01:49:17 | 00:00:00 | |
| AU51GT2 | 2026-09-04 00:40:29 | 53.16776 | 1.02045 | 144° | 18km/h | 24062m | 4.6m/s | -51.9°C | 1.1% | -1.0hPa | 2.6V | 00:00:00 | 00:00:00 | 00:00:00 | |
| DM0DOS-11 | 2026-09-04 00:40:25 | 53.16794 | 1.01988 | 89° | 24km/h | 24026m | 4.5m/s | -51.8°C | 3.9% | 0hPa | 2.6V | 08:30:00 | 01:49:12 | 00:00:00 | |
| DL1XH-west | 2026-09-04 00:40:23 | 53.16793 | 1.02007 | 104° | 24km/h | 24037m | 5.8m/s | -51.8°C | 0.6% | 0hPa | 2.6V | 18:12:15 | 01:49:14 | 00:00:00 | |
| DL1XH1-15 | 2026-09-04 00:40:19 | 53.16801 | 1.01922 | 116° | 20km/h | 23988m | 6m/s | -51.9°C | 4% | 0hPa | 2.6V | 08:30:00 | 01:49:05 | 00:00:00 | |
| BIOWL1-15 | 2026-09-04 00:40:16 | 53.16799 | 1.01929 | 116° | 18km/h | 23993m | 4.5m/s | -51.9°C | 0.6% | 0hPa | 2.6V | 18:12:15 | 01:49:06 | 00:00:00 | |
| DM0DOS-11 | 2026-09-04 00:40:12 | 53.16808 | 1.01895 | 108° | 26km/h | 23972m | 4.9m/s | -51.9°C | 3.9% | 0hPa | 2.5V | 08:30:00 | 01:49:02 | 00:00:00 | |
| DL1XH-west | 2026-09-04 00:40:12 | 53.16806 | 1.01905 | 112° | 26km/h | 23977m | 4.6m/s | -51.8°C | 0.7% | 0hPa | 2.5V | 18:12:15 | 01:49:03 | 00:00:00 | |
| DJ2DS-15 | 2026-09-04 00:40:11 | 53.16808 | 1.01895 | 109° | 20km/h | 23973m | 4.8m/s | -51.8°C | 3.9% | 0hPa | 2.5V | 00:00:00 | 01:49:02 | 00:00:00 | |
| DL1XH1-15 | 2026-09-04 00:40:09 | 53.16809 | 1.01831 | 84° | 24km/h | 23934m | 5.5m/s | -51.9°C | 4% | 0hPa | 2.5V | 08:30:00 | 01:48:55 | 00:00:00 | |
| DM0DOS-11 | 2026-09-04 00:40:06 | 53.16807 | 1.01806 | 88° | 18km/h | 23918m | 5.6m/s | -51.8°C | 3.9% | 0hPa | 2.5V | 08:30:00 | 01:48:52 | 00:00:00 | |
| BIOWL1-15 | 2026-09-04 00:40:03 | 53.16808 | 1.01822 | 80° | 20km/h | 23929m | 5.9m/s | -51.9°C | 0.7% | 0hPa | 2.5V | 18:12:15 | 01:48:54 | 00:00:00 | |
| DL1XH-west | 2026-09-04 00:40:02 | 53.16807 | 1.01814 | 81° | 18km/h | 23923m | 5m/s | -51.9°C | 0.7% | 0hPa | 2.5V | 18:12:15 | 01:48:53 | 00:00:00 | |
| HTAHTA | 2026-09-04 00:40:00 | 53.16807 | 1.01789 | 93° | 20km/h | 23907m | 4.8m/s | -51.8°C | 1.1% | -1.0hPa | 2.6V | 00:00:00 | 00:00:00 | 00:00:00 | |
| AU51GT2 | 2026-09-04 00:39:57 | 53.16804 | 1.01766 | 68° | 18km/h | 23891m | 4.9m/s | -51.8°C | 1.1% | -1.0hPa | 2.6V | 00:00:00 | 00:00:00 | 00:00:00 | |
| DM0DOS-11 | 2026-09-04 00:39:56 | 53.16794 | 1.01730 | 47° | 15km/h | 23863m | 4.8m/s | -52°C | 4% | 0hPa | 2.6V | 08:30:00 | 01:48:42 | 00:00:00 | |
| BIOWL1-15 | 2026-09-04 00:39:51 | 53.16794 | 1.01730 | 48° | 15km/h | 23863m | 4.8m/s | -52°C | 0.7% | 0hPa | 2.6V | 18:12:15 | 01:48:42 | 00:00:00 | |
| DJ2DS-15 | 2026-09-04 00:39:51 | 53.16794 | 1.01730 | 48° | 11km/h | 23863m | 4.8m/s | -52.0°C | 4.0% | 0hPa | 2.6V | 00:00:00 | 01:48:42 | 00:00:00 | |
| DL1XH1-15 | 2026-09-04 00:39:47 | 53.16785 | 1.01697 | 62° | 13km/h | 23827m | 4.4m/s | -51.9°C | 3.9% | 0hPa | 2.5V | 08:30:00 | 01:48:35 | 00:00:00 | |
| DM0DOS-11 | 2026-09-04 00:39:46 | 53.16783 | 1.01680 | 82° | 15km/h | 23811m | 5.2m/s | -52°C | 3.9% | 0hPa | 2.6V | 08:30:00 | 01:48:32 | 00:00:00 | |
| BIOWL1-15 | 2026-09-04 00:39:42 | 53.16781 | 1.01668 | 72° | 15km/h | 23801m | 3.9m/s | -52.2°C | 0.7% | 0hPa | 2.5V | 18:12:15 | 01:48:30 | 00:00:00 | |
| DL1XH-west | 2026-09-04 00:39:40 | 53.16782 | 1.01674 | 71° | 15km/h | 23805m | 5.5m/s | -52.1°C | 0.6% | 0hPa | 2.5V | 18:12:15 | 01:48:31 | 00:00:00 | |
| DM0DOS-11 | 2026-09-04 00:39:36 | 53.16784 | 1.01642 | 179° | 2km/h | 23760m | 5.9m/s | -52.5°C | 4% | 0hPa | 2.5V | 08:30:00 | 01:48:22 | 00:00:00 | |
| BIOWL1-15 | 2026-09-04 00:39:30 | 53.16784 | 1.01641 | 154° | 4km/h | 23754m | 5.5m/s | -52.5°C | 0.7% | 0hPa | 2.5V | 18:12:15 | 01:48:21 | 00:00:00 | |
| AU51GT2 | 2026-09-04 00:39:26 | 53.16790 | 1.01629 | 132° | 11km/h | 23728m | 5.8m/s | -52.8°C | 1.1% | -1.0hPa | 2.5V | 00:00:00 | 00:00:00 | 00:00:00 | |
| DM0DOS-11 | 2026-09-04 00:39:22 | 53.16802 | 1.01614 | 142° | 13km/h | 23707m | 6.1m/s | -52.9°C | 4.1% | 0hPa | 2.5V | 08:30:00 | 01:48:12 | 00:00:00 | |
| DL1XH-west | 2026-09-04 00:39:20 | 53.16805 | 1.01608 | 125° | 7km/h | 23698m | 4.2m/s | -53°C | 0.8% | 0hPa | 2.6V | 18:12:15 | 01:48:10 | 00:00:00 | |
| BIOWL1-15 | 2026-09-04 00:39:19 | 53.16808 | 1.01602 | 126° | 7km/h | 23688m | 5.2m/s | -53.2°C | 0.8% | 0hPa | 2.6V | 18:12:15 | 01:48:08 | 00:00:00 | |
| DM0DOS-11 | 2026-09-04 00:39:16 | 53.16811 | 1.01584 | 94° | 20km/h | 23656m | 4.3m/s | -53.1°C | 4.2% | 0hPa | 2.6V | 08:30:00 | 01:48:02 | 00:00:00 | |
| DL1XH-west | 2026-09-04 00:39:08 | 53.16811 | 1.01558 | 82° | 18km/h | 23640m | 4.9m/s | -53.2°C | 0.9% | 0hPa | 2.5V | 18:12:15 | 01:47:59 | 00:00:00 | |
| BIOWL1-15 | 2026-09-04 00:39:06 | 53.16810 | 1.01528 | 96° | 13km/h | 23620m | 5.5m/s | -53.1°C | 0.8% | 0hPa | 2.5V | 18:12:15 | 01:47:55 | 00:00:00 | |
| DM0DOS-11 | 2026-09-04 00:39:02 | 53.16811 | 1.01519 | 106° | 5km/h | 23604m | 5.5m/s | -53.1°C | 4.2% | 0hPa | 2.6V | 08:30:00 | 01:47:52 | 00:00:00 | |
| DL1XH-west | 2026-09-04 00:38:58 | 53.16811 | 1.01504 | 67° | 11km/h | 23585m | 5.4m/s | -53.1°C | 0.9% | 0hPa | 2.5V | 18:12:15 | 01:47:48 | 00:00:00 | |
| DJ2DS-15 | 2026-09-04 00:38:58 | 53.16811 | 1.01504 | 66° | 11km/h | 23585m | 5.4m/s | -53.1°C | 1.2% | -1.0hPa | 2.5V | 00:00:00 | 00:00:00 | 00:00:00 | |
| DM0DOS-11 | 2026-09-04 00:38:56 | 53.16801 | 1.01476 | 72° | 13km/h | 23553m | 5.8m/s | -52.9°C | 4.2% | 0hPa | 2.5V | 08:30:00 | 01:47:42 | 00:00:00 | |
| BIOWL1-15 | 2026-09-04 00:38:55 | 53.16801 | 1.01476 | 72° | 13km/h | 23553m | 5.8m/s | -52.9°C | 0.8% | 0hPa | 2.5V | 18:12:15 | 01:47:42 | 00:00:00 | |
| DL1XH-west | 2026-09-04 00:38:47 | 53.16799 | 1.01457 | 94° | 13km/h | 23531m | 5.8m/s | -52.9°C | 0.8% | 0hPa | 2.5V | 18:12:15 | 01:47:38 | 00:00:00 | |
| DM0DOS-11 | 2026-09-04 00:38:45 | 53.16797 | 1.01428 | 101° | 9km/h | 23501m | 4.8m/s | -52.9°C | 4.1% | 0hPa | 2.6V | 08:30:00 | 01:47:32 | 00:00:00 | |
| BIOWL1-15 | 2026-09-04 00:38:44 | 53.16798 | 1.01441 | 70° | 11km/h | 23516m | 4.4m/s | -52.9°C | 0.8% | 0hPa | 2.5V | 18:12:15 | 01:47:35 | 00:00:00 | |
| BIOWL9-15 | 2026-09-04 00:38:40 | 53.16798 | 1.01425 | 106° | 5km/h | 23496m | 5.8m/s | -53.0°C | 1.1% | -1.0hPa | 2.5V | 00:00:00 | 00:00:00 | 00:00:00 | |
| BIOWL1-15 | 2026-09-04 00:38:37 | 53.16809 | 1.01330 | 125° | 13km/h | 23396m | 4.9m/s | 0°C | 0% | 0hPa | 2.5V | 18:12:15 | 01:47:12 | 00:00:00 | |
| DL1XH-west | 2026-09-04 00:38:37 | 53.16799 | 1.01417 | 100° | 9km/h | 23480m | 5.9m/s | -53.1°C | 0.8% | 0hPa | 2.5V | 18:12:15 | 01:47:28 | 00:00:00 | |
| DL1XH-west | 2026-09-04 00:38:27 | 53.16796 | 1.01361 | 124° | 13km/h | 23428m | 5.6m/s | -52.8°C | 0.8% | 0hPa | 2.5V | 18:12:15 | 01:47:18 | 00:00:00 | |
| HTAHTA | 2026-09-04 00:38:27 | 53.16798 | 1.01357 | 127° | 13km/h | 23423m | 4.3m/s | -52.8°C | 1.1% | -1.0hPa | 2.5V | 00:00:00 | 00:00:00 | 00:00:00 | |
| DM0DOS-11 | 2026-09-04 00:38:23 | 53.16809 | 1.01330 | 124° | 13km/h | 23396m | 4.9m/s | -52.9°C | 4.1% | 0hPa | 2.5V | 08:30:00 | 01:47:12 | 00:00:00 | |
| DM0DOS-11 | 2026-09-04 00:38:16 | 53.16828 | 1.01265 | 124° | 20km/h | 23336m | 5.8m/s | -53.1°C | 4.2% | 0hPa | 2.6V | 08:30:00 | 01:47:01 | 00:00:00 | |
| DL1XH-west | 2026-09-04 00:38:16 | 53.16816 | 1.01305 | 115° | 11km/h | 23368m | 5.1m/s | -53°C | 0.7% | 0hPa | 2.6V | 18:12:15 | 01:47:07 | 00:00:00 | |
| BIOWL1-15 | 2026-09-04 00:38:11 | 53.16828 | 1.01265 | 125° | 20km/h | 23336m | 5.8m/s | 0°C | 0% | 0hPa | 2.6V | 18:12:15 | 01:47:01 | 00:00:00 | |
| DL1XH1-15 | 2026-09-04 00:38:09 | 53.16846 | 1.01232 | 137° | 20km/h | 23308m | 5.9m/s | -53°C | 0% | 0hPa | 2.6V | 08:30:00 | 01:46:56 | 00:00:00 | |
| DM0DOS-11 | 2026-09-04 00:38:05 | 53.16859 | 1.01209 | 120° | 24km/h | 23287m | 5.8m/s | -53°C | 4.2% | 0hPa | 2.5V | 08:30:00 | 01:46:52 | 00:00:00 | |
| DL1XH-west | 2026-09-04 00:38:05 | 53.16846 | 1.01232 | 137° | 20km/h | 23308m | 5.9m/s | -53.1°C | 0.8% | 0hPa | 2.6V | 18:12:15 | 01:46:56 | 00:00:00 | |
| BIOWL1-15 | 2026-09-04 00:38:00 | 53.16862 | 1.01200 | 116° | 27km/h | 23282m | 5.1m/s | 0°C | 0% | 0hPa | 2.5V | 18:12:15 | 01:46:51 | 00:00:00 | |
| DL1XH1-15 | 2026-09-04 00:37:59 | 53.16880 | 1.01151 | 122° | 26km/h | 23254m | 6m/s | -53°C | 0% | 0hPa | 2.6V | 08:30:00 | 01:46:46 | 00:00:00 | |
| HTAHTA | 2026-09-04 00:37:56 | 53.16879 | 1.01151 | 122° | 26km/h | 23254m | 6.0m/s | -53.0°C | 1.2% | -1.0hPa | 2.5V | 00:00:00 | 00:00:00 | 00:00:00 | |
| DM0DOS-11 | 2026-09-04 00:37:55 | 53.16891 | 1.01123 | 133° | 15km/h | 23232m | 4.6m/s | -53°C | 4.2% | 0hPa | 2.5V | 08:30:00 | 01:46:42 | 00:00:00 | |
| DL1XH-west | 2026-09-04 00:37:54 | 53.16883 | 1.01142 | 123° | 26km/h | 23249m | 4.9m/s | -53°C | 0.8% | 0hPa | 2.5V | 18:12:15 | 01:46:45 | 00:00:00 | |
| AU51GT2 | 2026-09-04 00:37:53 | 53.16889 | 1.01128 | 133° | 15km/h | 23238m | 6.0m/s | -53.0°C | 1.1% | -1.0hPa | 2.5V | 00:00:00 | 00:00:00 | 00:00:00 | |
| DL1XH-west | 2026-09-04 00:37:44 | 53.16916 | 1.01064 | 113° | 29km/h | 23195m | 5.1m/s | -53.1°C | 0.8% | 0hPa | 2.5V | 18:12:15 | 01:46:35 | 00:00:00 | |
| DM0DOS-11 | 2026-09-04 00:37:42 | 53.16922 | 1.01025 | 102° | 31km/h | 23179m | 4.2m/s | -53.2°C | 4.2% | 0hPa | 2.6V | 08:30:00 | 01:46:32 | 00:00:00 | |
| BIOWL9-15 | 2026-09-04 00:37:38 | 53.16929 | 1.00995 | 126° | 18km/h | 23163m | 5.1m/s | -53.2°C | 1.1% | -1.0hPa | 2.5V | 00:00:00 | 00:00:00 | 00:00:00 | |
| DM0DOS-11 | 2026-09-04 00:37:36 | 53.16949 | 1.00941 | 102° | 24km/h | 23124m | 5m/s | -53.2°C | 4.2% | 0hPa | 2.5V | 08:30:00 | 01:46:22 | 00:00:00 | |
| DL1XH-west | 2026-09-04 00:37:34 | 53.16943 | 1.00967 | 122° | 24km/h | 23141m | 5.7m/s | -53.2°C | 0.8% | 0hPa | 2.6V | 18:12:15 | 01:46:25 | 00:00:00 | |
| DJ2DS-15 | 2026-09-04 00:37:31 | 53.16949 | 1.00940 | 103° | 24km/h | 23125m | 5.0m/s | -53.1°C | 4.2% | 0hPa | 2.6V | 00:00:00 | 01:46:22 | 00:00:00 | |
| DL1XH1-15 | 2026-09-04 00:37:29 | 53.16956 | 1.00908 | 113° | 29km/h | 23107m | 5m/s | -53.2°C | 0% | 0hPa | 2.6V | 08:30:00 | 01:46:19 | 00:00:00 | |
| BIOWL1-15 | 2026-09-04 00:37:26 | 53.16972 | 1.00864 | 135° | 27km/h | 23081m | 5.2m/s | 0°C | 0% | 0hPa | 2.5V | 18:12:15 | 01:46:14 | 00:00:00 | |
| DM0DOS-11 | 2026-09-04 00:37:25 | 53.16982 | 1.00847 | 126° | 26km/h | 23071m | 5.2m/s | -53.1°C | 4.2% | 0hPa | 2.5V | 08:30:00 | 01:46:12 | 00:00:00 | |
| DL1XH-west | 2026-09-04 00:37:23 | 53.16977 | 1.00855 | 134° | 27km/h | 23076m | 4.8m/s | -53.1°C | 0.9% | 0hPa | 2.5V | 18:12:15 | 01:46:13 | 00:00:00 | |
| AU51GT2 | 2026-09-04 00:37:22 | 53.16982 | 1.00847 | 126° | 26km/h | 23071m | 5.2m/s | -53.1°C | 1.2% | -1.0hPa | 2.6V | 00:00:00 | 00:00:00 | 00:00:00 | |
| DL1XH1-15 | 2026-09-04 00:37:19 | 53.16988 | 1.00822 | 108° | 20km/h | 23054m | 5.8m/s | -53.1°C | 0% | 0hPa | 2.6V | 08:30:00 | 01:46:09 | 00:00:00 | |
| BIOWL1-15 | 2026-09-04 00:37:15 | 53.17005 | 1.00761 | 127° | 24km/h | 23010m | 4.2m/s | 0°C | 0% | 0hPa | 2.6V | 18:12:15 | 01:46:01 | 00:00:00 | |
| DM0DOS-11 | 2026-09-04 00:37:12 | 53.17001 | 1.00769 | 125° | 22km/h | 23015m | 5.5m/s | -53.4°C | 4.3% | 0hPa | 2.6V | 08:30:00 | 01:46:02 | 00:00:00 | |
| DL1XH-west | 2026-09-04 00:37:12 | 53.17001 | 1.00769 | 126° | 22km/h | 23015m | 5.5m/s | -53.4°C | 0.9% | 0hPa | 2.6V | 18:12:15 | 01:46:02 | 00:00:00 | |
| DJ2DS-15 | 2026-09-04 00:37:11 | 53.17001 | 1.00769 | 126° | 22km/h | 23015m | 5.5m/s | -53.3°C | 4.3% | 0hPa | 2.5V | 00:00:00 | 01:46:02 | 00:00:00 | |
| DL1XH1-15 | 2026-09-04 00:37:09 | 53.17011 | 1.00744 | 113° | 26km/h | 22999m | 5.7m/s | -53.3°C | 0% | 0hPa | 2.5V | 08:30:00 | 01:45:59 | 00:00:00 | |
| BIOWL9-15 | 2026-09-04 00:37:07 | 53.17013 | 1.00734 | 103° | 26km/h | 22994m | 5.0m/s | -53.3°C | 1.2% | -1.0hPa | 2.5V | 00:00:00 | 00:00:00 | 00:00:00 | |
| DM0DOS-11 | 2026-09-04 00:37:06 | 53.17017 | 1.00676 | 79° | 20km/h | 22960m | 5.1m/s | -53.3°C | 4.3% | 0hPa | 2.5V | 08:30:00 | 01:45:52 | 00:00:00 | |
| BIOWL1-15 | 2026-09-04 00:37:02 | 53.17017 | 1.00649 | 95° | 16km/h | 22938m | 6.2m/s | 0°C | 0% | 0hPa | 2.6V | 18:12:15 | 01:45:48 | 00:00:00 | |
| DL1XH-west | 2026-09-04 00:37:01 | 53.17017 | 1.00676 | 79° | 20km/h | 22960m | 5.1m/s | -53.3°C | 0.9% | 0hPa | 2.5V | 18:12:15 | 01:45:52 | 00:00:00 | |
| DB0UT-7 | 2026-09-04 00:37:01 | 53.17017 | 1.00676 | 80° | 24km/h | 22961m | 5.1m/s | -53.3°C | 4.3% | 0hPa | 2.5V | 00:00:00 | 01:45:52 | 08:30:00 | |
| DL1XH1-15 | 2026-09-04 00:36:59 | 53.17016 | 1.00656 | 93° | 15km/h | 22943m | 5.1m/s | -53.4°C | 0% | 0hPa | 2.5V | 08:30:00 | 01:45:49 | 00:00:00 | |
| HTAHTA | 2026-09-04 00:36:54 | 53.17023 | 1.00574 | 87° | 29km/h | 22898m | 5.4m/s | -53.5°C | 1.2% | -1.0hPa | 2.6V | 00:00:00 | 00:00:00 | 00:00:00 | |
| DM0DOS-11 | 2026-09-04 00:36:52 | 53.17022 | 1.00587 | 96° | 31km/h | 22904m | 6m/s | -53.5°C | 4.4% | 0hPa | 2.6V | 08:30:00 | 01:45:42 | 00:00:00 | |
| DL1XH-west | 2026-09-04 00:36:50 | 53.17023 | 1.00574 | 87° | 31km/h | 22898m | 5.4m/s | -53.5°C | 0.9% | 0hPa | 2.6V | 18:12:15 | 01:45:41 | 00:00:00 | |
| DL1XH1-15 | 2026-09-04 00:36:49 | 53.17020 | 1.00539 | 83° | 24km/h | 22883m | 5.8m/s | -53.4°C | 0% | 0hPa | 2.5V | 08:30:00 | 01:45:38 | 00:00:00 | |
| DM0DOS-11 | 2026-09-04 00:36:46 | 53.17012 | 1.00485 | 73° | 24km/h | 22849m | 6.2m/s | -53.1°C | 4.3% | 0hPa | 2.6V | 08:30:00 | 01:45:32 | 00:00:00 | |
| DL1XH-west | 2026-09-04 00:36:40 | 53.17010 | 1.00475 | 76° | 27km/h | 22844m | 4.7m/s | -53°C | 0.9% | 0hPa | 2.5V | 18:12:15 | 01:45:31 | 00:00:00 | |
| DL1XH1-15 | 2026-09-04 00:36:39 | 53.16999 | 1.00414 | 78° | 26km/h | 22815m | 4.9m/s | 0°C | 0% | 0hPa | 2.6V | 08:30:00 | 01:45:26 | 00:00:00 | |
| BIOWL9-15 | 2026-09-04 00:36:36 | 53.17001 | 1.00425 | 74° | 27km/h | 22821m | 6.2m/s | -52.9°C | 1.2% | -1.0hPa | 2.5V | 00:00:00 | 00:00:00 | 00:00:00 | |
| DM0DOS-11 | 2026-09-04 00:36:34 | 53.16992 | 1.00382 | 52° | 20km/h | 22794m | 4.6m/s | -52.7°C | 4.2% | 0hPa | 2.5V | 08:30:00 | 01:45:22 | 00:00:00 | |
| BIOWL1-15 | 2026-09-04 00:36:33 | 53.16992 | 1.00382 | 52° | 20km/h | 22794m | 4.6m/s | 0°C | 0% | 0hPa | 2.5V | 18:12:15 | 01:45:22 | 00:00:00 | |
| DL1XH-west | 2026-09-04 00:36:30 | 53.16987 | 1.00369 | 66° | 16km/h | 22784m | 5.7m/s | -52.6°C | 0.8% | 0hPa | 2.5V | 18:12:15 | 01:45:20 | 00:00:00 | |
| DL1XH1-15 | 2026-09-04 00:36:29 | 53.16984 | 1.00335 | 83° | 27km/h | 22762m | 4.5m/s | 0°C | 0% | 0hPa | 2.5V | 08:30:00 | 01:45:16 | 00:00:00 | |
| BIOWL1-15 | 2026-09-04 00:36:23 | 53.16983 | 1.00312 | 86° | 24km/h | 22751m | 5.7m/s | 0°C | 0% | 0hPa | 2.5V | 18:12:15 | 01:45:14 | 00:00:00 | |
| DM0DOS-11 | 2026-09-04 00:36:23 | 53.16982 | 1.00294 | 72° | 20km/h | 22741m | 4.6m/s | -52.4°C | 4.1% | 0hPa | 2.6V | 08:30:00 | 01:45:12 | 00:00:00 | |
| DL1XH-west | 2026-09-04 00:36:19 | 53.16977 | 1.00278 | 56° | 22km/h | 22730m | 5m/s | -52.4°C | 0.8% | 0hPa | 2.5V | 18:12:15 | 01:45:10 | 00:00:00 | |
| DM0DOS-11 | 2026-09-04 00:36:16 | 53.16968 | 1.00241 | 81° | 15km/h | 22689m | 4.7m/s | -52.2°C | 4% | 0hPa | 2.5V | 08:30:00 | 01:45:02 | 00:00:00 | |
| DL1XH-west | 2026-09-04 00:36:09 | 53.16968 | 1.00228 | 89° | 15km/h | 22678m | 6.1m/s | -52.2°C | 0.7% | 0hPa | 2.5V | 18:12:15 | 01:45:00 | 00:00:00 | |
| BIOWL9-15 | 2026-09-04 00:36:05 | 53.16966 | 1.00190 | 83° | 20km/h | 22651m | 4.7m/s | -52.3°C | 1.1% | -1.0hPa | 2.5V | 00:00:00 | 00:00:00 | 00:00:00 | |
| DM0DOS-11 | 2026-09-04 00:36:04 | 53.16968 | 1.00170 | 119° | 11km/h | 22634m | 4m/s | -52.5°C | 4.1% | 0hPa | 2.5V | 08:30:00 | 01:44:52 | 00:00:00 | |
| DL1XH-west | 2026-09-04 00:35:59 | 53.16971 | 1.00157 | 96° | 13km/h | 22619m | 5.2m/s | -52.5°C | 0.9% | 0hPa | 2.6V | 18:12:15 | 01:44:49 | 00:00:00 | |
| DJ2DS-15 | 2026-09-04 00:35:57 | 53.16971 | 1.00151 | 96° | 15km/h | 22614m | 4.7m/s | -52.5°C | 1.2% | -1.0hPa | 2.6V | 00:00:00 | 00:00:00 | 00:00:00 | |
| DM0DOS-11 | 2026-09-04 00:35:52 | 53.16980 | 1.00097 | 102° | 26km/h | 22582m | 4m/s | -52.3°C | 4.1% | 0hPa | 2.6V | 08:30:00 | 01:44:42 | 00:00:00 | |
| DL1XH-west | 2026-09-04 00:35:48 | 53.16990 | 1.00058 | 120° | 24km/h | 22561m | 5.1m/s | -52.2°C | 0.8% | 0hPa | 2.5V | 18:12:15 | 01:44:38 | 00:00:00 | |
| DL1XH-west | 2026-09-04 00:35:38 | 53.17001 | 0.99989 | 102° | 16km/h | 22511m | 5.5m/s | -52°C | 0.7% | 0hPa | 2.5V | 18:12:15 | 01:44:29 | 00:00:00 | |
| DM0DOS-11 | 2026-09-04 00:35:36 | 53.17010 | 0.99944 | 99° | 18km/h | 22472m | 4.5m/s | -52.1°C | 4% | 0hPa | 2.5V | 08:30:00 | 01:44:22 | 00:00:00 | |
| DJ2DS-15 | 2026-09-04 00:35:31 | 53.17010 | 0.99943 | 100° | 16km/h | 22472m | 4.5m/s | -52.1°C | 4.0% | 0hPa | 2.5V | 00:00:00 | 01:44:22 | 00:00:00 | |
| DM0DOS-11 | 2026-09-04 00:35:26 | 53.17007 | 0.99882 | 85° | 13km/h | 22418m | 5.8m/s | -52.3°C | 4% | 0hPa | 2.5V | 08:30:00 | 01:44:12 | 00:00:00 | |
| DL1XH-west | 2026-09-04 00:35:26 | 53.17009 | 0.99908 | 97° | 16km/h | 22444m | 4.1m/s | -52.1°C | 0.7% | 0hPa | 2.5V | 18:12:15 | 01:44:17 | 00:00:00 | |
| HTAHTA | 2026-09-04 00:35:20 | 53.17007 | 0.99876 | 95° | 15km/h | 22413m | 5.2m/s | -52.4°C | -1.0% | -1.0hPa | 2.5V | 00:00:00 | 00:00:00 | 00:00:00 | |
| AU51GT2 | 2026-09-04 00:35:17 | 53.17008 | 0.99857 | 82° | 13km/h | 22397m | 5.2m/s | -52.4°C | 1.1% | -1.0hPa | 2.5V | 00:00:00 | 00:00:00 | 00:00:00 | |
| DM0DOS-11 | 2026-09-04 00:35:16 | 53.17003 | 0.99803 | 83° | 18km/h | 22361m | 4.1m/s | -52.7°C | 4.2% | 0hPa | 2.5V | 08:30:00 | 01:44:01 | 00:00:00 | |
| DL1XH-west | 2026-09-04 00:35:15 | 53.17007 | 0.99844 | 83° | 18km/h | 22387m | 6.4m/s | -52.5°C | 0.7% | 0hPa | 2.6V | 18:12:15 | 01:44:06 | 00:00:00 | |
| DJ2DS-15 | 2026-09-04 00:35:11 | 53.17003 | 0.99810 | 76° | 26km/h | 22366m | 3.8m/s | -52.6°C | 4.2% | 0hPa | 2.6V | 00:00:00 | 01:44:02 | 00:00:00 | |
| DM0DOS-11 | 2026-09-04 00:35:05 | 53.17008 | 0.99699 | 86° | 29km/h | 22310m | 5.1m/s | -52.8°C | 4.3% | 0hPa | 2.6V | 08:30:00 | 01:43:51 | 00:00:00 | |
| DL1XH-west | 2026-09-04 00:35:05 | 53.17009 | 0.99754 | 102° | 24km/h | 22335m | 5.2m/s | -52.9°C | 0.9% | 0hPa | 2.5V | 18:12:15 | 01:43:56 | 00:00:00 | |
| BIOWL9-15 | 2026-09-04 00:35:03 | 53.17008 | 0.99687 | 86° | 27km/h | 22304m | 6.5m/s | -52.8°C | 1.2% | -1.0hPa | 2.5V | 00:00:00 | 00:00:00 | 00:00:00 | |
| DB0UT-7 | 2026-09-04 00:35:01 | 53.17009 | 0.99712 | 87° | 27km/h | 22315m | 5.0m/s | -52.8°C | 4.3% | 0hPa | 2.5V | 00:00:00 | 01:43:52 | 00:00:00 | |
| DM0DOS-11 | 2026-09-04 00:34:55 | 53.17008 | 0.99582 | 75° | 26km/h | 22259m | 5.1m/s | -52.5°C | 4.2% | 0hPa | 2.5V | 08:30:00 | 01:43:41 | 00:00:00 | |
| DL1XH-west | 2026-09-04 00:34:55 | 53.17010 | 0.99642 | 97° | 31km/h | 22284m | 5.4m/s | -52.7°C | 0.9% | 0hPa | 2.6V | 18:12:15 | 01:43:46 | 00:00:00 | |
| BIOWL1-15 | 2026-09-04 00:34:49 | 53.17007 | 0.99571 | 76° | 29km/h | 22253m | 5.9m/s | -52.5°C | 0.8% | 0hPa | 2.5V | 18:12:15 | 01:43:40 | 00:00:00 | |
| AU51GT2 | 2026-09-04 00:34:46 | 53.17003 | 0.99534 | 85° | 26km/h | 22237m | 6.2m/s | -52.4°C | 0% | -1.0hPa | 2.5V | 00:00:00 | 00:00:00 | 00:00:00 | |
| DM0DOS-11 | 2026-09-04 00:34:45 | 53.17008 | 0.99465 | 101° | 24km/h | 22206m | 4.9m/s | -52.4°C | 4.2% | 0hPa | 2.5V | 08:30:00 | 01:43:31 | 00:00:00 | |
| DL1XH-west | 2026-09-04 00:34:42 | 53.17005 | 0.99487 | 101° | 29km/h | 22216m | 4.4m/s | -52.4°C | 0.8% | 0hPa | 2.5V | 18:12:15 | 01:43:33 | 00:00:00 | |
| BIOWL1-15 | 2026-09-04 00:34:38 | 53.17008 | 0.99436 | 80° | 27km/h | 22192m | 5.5m/s | -52.4°C | 0.8% | 0hPa | 2.6V | 18:12:15 | 01:43:28 | 00:00:00 | |
| DM0DOS-11 | 2026-09-04 00:34:35 | 53.16996 | 0.99342 | 84° | 29km/h | 22151m | 4.5m/s | -52.2°C | 4.1% | 0hPa | 2.5V | 08:30:00 | 01:43:20 | 00:00:00 | |
| DL1XH-west | 2026-09-04 00:34:30 | 53.16997 | 0.99354 | 84° | 31km/h | 22156m | 4.5m/s | -52.2°C | 0.8% | 0hPa | 2.5V | 18:12:15 | 01:43:21 | 00:00:00 | |
| BIOWL1-15 | 2026-09-04 00:34:28 | 53.16995 | 0.99321 | 79° | 22km/h | 22141m | 5m/s | -52.2°C | 0.7% | 0hPa | 2.5V | 18:12:15 | 01:43:18 | 00:00:00 | |
| DM0DOS-11 | 2026-09-04 00:34:24 | 53.16978 | 0.99249 | 63° | 24km/h | 22099m | 6.1m/s | -52.1°C | 4.1% | 0hPa | 2.5V | 08:30:00 | 01:43:10 | 00:00:00 | |
| DL1XH-west | 2026-09-04 00:34:20 | 53.16981 | 0.99258 | 62° | 22km/h | 22105m | 5m/s | -52.2°C | 0.8% | 0hPa | 2.5V | 18:12:15 | 01:43:11 | 00:00:00 | |
| BIOWL1-15 | 2026-09-04 00:34:17 | 53.16965 | 0.99203 | 73° | 22km/h | 22073m | 5.1m/s | -52.2°C | 0.7% | 0hPa | 2.5V | 18:12:15 | 01:43:05 | 00:00:00 | |
| DL1XH-west | 2026-09-04 00:34:09 | 53.16957 | 0.99159 | 63° | 26km/h | 22047m | 5m/s | -52.2°C | 0.8% | 0hPa | 2.6V | 18:12:15 | 01:43:00 | 00:00:00 | |
| BIOWL1-15 | 2026-09-04 00:34:05 | 53.16941 | 0.99114 | 54° | 33km/h | 22027m | 5.3m/s | -52.2°C | 0.8% | 0hPa | 2.5V | 18:12:15 | 01:42:56 | 00:00:00 | |
| DL1XH-west | 2026-09-04 00:33:59 | 53.16921 | 0.99050 | 64° | 24km/h | 21995m | 4.4m/s | -52.3°C | 0.8% | 0hPa | 2.5V | 18:12:15 | 01:42:50 | 00:00:00 | |
| DM0DOS-11 | 2026-09-04 00:33:58 | 53.16908 | 0.99009 | 56° | 29km/h | 21975m | 5.9m/s | -52.2°C | 4.1% | 0hPa | 2.6V | 08:30:00 | 01:42:46 | 00:00:00 | |
| BIOWL1-15 | 2026-09-04 00:33:55 | 53.16900 | 0.98990 | 55° | 29km/h | 21964m | 4.7m/s | -52.2°C | 0.8% | 0hPa | 2.5V | 18:12:15 | 01:42:44 | 00:00:00 | |
| DJ2DS-15 | 2026-09-04 00:33:51 | 53.16892 | 0.98969 | 66° | 27km/h | 21953m | 4.7m/s | -52.0°C | 4.1% | 0hPa | 2.5V | 00:00:00 | 01:42:42 | 00:00:00 | |
| DM0DOS-11 | 2026-09-04 00:33:48 | 53.16880 | 0.98902 | 78° | 27km/h | 21921m | 4.9m/s | -52°C | 4.1% | 0hPa | 2.5V | 08:30:00 | 01:42:36 | 00:00:00 | |
| DL1XH-west | 2026-09-04 00:33:47 | 53.16883 | 0.98926 | 76° | 27km/h | 21932m | 5.7m/s | -52°C | 0.8% | 0hPa | 2.6V | 18:12:15 | 01:42:38 | 00:00:00 | |
| BIOWL1-15 | 2026-09-04 00:33:42 | 53.16875 | 0.98871 | 73° | 24km/h | 21905m | 5.1m/s | -51.9°C | 0.8% | 0hPa | 2.6V | 18:12:15 | 01:42:33 | 00:00:00 | |
| DM0DOS-11 | 2026-09-04 00:33:38 | 53.16853 | 0.98801 | 63° | 31km/h | 21867m | 4.2m/s | -51.7°C | 4% | 0hPa | 2.6V | 08:30:00 | 01:42:26 | 00:00:00 | |
| DL1XH-west | 2026-09-04 00:33:37 | 53.16857 | 0.98812 | 60° | 29km/h | 21872m | 5.9m/s | -51.7°C | 0.7% | 0hPa | 2.6V | 18:12:15 | 01:42:27 | 00:00:00 | |
| BIOWL1-15 | 2026-09-04 00:33:31 | 53.16840 | 0.98762 | 59° | 24km/h | 21847m | 4.8m/s | -51.6°C | 0.7% | 0hPa | 2.5V | 18:12:15 | 01:42:22 | 00:00:00 | |
| DL1XH-west | 2026-09-04 00:33:25 | 53.16827 | 0.98704 | 64° | 24km/h | 21814m | 4.8m/s | -51.5°C | 0.7% | 0hPa | 2.5V | 18:12:15 | 01:42:16 | 00:00:00 | |
| BIOWL1-15 | 2026-09-04 00:33:21 | 53.16816 | 0.98661 | 65° | 29km/h | 21793m | 5m/s | -51.4°C | 0.6% | 0hPa | 2.5V | 18:12:15 | 01:42:12 | 00:00:00 | |
| DM0DOS-11 | 2026-09-04 00:33:17 | 53.16801 | 0.98599 | 73° | 26km/h | 21760m | 5.5m/s | -51.6°C | 3.9% | 0hPa | 2.5V | 08:30:00 | 01:42:06 | 00:00:00 | |
| DL1XH-west | 2026-09-04 00:33:13 | 53.16798 | 0.98577 | 76° | 31km/h | 21750m | 5.8m/s | -51.7°C | 0.6% | 0hPa | 2.6V | 18:12:15 | 01:42:04 | 00:00:00 | |
| BIOWL1-15 | 2026-09-04 00:33:11 | 53.16793 | 0.98535 | 78° | 35km/h | 21733m | 5.9m/s | -51.8°C | 0.7% | 0hPa | 2.5V | 18:12:15 | 01:42:01 | 00:00:00 | |
| DM0DOS-11 | 2026-09-04 00:33:08 | 53.16783 | 0.98473 | 76° | 27km/h | 21706m | 4.6m/s | -52.2°C | 4.1% | 0hPa | 2.6V | 08:30:00 | 01:41:56 | 00:00:00 | |
| DL1XH-west | 2026-09-04 00:33:02 | 53.16778 | 0.98444 | 74° | 22km/h | 21689m | 5.6m/s | -52.1°C | 0.8% | 0hPa | 2.5V | 18:12:15 | 01:41:53 | 00:00:00 | |
| BIOWL1-15 | 2026-09-04 00:33:00 | 53.16765 | 0.98353 | 80° | 27km/h | 21638m | 6.5m/s | -52.1°C | 0.8% | 0hPa | 2.5V | 18:12:15 | 01:41:44 | 00:00:00 | |
| BIOWL9-15 | 2026-09-04 00:32:59 | 53.16772 | 0.98406 | 77° | 22km/h | 21666m | 6.0m/s | -52.1°C | 1.2% | -1.0hPa | 2.5V | 00:00:00 | 00:00:00 | 00:00:00 | |
| DM0DOS-11 | 2026-09-04 00:32:57 | 53.16767 | 0.98364 | 79° | 27km/h | 21644m | 4.9m/s | -52.1°C | 4% | 0hPa | 2.5V | 08:30:00 | 01:41:45 | 00:00:00 | |
| DL1XH-west | 2026-09-04 00:32:51 | 53.16763 | 0.98331 | 79° | 27km/h | 21627m | 4.5m/s | -52.2°C | 0.8% | 0hPa | 2.6V | 18:12:15 | 01:41:42 | 00:00:00 | |
| DJ2DS-15 | 2026-09-04 00:32:51 | 53.16763 | 0.98331 | 80° | 31km/h | 21628m | 4.5m/s | -52.2°C | 4.1% | 0hPa | 2.6V | 00:00:00 | 01:41:42 | 08:30:00 | |
| DL1XH1-15 | 2026-09-04 00:32:50 | 53.16756 | 0.98283 | 74° | 29km/h | 21605m | 5.4m/s | 0°C | 0% | 0hPa | 2.5V | 08:30:00 | 01:41:38 | 00:00:00 | |
| DM0DOS-11 | 2026-09-04 00:32:47 | 53.16750 | 0.98245 | 75° | 37km/h | 21589m | 6.3m/s | -52.2°C | 4.1% | 0hPa | 2.6V | 08:30:00 | 01:41:35 | 00:00:00 | |
| BIOWL1-15 | 2026-09-04 00:32:46 | 53.16754 | 0.98271 | 76° | 29km/h | 21600m | 4m/s | -52.2°C | 0.8% | 0hPa | 2.5V | 18:12:15 | 01:41:37 | 00:00:00 | |
| DL1XH-west | 2026-09-04 00:32:41 | 53.16743 | 0.98200 | 79° | 35km/h | 21573m | 6m/s | -52.1°C | 0.8% | 0hPa | 2.5V | 18:12:15 | 01:41:32 | 00:00:00 | |
| DM0DOS-11 | 2026-09-04 00:32:37 | 53.16735 | 0.98115 | 87° | 27km/h | 21534m | 5.3m/s | -52.2°C | 4.1% | 0hPa | 2.5V | 08:30:00 | 01:41:25 | 00:00:00 | |
| BIOWL1-15 | 2026-09-04 00:32:35 | 53.16736 | 0.98126 | 90° | 26km/h | 21540m | 5.1m/s | -52.2°C | 0.7% | 0hPa | 2.5V | 18:12:15 | 01:41:26 | 00:00:00 | |
| DL1XH-west | 2026-09-04 00:32:31 | 53.16731 | 0.98079 | 73° | 31km/h | 21517m | 5.5m/s | -52.1°C | 0.8% | 0hPa | 2.6V | 18:12:15 | 01:41:22 | 00:00:00 | |
| BIOWL1-15 | 2026-09-04 00:32:25 | 53.16711 | 0.97990 | 76° | 26km/h | 21472m | 5.3m/s | -52°C | 0.7% | 0hPa | 2.6V | 18:12:15 | 01:41:14 | 00:00:00 | |
| DL1XH-west | 2026-09-04 00:32:20 | 53.16707 | 0.97961 | 82° | 20km/h | 21455m | 6.4m/s | -52.1°C | 0.8% | 0hPa | 2.5V | 18:12:15 | 01:41:11 | 00:00:00 | |
| DL1XH1-15 | 2026-09-04 00:32:16 | 53.16689 | 0.97880 | 79° | 22km/h | 21407m | 4.9m/s | 0°C | 0% | 0hPa | 2.5V | 08:30:00 | 01:41:02 | 00:00:00 | |
| BIOWL1-15 | 2026-09-04 00:32:13 | 53.16690 | 0.97889 | 78° | 22km/h | 21413m | 5.2m/s | -52°C | 0.7% | 0hPa | 2.5V | 18:12:15 | 01:41:03 | 00:00:00 | |
| DL1XH-west | 2026-09-04 00:32:09 | 53.16687 | 0.97864 | 80° | 18km/h | 21396m | 5.2m/s | -51.9°C | 0.7% | 0hPa | 2.6V | 18:12:15 | 01:41:00 | 00:00:00 | |
| DB0UT-7 | 2026-09-04 00:32:01 | 53.16687 | 0.97817 | 90° | 20km/h | 21354m | 5.2m/s | -51.7°C | 4.0% | 0hPa | 2.5V | 00:00:00 | 01:40:52 | 00:00:00 | |
| DL1XH1-15 | 2026-09-04 00:31:59 | 53.16684 | 0.97796 | 65° | 20km/h | 21337m | 4.2m/s | 0°C | 0% | 0hPa | 2.5V | 08:30:00 | 01:40:49 | 00:00:00 | |
| DL1XH-west | 2026-09-04 00:31:59 | 53.16686 | 0.97803 | 71° | 20km/h | 21342m | 5.7m/s | -51.7°C | 0.7% | 0hPa | 2.6V | 18:12:15 | 01:40:50 | 00:00:00 | |
| DM0DOS-11 | 2026-09-04 00:31:59 | 53.16679 | 0.97770 | 79° | 16km/h | 21316m | 5.7m/s | -51.6°C | 4% | 0hPa | 2.6V | 08:30:00 | 01:40:45 | 00:00:00 | |
| DL1XH1-15 | 2026-09-04 00:31:53 | 53.16687 | 0.97723 | 107° | 24km/h | 21284m | 5.6m/s | 0°C | 0% | 0hPa | 2.6V | 08:30:00 | 01:40:39 | 00:00:00 | |
| DJ2DS-15 | 2026-09-04 00:31:51 | 53.16680 | 0.97747 | 112° | 22km/h | 21301m | 5.7m/s | -51.6°C | 3.9% | 0hPa | 2.5V | 00:00:00 | 01:40:42 | 00:00:00 | |
| DM0DOS-11 | 2026-09-04 00:31:49 | 53.16689 | 0.97685 | 86° | 18km/h | 21264m | 4.8m/s | -51.6°C | 3.8% | 0hPa | 2.5V | 08:30:00 | 01:40:35 | 00:00:00 | |
| DL1XH-west | 2026-09-04 00:31:48 | 53.16687 | 0.97723 | 108° | 24km/h | 21285m | 5.6m/s | -51.6°C | 0.7% | 0hPa | 2.6V | 18:12:15 | 01:40:39 | 00:00:00 | |
| HTAHTA | 2026-09-04 00:31:43 | 53.16688 | 0.97652 | 95° | 18km/h | 21242m | 6.1m/s | 0°C | -1.0% | -1.0hPa | 2.5V | 00:00:00 | 00:00:00 | 00:00:00 | |
| AU51GT2 | 2026-09-04 00:31:40 | 53.16688 | 0.97652 | 95° | 18km/h | 21242m | 6.1m/s | -51.8°C | -1.0% | -1.0hPa | 2.5V | 00:00:00 | 00:00:00 | 00:00:00 | |
| DM0DOS-11 | 2026-09-04 00:31:38 | 53.16692 | 0.97598 | 94° | 24km/h | 21209m | 4.9m/s | -52.1°C | 4% | 0hPa | 2.5V | 08:30:00 | 01:40:25 | 00:00:00 | |
| DL1XH-west | 2026-09-04 00:31:38 | 53.16690 | 0.97637 | 100° | 20km/h | 21231m | 4.7m/s | -51.8°C | 0.7% | 0hPa | 2.6V | 18:12:15 | 01:40:29 | 00:00:00 | |
| DL1XH-west | 2026-09-04 00:31:28 | 53.16693 | 0.97529 | 93° | 27km/h | 21178m | 5m/s | -52.4°C | 0.7% | 0hPa | 2.6V | 18:12:15 | 01:40:19 | 00:00:00 | |
| BIOWL1-15 | 2026-09-04 00:31:24 | 53.16696 | 0.97258 | 89° | 37km/h | 21085m | 4.4m/s | -53°C | 0.8% | 0hPa | 2.5V | 18:12:15 | 01:40:00 | 00:00:00 | |
| DL1XH-west | 2026-09-04 00:31:17 | 53.16697 | 0.97385 | 93° | 38km/h | 21124m | 5.4m/s | -52.8°C | 0.8% | 0hPa | 2.6V | 18:12:15 | 01:40:08 | 00:00:00 | |
| DM0DOS-11 | 2026-09-04 00:31:17 | 53.16698 | 0.97338 | 90° | 38km/h | 21110m | 5.3m/s | -52.9°C | 4.1% | 0hPa | 2.5V | 08:30:00 | 01:40:05 | 00:00:00 | |
| BIOWL1-15 | 2026-09-04 00:31:14 | 53.16695 | 0.97243 | 83° | 35km/h | 21081m | 5.9m/s | -53°C | 0.8% | 0hPa | 2.5V | 18:12:15 | 01:39:59 | 00:00:00 | |
| DL1XH1-15 | 2026-09-04 00:31:13 | 53.16697 | 0.97306 | 84° | 38km/h | 21100m | 4.5m/s | 0°C | 0% | 0hPa | 2.6V | 00:00:00 | 01:40:03 | 00:00:00 | |
| DL1XH-west | 2026-09-04 00:31:07 | 53.16693 | 0.97228 | 75° | 37km/h | 21075m | 5.4m/s | -53°C | 0.8% | 0hPa | 2.6V | 18:12:15 | 01:39:58 | 00:00:00 | |
| DL1XH1-15 | 2026-09-04 00:31:06 | 53.16675 | 0.97148 | 64° | 37km/h | 21045m | 5.7m/s | 0°C | 0% | 0hPa | 2.5V | 00:00:00 | 01:39:52 | 00:00:00 | |
| DM0DOS-11 | 2026-09-04 00:31:01 | 53.16667 | 0.97120 | 63° | 37km/h | 21036m | 4.3m/s | -53.3°C | 4.3% | 0hPa | 2.6V | 08:30:00 | 01:39:50 | 00:00:00 | |
| BIOWL1-15 | 2026-09-04 00:30:57 | 53.16633 | 0.97032 | 51° | 27km/h | 20996m | 5.3m/s | -53.3°C | 0.9% | 0hPa | 2.6V | 18:12:15 | 01:39:42 | 00:00:00 | |
| DL1XH-west | 2026-09-04 00:30:56 | 53.16656 | 0.97084 | 61° | 29km/h | 21021m | 4.4m/s | -53.3°C | 0.9% | 0hPa | 2.6V | 18:12:15 | 01:39:47 | 00:00:00 | |
| DL1XH1-15 | 2026-09-04 00:30:55 | 53.16629 | 0.97023 | 54° | 26km/h | 20991m | 4.6m/s | 0°C | 0% | 0hPa | 2.6V | 00:00:00 | 01:39:41 | 00:00:00 | |
| BIOWL9-15 | 2026-09-04 00:30:55 | 53.16648 | 0.97062 | 52° | 31km/h | 21011m | 5.0m/s | -53.3°C | 1.3% | -1.0hPa | 2.5V | 00:00:00 | 00:00:00 | 00:00:00 | |
| DM0DOS-11 | 2026-09-04 00:30:51 | 53.16625 | 0.97014 | 57° | 27km/h | 20986m | 4.8m/s | -53.3°C | 4.2% | 0hPa | 2.5V | 08:30:00 | 01:39:40 | 00:00:00 | |
| DL1XH-west | 2026-09-04 00:30:45 | 53.16610 | 0.96975 | 56° | 24km/h | 20965m | 4.9m/s | -53.4°C | 0.9% | 0hPa | 2.6V | 18:12:15 | 01:39:36 | 00:00:00 | |
| DM0DOS-11 | 2026-09-04 00:30:44 | 53.16585 | 0.96927 | 54° | 24km/h | 20938m | 5.3m/s | -53.5°C | 4.4% | 0hPa | 2.5V | 08:30:00 | 01:39:30 | 00:00:00 | |
| BIOWL1-15 | 2026-09-04 00:30:42 | 53.16589 | 0.96935 | 51° | 26km/h | 20943m | 4.3m/s | -53.5°C | 0.9% | 0hPa | 2.5V | 18:12:15 | 01:39:31 | 00:00:00 | |
| DL1XH-west | 2026-09-04 00:30:35 | 53.16571 | 0.96873 | 72° | 20km/h | 20909m | 5.4m/s | -53.6°C | 1% | 0hPa | 2.5V | 18:12:15 | 01:39:24 | 00:00:00 | |
| BIOWL1-15 | 2026-09-04 00:30:31 | 53.16561 | 0.96764 | 110° | 16km/h | 20831m | 5.6m/s | -53.4°C | 1% | 0hPa | 2.6V | 18:12:15 | 01:39:08 | 00:00:00 | |
| DM0DOS-11 | 2026-09-04 00:30:30 | 53.16564 | 0.96843 | 65° | 22km/h | 20890m | 3.8m/s | -53.6°C | 4.4% | 0hPa | 2.6V | 08:30:00 | 01:39:20 | 00:00:00 | |
| DL1XH1-15 | 2026-09-04 00:30:23 | 53.16557 | 0.96798 | 96° | 15km/h | 20855m | 5.9m/s | 0°C | 0% | 0hPa | 2.6V | 00:00:00 | 01:39:13 | 00:00:00 | |
| DL1XH-west | 2026-09-04 00:30:22 | 53.16557 | 0.96798 | 96° | 15km/h | 20855m | 5.9m/s | -53.6°C | 1% | 0hPa | 2.6V | 18:12:15 | 01:39:13 | 00:00:00 | |
| BIOWL1-15 | 2026-09-04 00:30:14 | 53.16565 | 0.96738 | 109° | 11km/h | 20807m | 6.2m/s | -53.2°C | 0.9% | 0hPa | 2.5V | 18:12:15 | 01:39:03 | 00:00:00 | |
| DL1XH1-15 | 2026-09-04 00:30:12 | 53.16566 | 0.96734 | 117° | 11km/h | 20801m | 4.9m/s | 0°C | 0% | 0hPa | 2.5V | 00:00:00 | 01:39:02 | 00:00:00 | |
| DL1XH-west | 2026-09-04 00:30:11 | 53.16566 | 0.96734 | 118° | 11km/h | 20801m | 4.9m/s | -53.1°C | 0.9% | 0hPa | 2.5V | 18:12:15 | 01:39:02 | 00:00:00 | |
| DM0DOS-11 | 2026-09-04 00:30:10 | 53.16568 | 0.96725 | 109° | 15km/h | 20790m | 5.4m/s | -53°C | 4.2% | 0hPa | 2.6V | 08:30:00 | 01:39:00 | 00:00:00 | |
| DM0DOS-11 | 2026-09-04 00:30:04 | 53.16586 | 0.96667 | 105° | 13km/h | 20739m | 5.6m/s | -52.9°C | 4.1% | 0hPa | 2.5V | 08:30:00 | 01:38:50 | 00:00:00 | |
| BIOWL1-15 | 2026-09-04 00:30:04 | 53.16578 | 0.96696 | 111° | 18km/h | 20764m | 5.1m/s | -53°C | 0.8% | 0hPa | 2.6V | 18:12:15 | 01:38:55 | 00:00:00 | |
| DL1XH-west | 2026-09-04 00:30:01 | 53.16583 | 0.96677 | 122° | 15km/h | 20749m | 4.4m/s | -52.9°C | 0.8% | 0hPa | 2.6V | 18:12:15 | 01:38:52 | 00:00:00 | |
| BIOWL1-15 | 2026-09-04 00:29:56 | 53.16597 | 0.96615 | 107° | 20km/h | 20701m | 5.7m/s | 0°C | 0% | 0hPa | 2.5V | 18:12:15 | 01:38:42 | 00:00:00 | |
| BIOWL9-15 | 2026-09-04 00:29:52 | 53.16595 | 0.96622 | 113° | 16km/h | 20707m | 5.2m/s | -53.3°C | 1.2% | -1.0hPa | 2.6V | 00:00:00 | 00:00:00 | 00:00:00 | |
| DM0DOS-11 | 2026-09-04 00:29:51 | 53.16600 | 0.96598 | 103° | 22km/h | 20691m | 6.1m/s | -53.5°C | 4.3% | 0hPa | 2.6V | 08:30:00 | 01:38:40 | 00:00:00 | |
| DL1XH-west | 2026-09-04 00:29:50 | 53.16598 | 0.96607 | 103° | 22km/h | 20696m | 5m/s | 0°C | 0% | 0hPa | 2.5V | 18:12:15 | 01:38:41 | 00:00:00 | |
| BIOWL1-15 | 2026-09-04 00:29:44 | 53.16622 | 0.96517 | 120° | 27km/h | 20648m | 5.1m/s | 0°C | 0% | 0hPa | 2.6V | 18:12:15 | 01:38:32 | 00:00:00 | |
| DM0DOS-11 | 2026-09-04 00:29:40 | 53.16629 | 0.96496 | 119° | 31km/h | 20637m | 4.9m/s | -53.5°C | 4.3% | 0hPa | 2.5V | 08:30:00 | 01:38:30 | 00:00:00 | |
| DL1XH-west | 2026-09-04 00:29:39 | 53.16629 | 0.96496 | 119° | 31km/h | 20637m | 4.9m/s | 0°C | 0% | 0hPa | 2.5V | 18:12:15 | 01:38:30 | 00:00:00 | |
| DM0DOS-11 | 2026-09-04 00:29:34 | 53.16645 | 0.96384 | 85° | 27km/h | 20583m | 5.1m/s | -53.5°C | 4.3% | 0hPa | 2.5V | 08:30:00 | 01:38:20 | 00:00:00 | |
| BIOWL1-15 | 2026-09-04 00:29:32 | 53.16646 | 0.96417 | 93° | 26km/h | 20599m | 6.1m/s | 0°C | 0% | 0hPa | 2.6V | 18:12:15 | 01:38:23 | 00:00:00 | |
| DL1XH-west | 2026-09-04 00:29:29 | 53.16645 | 0.96384 | 86° | 27km/h | 20583m | 5.1m/s | 0°C | 0% | 0hPa | 2.5V | 18:12:15 | 01:38:20 | 00:00:00 | |
| DM0DOS-11 | 2026-09-04 00:29:21 | 53.16656 | 0.96283 | 97° | 27km/h | 20534m | 4.9m/s | -54°C | 4.4% | 0hPa | 2.6V | 08:30:00 | 01:38:10 | 00:00:00 | |
| DL1XH-west | 2026-09-04 00:29:19 | 53.16656 | 0.96260 | 83° | 26km/h | 20525m | 4.8m/s | 0°C | 0% | 0hPa | 2.5V | 18:12:15 | 01:38:08 | 00:00:00 | |
| DM0DOS-11 | 2026-09-04 00:29:11 | 53.16648 | 0.96184 | 93° | 22km/h | 20486m | 4.3m/s | -54.1°C | 4.4% | 0hPa | 2.5V | 08:30:00 | 01:38:00 | 00:00:00 | |
| DL1XH-west | 2026-09-04 00:29:08 | 53.16648 | 0.96174 | 92° | 26km/h | 20481m | 5.7m/s | 0°C | 0% | 0hPa | 2.5V | 18:12:15 | 01:37:59 | 00:00:00 | |
| DM0DOS-11 | 2026-09-04 00:29:04 | 53.16649 | 0.96081 | 103° | 20km/h | 20435m | 4.5m/s | -53.9°C | 4.4% | 0hPa | 2.6V | 08:30:00 | 01:37:49 | 00:00:00 | |
| DL1XH-west | 2026-09-04 00:28:58 | 53.16649 | 0.96081 | 104° | 20km/h | 20435m | 4.5m/s | 0°C | 0% | 0hPa | 2.6V | 18:12:15 | 01:37:49 | 00:00:00 | |
| DM0DOS-11 | 2026-09-04 00:28:51 | 53.16650 | 0.96002 | 88° | 24km/h | 20393m | 5.4m/s | -53.8°C | 4.4% | 0hPa | 2.5V | 08:30:00 | 01:37:40 | 00:00:00 | |
| DL1XH-west | 2026-09-04 00:28:47 | 53.16650 | 0.95983 | 96° | 22km/h | 20384m | 5.5m/s | 0°C | 0% | 0hPa | 2.5V | 18:12:15 | 01:37:38 | 00:00:00 | |
| DM0DOS-11 | 2026-09-04 00:28:44 | 53.16664 | 0.95913 | 111° | 22km/h | 20344m | 4.8m/s | -53.7°C | 4.4% | 0hPa | 2.6V | 08:30:00 | 01:37:30 | 00:00:00 | |
| DJ2DS-15 | 2026-09-04 00:28:44 | 53.16654 | 0.95958 | 107° | 22km/h | 20369m | 5.8m/s | -53.8°C | 1.3% | -1.0hPa | 2.5V | 00:00:00 | 00:00:00 | 00:00:00 | |
| DM0DOS-11 | 2026-09-04 00:28:31 | 53.16677 | 0.95807 | 101° | 27km/h | 20295m | 4.6m/s | -53.4°C | 4.3% | 0hPa | 2.5V | 08:30:00 | 01:37:20 | 00:00:00 | |
| DB0UT-7 | 2026-09-04 00:28:31 | 53.16674 | 0.95831 | 101° | 26km/h | 20305m | 4.0m/s | -53.4°C | 4.3% | 0hPa | 2.6V | 00:00:00 | 00:00:00 | 00:00:00 | |
| DM0DOS-11 | 2026-09-04 00:28:24 | 53.16693 | 0.95700 | 108° | 20km/h | 20241m | 4.7m/s | -53.5°C | 4.4% | 0hPa | 2.6V | 08:30:00 | 01:37:09 | 00:00:00 | |
| DM0DOS-11 | 2026-09-04 00:28:11 | 53.16700 | 0.95612 | 101° | 26km/h | 20197m | 5.5m/s | -53.5°C | 4.2% | 0hPa | 2.5V | 08:30:00 | 01:37:00 | 00:00:00 | |
| DJ2DS-15 | 2026-09-04 00:28:11 | 53.16697 | 0.95630 | 101° | 29km/h | 20207m | 4.2m/s | -53.4°C | 4.2% | 0hPa | 2.7V | 00:00:00 | 01:37:02 | 00:00:00 | |
| DM0DOS-11 | 2026-09-04 00:28:01 | 53.16715 | 0.95487 | 92° | 31km/h | 20146m | 4.3m/s | -53.4°C | 4.2% | 0hPa | 2.7V | 08:30:00 | 01:36:50 | 00:00:00 | |
| DM0DOS-11 | 2026-09-04 00:27:54 | 53.16718 | 0.95330 | 100° | 38km/h | 20092m | 4.5m/s | -53.9°C | 4.3% | 0hPa | 2.5V | 08:30:00 | 01:36:39 | 00:00:00 | |
| DJ2DS-15 | 2026-09-04 00:27:51 | 53.16714 | 0.95378 | 92° | 46km/h | 20107m | 4.4m/s | -53.5°C | 4.2% | 0hPa | 2.7V | 00:00:00 | 01:36:42 | 00:00:00 | |
| DM0DOS-11 | 2026-09-04 00:27:40 | 53.16725 | 0.95150 | 92° | 55km/h | 20041m | 5m/s | -54.5°C | 4.5% | 0hPa | 2.6V | 08:30:00 | 01:36:29 | 00:00:00 | |
| DJ2DS-15 | 2026-09-04 00:27:32 | 53.16725 | 0.95015 | 84° | 49km/h | 20010m | 6.1m/s | -54.3°C | 1.3% | -1.0hPa | 2.6V | 00:00:00 | 00:00:00 | 00:00:00 | |
| DJ2DS-15 | 2026-09-04 00:27:31 | 53.16724 | 0.94994 | 85° | 55km/h | 20004m | 5.6m/s | -54.2°C | 4.4% | 0hPa | 2.6V | 00:00:00 | 01:36:22 | 00:00:00 | |
| DM0DOS-11 | 2026-09-04 00:27:30 | 53.16720 | 0.94933 | 84° | 53km/h | 19987m | 5m/s | -54.2°C | 4.4% | 0hPa | 2.6V | 08:30:00 | 01:36:19 | 00:00:00 | |
| DM0DOS-11 | 2026-09-04 00:27:21 | 53.16695 | 0.94709 | 77° | 57km/h | 19935m | 4.5m/s | -54.4°C | 4.5% | 0hPa | 2.6V | 08:30:00 | 01:36:09 | 00:00:00 | |
| BIOWL9-15 | 2026-09-04 00:27:17 | 53.16685 | 0.94639 | 75° | 55km/h | 19920m | 6.3m/s | -54.4°C | 1.3% | -1.0hPa | 2.7V | 00:00:00 | 00:00:00 | 00:00:00 | |
| DJ2DS-15 | 2026-09-04 00:27:11 | 53.16670 | 0.94550 | 75° | 53km/h | 19899m | 4.2m/s | -54.3°C | 4.5% | 0hPa | 2.7V | 00:00:00 | 01:36:02 | 00:00:00 | |
| DM0DOS-11 | 2026-09-04 00:27:10 | 53.16658 | 0.94488 | 71° | 51km/h | 19884m | 4.3m/s | -54.4°C | 4.4% | 0hPa | 2.7V | 08:30:00 | 01:35:59 | 00:00:00 | |
| DM0DOS-11 | 2026-09-04 00:27:03 | 53.16610 | 0.94282 | 60° | 55km/h | 19832m | 4.9m/s | -54.3°C | 4.4% | 0hPa | 2.6V | 08:30:00 | 01:35:49 | 00:00:00 | |
| DB0UT-7 | 2026-09-04 00:27:01 | 53.16629 | 0.94345 | 69° | 51km/h | 19847m | 4.5m/s | -54.2°C | 4.4% | 0hPa | 2.6V | 00:00:00 | 01:35:52 | 00:00:00 | |
| DJ2DS-15 | 2026-09-04 00:26:51 | 53.16576 | 0.94137 | 75° | 49km/h | 19797m | 5.6m/s | -54.7°C | 4.6% | 0hPa | 2.6V | 00:00:00 | 01:35:42 | 08:30:00 | |
| DM0DOS-11 | 2026-09-04 00:26:50 | 53.16564 | 0.94075 | 67° | 51km/h | 19781m | 5.1m/s | -54.8°C | 4.6% | 0hPa | 2.7V | 08:30:00 | 01:35:39 | 00:00:00 | |
| DM0DOS-11 | 2026-09-04 00:26:43 | 53.16510 | 0.93879 | 67° | 51km/h | 19731m | 5.5m/s | -54.6°C | 4.5% | 0hPa | 2.6V | 08:30:00 | 01:35:29 | 00:00:00 | |
| DB0UT-7 | 2026-09-04 00:26:31 | 53.16481 | 0.93752 | 74° | 40km/h | 19695m | 5.3m/s | -54.4°C | 4.5% | 0hPa | 2.6V | 00:00:00 | 00:00:00 | 00:00:00 | |
| DM0DOS-11 | 2026-09-04 00:26:30 | 53.16474 | 0.93704 | 74° | 38km/h | 19679m | 4.6m/s | -54.3°C | 4.5% | 0hPa | 2.7V | 08:30:00 | 01:35:19 | 00:00:00 | |
| DM0DOS-11 | 2026-09-04 00:26:23 | 53.16442 | 0.93546 | 73° | 37km/h | 19629m | 5.2m/s | -54.4°C | 4.4% | 0hPa | 2.6V | 08:30:00 | 01:35:09 | 00:00:00 | |
| DJ2DS-15 | 2026-09-04 00:26:20 | 53.16445 | 0.93560 | 70° | 37km/h | 19635m | 5.5m/s | -54.3°C | 1.3% | -1.0hPa | 2.6V | 00:00:00 | 00:00:00 | 00:00:00 | |
| DM0DOS-11 | 2026-09-04 00:26:11 | 53.16396 | 0.93399 | 60° | 47km/h | 19580m | 5.8m/s | -54.7°C | 4.5% | 0hPa | 2.6V | 08:30:00 | 01:34:59 | 00:00:00 | |
| DM0DOS-11 | 2026-09-04 00:26:03 | 53.16351 | 0.93232 | 66° | 40km/h | 19531m | 4.7m/s | -54.9°C | 4.6% | 0hPa | 2.7V | 08:30:00 | 01:34:49 | 00:00:00 | |
| DB0UT-7 | 2026-09-04 00:26:01 | 53.16364 | 0.93280 | 71° | 38km/h | 19546m | 3.8m/s | -54.7°C | 4.5% | 0hPa | 2.7V | 00:00:00 | 01:34:52 | 00:00:00 | |
| DJ2DS-15 | 2026-09-04 00:25:51 | 53.16329 | 0.93125 | 73° | 37km/h | 19497m | 5.6m/s | -55.0°C | 4.6% | 0hPa | 2.7V | 00:00:00 | 01:34:42 | 00:00:00 | |
| DM0DOS-11 | 2026-09-04 00:25:50 | 53.16319 | 0.93076 | 68° | 40km/h | 19481m | 5m/s | -55.1°C | 4.6% | 0hPa | 2.6V | 08:30:00 | 01:34:39 | 00:00:00 | |
| DM0DOS-11 | 2026-09-04 00:25:43 | 53.16294 | 0.92942 | 73° | 35km/h | 19433m | 4.5m/s | -55°C | 4.6% | 0hPa | 2.7V | 08:30:00 | 01:34:29 | 00:00:00 | |
| DJ2DS-15 | 2026-09-04 00:25:31 | 53.16269 | 0.92831 | 73° | 38km/h | 19398m | 4.8m/s | -54.9°C | 4.6% | 0hPa | 2.6V | 00:00:00 | 01:34:22 | 00:00:00 | |
| DM0DOS-11 | 2026-09-04 00:25:30 | 53.16263 | 0.92786 | 80° | 37km/h | 19383m | 4.6m/s | -54.9°C | 4.6% | 0hPa | 2.6V | 08:30:00 | 01:34:19 | 00:00:00 | |
| DM0DOS-11 | 2026-09-04 00:25:24 | 53.16230 | 0.92636 | 63° | 38km/h | 19334m | 5.5m/s | -54.8°C | 4.7% | 0hPa | 2.6V | 08:30:00 | 01:34:09 | 00:00:00 | |
| BIOWL1-15 | 2026-09-04 00:25:21 | 53.16214 | 0.92577 | 63° | 38km/h | 19313m | 4.8m/s | -54.8°C | 1.1% | 0hPa | 2.7V | 18:12:15 | 01:34:05 | 00:00:00 | |
| BIOWL9-15 | 2026-09-04 00:25:13 | 53.16206 | 0.92548 | 66° | 38km/h | 19304m | 5.7m/s | -54.8°C | 1.4% | -1.0hPa | 2.7V | 00:00:00 | 00:00:00 | 00:00:00 | |
| DJ2DS-15 | 2026-09-04 00:25:11 | 53.16202 | 0.92533 | 67° | 31km/h | 19299m | 4.3m/s | -54.7°C | 4.6% | 0hPa | 2.7V | 00:00:00 | 01:34:02 | 00:00:00 | |
| DM0DOS-11 | 2026-09-04 00:25:10 | 53.16188 | 0.92492 | 57° | 37km/h | 19283m | 4.6m/s | -54.7°C | 4.6% | 0hPa | 2.7V | 08:30:00 | 01:33:59 | 00:00:00 | |
| DJ2DS-15 | 2026-09-04 00:25:08 | 53.16183 | 0.92478 | 58° | 35km/h | 19278m | 5.7m/s | -54.7°C | 1.4% | -1.0hPa | 2.6V | 00:00:00 | 00:00:00 | 00:00:00 | |
| DM0DOS-11 | 2026-09-04 00:25:03 | 53.16153 | 0.92379 | 78° | 27km/h | 19232m | 5m/s | -54.4°C | 4.5% | 0hPa | 2.6V | 08:30:00 | 01:33:49 | 00:00:00 | |
| BIOWL1-15 | 2026-09-04 00:25:01 | 53.16158 | 0.92412 | 69° | 27km/h | 19247m | 4.7m/s | -54.5°C | 1.1% | 0hPa | 2.7V | 18:12:15 | 01:33:52 | 00:00:00 | |
| DB0UT-7 | 2026-09-04 00:25:01 | 53.16158 | 0.92412 | 69° | 29km/h | 19247m | 4.7m/s | -54.5°C | 4.6% | 0hPa | 2.7V | 00:00:00 | 01:33:52 | 00:00:00 | |
| DM0DOS-11 | 2026-09-04 00:24:52 | 53.16131 | 0.92283 | 68° | 18km/h | 19183m | 4.7m/s | -54.1°C | 4.5% | 0hPa | 2.6V | 08:30:00 | 01:33:39 | 00:00:00 | |
| BIOWL1-15 | 2026-09-04 00:24:52 | 53.16135 | 0.92300 | 63° | 22km/h | 19192m | 5.3m/s | -54.2°C | 1.1% | 0hPa | 2.7V | 18:12:15 | 01:33:41 | 00:00:00 | |
| DJ2DS-15 | 2026-09-04 00:24:51 | 53.16138 | 0.92308 | 56° | 20km/h | 19198m | 5.5m/s | -54.1°C | 4.5% | 0hPa | 2.7V | 00:00:00 | 01:33:42 | 00:00:00 | |
| DM0DOS-11 | 2026-09-04 00:24:43 | 53.16101 | 0.92191 | 61° | 18km/h | 19129m | 5m/s | -53.8°C | 4.5% | 0hPa | 2.6V | 08:30:00 | 01:33:28 | 00:00:00 | |
| BIOWL1-15 | 2026-09-04 00:24:40 | 53.16097 | 0.92180 | 56° | 13km/h | 19119m | 5.5m/s | -53.8°C | 1% | 0hPa | 2.6V | 18:12:15 | 01:33:26 | 00:00:00 | |
| DJ2DS-15 | 2026-09-04 00:24:32 | 53.16092 | 0.92156 | 86° | 22km/h | 19100m | 4.4m/s | -53.6°C | 1.3% | -1.0hPa | 2.6V | 00:00:00 | 00:00:00 | 00:00:00 | |
| DJ2DS-15 | 2026-09-04 00:24:31 | 53.16092 | 0.92156 | 87° | 20km/h | 19100m | 4.4m/s | -53.6°C | 4.4% | 0hPa | 2.6V | 00:00:00 | 01:33:22 | 00:00:00 | |
| DM0DOS-11 | 2026-09-04 00:24:30 | 53.16089 | 0.92126 | 72° | 26km/h | 19085m | 4.6m/s | -53.5°C | 4.4% | 0hPa | 2.6V | 08:30:00 | 01:33:19 | 00:00:00 | |
| BIOWL1-15 | 2026-09-04 00:24:26 | 53.16080 | 0.92079 | 66° | 13km/h | 19055m | 5.6m/s | -53.3°C | 0.9% | 0hPa | 2.6V | 18:12:15 | 01:33:13 | 00:00:00 | |
| DM0DOS-11 | 2026-09-04 00:24:23 | 53.16079 | 0.92048 | 93° | 20km/h | 19031m | 4.1m/s | -53°C | 4.3% | 0hPa | 2.6V | 08:30:00 | 01:33:08 | 00:00:00 | |
| BIOWL1-15 | 2026-09-04 00:24:16 | 53.16080 | 0.92031 | 103° | 22km/h | 19021m | 4.5m/s | -53°C | 1% | 0hPa | 2.6V | 18:12:15 | 01:33:06 | 00:00:00 | |
| DM0DOS-11 | 2026-09-04 00:24:11 | 53.16079 | 0.91968 | 75° | 20km/h | 18987m | 5.5m/s | -52.7°C | 4.2% | 0hPa | 2.7V | 08:30:00 | 01:32:59 | 00:00:00 | |
| BIOWL1-15 | 2026-09-04 00:24:05 | 53.16084 | 0.91884 | 95° | 20km/h | 18936m | 4.5m/s | -52.6°C | 0.9% | 0hPa | 2.6V | 18:12:15 | 01:32:49 | 00:00:00 | |
| DM0DOS-11 | 2026-09-04 00:24:03 | 53.16084 | 0.91884 | 95° | 20km/h | 18936m | 4.5m/s | -52.6°C | 4.2% | 0hPa | 2.6V | 08:30:00 | 01:32:49 | 00:00:00 | |
| BIOWL1-15 | 2026-09-04 00:23:52 | 53.16088 | 0.91824 | 104° | 27km/h | 18906m | 5.2m/s | 0°C | 0% | 0hPa | 2.6V | 18:12:15 | 01:32:43 | 00:00:00 | |
| DJ2DS-15 | 2026-09-04 00:23:51 | 53.16090 | 0.91812 | 103° | 27km/h | 18901m | 6.3m/s | -52.3°C | 4.1% | 0hPa | 2.6V | 00:00:00 | 01:32:42 | 08:30:00 | |
| DM0DOS-11 | 2026-09-04 00:23:50 | 53.16095 | 0.91783 | 110° | 24km/h | 18883m | 5.4m/s | -52.2°C | 4% | 0hPa | 2.6V | 08:30:00 | 01:32:39 | 00:00:00 | |
| BIOWL1-15 | 2026-09-04 00:23:46 | 53.16117 | 0.91667 | 102° | 35km/h | 18828m | 5.7m/s | 0°C | 0% | 0hPa | 2.7V | 18:12:15 | 01:32:28 | 00:00:00 | |
| DM0DOS-11 | 2026-09-04 00:23:43 | 53.16115 | 0.91680 | 100° | 33km/h | 18833m | 4.2m/s | -52.2°C | 4.1% | 0hPa | 2.6V | 08:30:00 | 01:32:29 | 00:00:00 | |
| BIOWL1-15 | 2026-09-04 00:23:32 | 53.16133 | 0.91554 | 108° | 33km/h | 18782m | 5.7m/s | 0°C | 0% | 0hPa | 2.6V | 18:12:15 | 01:32:19 | 00:00:00 | |
| DB0UT-7 | 2026-09-04 00:23:32 | 53.16123 | 0.91603 | 105° | 44km/h | 18803m | 6.0m/s | -52.2°C | 4.0% | 0hPa | 2.6V | 00:00:00 | 00:00:00 | 00:00:00 | |
| DM0DOS-11 | 2026-09-04 00:23:31 | 53.16133 | 0.91554 | 108° | 33km/h | 18782m | 5.7m/s | -52.3°C | 4.1% | 0hPa | 2.6V | 08:30:00 | 01:32:19 | 00:00:00 | |
| DM0DOS-11 | 2026-09-04 00:23:23 | 53.16158 | 0.91382 | 99° | 42km/h | 18731m | 4.6m/s | -52.2°C | 4% | 0hPa | 2.7V | 08:30:00 | 01:32:09 | 00:00:00 | |
| BIOWL1-15 | 2026-09-04 00:23:17 | 53.16159 | 0.91364 | 97° | 42km/h | 18726m | 5.8m/s | 0°C | 0% | 0hPa | 2.6V | 18:12:15 | 01:32:08 | 00:00:00 | |
| DM0DOS-11 | 2026-09-04 00:23:11 | 53.16172 | 0.91197 | 95° | 49km/h | 18682m | 5.4m/s | -51.9°C | 4% | 0hPa | 2.6V | 08:30:00 | 01:31:59 | 00:00:00 | |
| BIOWL1-15 | 2026-09-04 00:23:07 | 53.16173 | 0.91176 | 93° | 51km/h | 18678m | 4.3m/s | 0°C | 0% | 0hPa | 2.6V | 18:12:15 | 01:31:58 | 00:00:00 | |
| DM0DOS-11 | 2026-09-04 00:23:03 | 53.16174 | 0.90992 | 93° | 46km/h | 18632m | 4.7m/s | -52°C | 3.9% | 0hPa | 2.6V | 08:30:00 | 01:31:49 | 00:00:00 | |
| DB0UT-7 | 2026-09-04 00:23:00 | 53.16173 | 0.91030 | 89° | 53km/h | 18642m | 4.6m/s | -52.0°C | 3.9% | 0hPa | 2.6V | 00:00:00 | 01:31:51 | 00:00:00 | |
| DJ2DS-15 | 2026-09-04 00:22:51 | 53.16170 | 0.90846 | 89° | 55km/h | 18597m | 4.4m/s | -52.2°C | 4.0% | 0hPa | 2.6V | 00:00:00 | 01:31:42 | 00:00:00 | |
| DM0DOS-11 | 2026-09-04 00:22:50 | 53.16167 | 0.90776 | 82° | 53km/h | 18582m | 5.1m/s | -52.2°C | 4% | 0hPa | 2.7V | 08:30:00 | 01:31:39 | 00:00:00 | |
| DJ2DS-15 | 2026-09-04 00:22:44 | 53.16158 | 0.90666 | 77° | 57km/h | 18560m | 4.9m/s | -52.5°C | 1.2% | -1.0hPa | 2.6V | 00:00:00 | 00:00:00 | 00:00:00 | |
| DM0DOS-11 | 2026-09-04 00:22:43 | 53.16140 | 0.90548 | 79° | 55km/h | 18535m | 4.8m/s | -52.6°C | 4.1% | 0hPa | 2.6V | 08:30:00 | 01:31:29 | 00:00:00 | |
| DM0DOS-11 | 2026-09-04 00:22:31 | 53.16106 | 0.90327 | 72° | 55km/h | 18486m | 5.8m/s | -53°C | 4.2% | 0hPa | 2.6V | 08:30:00 | 01:31:19 | 00:00:00 | |
| DB0UT-7 | 2026-09-04 00:22:30 | 53.16115 | 0.90371 | 73° | 60km/h | 18496m | 5.4m/s | -52.7°C | 4.1% | 0hPa | 2.7V | 00:00:00 | 00:00:00 | 08:30:00 | |
| DM0DOS-11 | 2026-09-04 00:22:23 | 53.16063 | 0.90082 | 73° | 64km/h | 18437m | 4.2m/s | -53.1°C | 4.1% | 0hPa | 2.6V | 08:30:00 | 01:31:09 | 00:00:00 | |
| DJ2DS-15 | 2026-09-04 00:22:11 | 53.16032 | 0.89906 | 72° | 55km/h | 18404m | 5.5m/s | -53.1°C | 4.1% | 0hPa | 2.6V | 00:00:00 | 01:31:02 | 00:00:00 | |
| DM0DOS-11 | 2026-09-04 00:22:10 | 53.16018 | 0.89837 | 71° | 58km/h | 18388m | 5.7m/s | -53.2°C | 4.2% | 0hPa | 2.6V | 08:30:00 | 01:30:59 | 00:00:00 | |
| DM0DOS-11 | 2026-09-04 00:22:03 | 53.15971 | 0.89590 | 72° | 53km/h | 18335m | 5.3m/s | -53.6°C | 4.3% | 0hPa | 2.6V | 08:30:00 | 01:30:48 | 00:00:00 | |
| DB0UT-7 | 2026-09-04 00:22:00 | 53.15983 | 0.89655 | 73° | 49km/h | 18350m | 5.4m/s | -53.5°C | 4.3% | 0hPa | 2.6V | 00:00:00 | 01:30:51 | 00:00:00 | |
| DM0DOS-11 | 2026-09-04 00:21:51 | 53.15942 | 0.89401 | 83° | 49km/h | 18293m | 5.4m/s | -53.8°C | 4.5% | 0hPa | 2.6V | 08:30:00 | 01:30:39 | 00:00:00 | |
| DM0DOS-11 | 2026-09-04 00:21:43 | 53.15929 | 0.89203 | 88° | 51km/h | 18248m | 4.1m/s | -53.7°C | 4.4% | 0hPa | 2.6V | 08:30:00 | 01:30:29 | 00:00:00 | |
| DJ2DS-15 | 2026-09-04 00:21:31 | 53.15938 | 0.89058 | 96° | 55km/h | 18216m | 3.8m/s | -53.8°C | 4.4% | 0hPa | 2.7V | 00:00:00 | 01:30:22 | 00:00:00 | |
| DM0DOS-11 | 2026-09-04 00:21:30 | 53.15942 | 0.88998 | 96° | 49km/h | 18203m | 4.6m/s | -53.8°C | 4.4% | 0hPa | 2.7V | 08:30:00 | 01:30:19 | 00:00:00 | |
| DB0UT-7 | 2026-09-04 00:21:30 | 53.15939 | 0.89037 | 96° | 57km/h | 18212m | 5.2m/s | -53.7°C | 4.4% | 0hPa | 2.6V | 00:00:00 | 00:00:00 | 00:00:00 | |
| DM0DOS-11 | 2026-09-04 00:21:23 | 53.15953 | 0.88772 | 92° | 55km/h | 18155m | 3.9m/s | -53.6°C | 4.3% | 0hPa | 2.6V | 08:30:00 | 01:30:09 | 00:00:00 | |
| DJ2DS-15 | 2026-09-04 00:21:11 | 53.15958 | 0.88604 | 94° | 62km/h | 18123m | 5.2m/s | -53.5°C | 4.2% | 0hPa | 2.6V | 00:00:00 | 01:30:02 | 00:00:00 | |
| DM0DOS-11 | 2026-09-04 00:21:10 | 53.15963 | 0.88529 | 97° | 58km/h | 18108m | 5.2m/s | -53.5°C | 4.2% | 0hPa | 2.6V | 08:30:00 | 01:29:59 | 00:00:00 | |
| DM0DOS-11 | 2026-09-04 00:21:03 | 53.15970 | 0.88245 | 93° | 64km/h | 18055m | 4.8m/s | -54.5°C | 4.5% | 0hPa | 2.7V | 08:30:00 | 01:29:48 | 00:00:00 | |
| DJ2DS-15 | 2026-09-04 00:20:56 | 53.15971 | 0.88190 | 91° | 66km/h | 18047m | 5.2m/s | -54.6°C | 1.4% | -1.0hPa | 2.7V | 00:00:00 | 00:00:00 | 00:00:00 | |
| DJ2DS-15 | 2026-09-04 00:20:51 | 53.15968 | 0.88079 | 86° | 60km/h | 18027m | 4.8m/s | -54.5°C | 4.6% | 0hPa | 2.7V | 00:00:00 | 01:29:42 | 08:30:00 | |
| DM0DOS-11 | 2026-09-04 00:20:50 | 53.15965 | 0.88001 | 84° | 62km/h | 18014m | 4.2m/s | -54.6°C | 4.6% | 0hPa | 2.6V | 08:30:00 | 01:29:39 | 00:00:00 | |
| DM0DOS-11 | 2026-09-04 00:20:43 | 53.15955 | 0.87721 | 89° | 57km/h | 17962m | 4.7m/s | -54.8°C | 4.6% | 0hPa | 2.6V | 08:30:00 | 01:29:28 | 00:00:00 | |
| DM0DOS-11 | 2026-09-04 00:20:31 | 53.15952 | 0.87511 | 87° | 58km/h | 17918m | 4.7m/s | -54.8°C | 4.6% | 0hPa | 2.7V | 08:30:00 | 01:29:19 | 00:00:00 | |
| DB0UT-7 | 2026-09-04 00:20:30 | 53.15953 | 0.87558 | 88° | 57km/h | 17928m | 4.2m/s | -54.8°C | 4.6% | 0hPa | 2.6V | 00:00:00 | 00:00:00 | 00:00:00 | |
| DM0DOS-11 | 2026-09-04 00:20:23 | 53.15940 | 0.87272 | 86° | 55km/h | 17867m | 3.9m/s | -54.6°C | 4.6% | 0hPa | 2.6V | 08:30:00 | 01:29:08 | 00:00:00 | |
| DJ2DS-15 | 2026-09-04 00:20:11 | 53.15937 | 0.87139 | 88° | 51km/h | 17839m | 5.1m/s | -54.7°C | 4.6% | 0hPa | 2.6V | 00:00:00 | 01:29:02 | 00:00:00 | |
| DM0DOS-11 | 2026-09-04 00:20:10 | 53.15935 | 0.87077 | 87° | 47km/h | 17824m | 3.7m/s | -54.8°C | 4.6% | 0hPa | 2.6V | 08:30:00 | 01:28:59 | 00:00:00 | |
| DM0DOS-11 | 2026-09-04 00:20:03 | 53.15939 | 0.86841 | 92° | 53km/h | 17772m | 5.2m/s | -54.9°C | 4.7% | 0hPa | 2.7V | 08:30:00 | 01:28:48 | 00:00:00 | |
| BIOWL9-15 | 2026-09-04 00:20:02 | 53.15937 | 0.86908 | 92° | 55km/h | 17787m | 4.6m/s | -54.9°C | 1.5% | -1.0hPa | 2.7V | 00:00:00 | 00:00:00 | 00:00:00 | |
| DM0DOS-11 | 2026-09-04 00:19:51 | 53.15938 | 0.86639 | 89° | 55km/h | 17730m | 4.2m/s | -55°C | 4.7% | 0hPa | 2.7V | 08:30:00 | 01:28:39 | 00:00:00 | |
| BIOWL1-15 | 2026-09-04 00:19:48 | 53.15938 | 0.86639 | 90° | 55km/h | 17730m | 4.3m/s | -55°C | 1.3% | 0hPa | 2.7V | 18:12:15 | 01:28:39 | 00:00:00 | |
| DM0DOS-11 | 2026-09-04 00:19:43 | 53.15942 | 0.86366 | 89° | 62km/h | 17678m | 5m/s | -55.2°C | 4.8% | 0hPa | 2.6V | 08:30:00 | 01:28:28 | 00:00:00 | |
| BIOWL1-15 | 2026-09-04 00:19:37 | 53.15942 | 0.86314 | 89° | 64km/h | 17669m | 5.8m/s | 0°C | 0% | 0hPa | 2.7V | 18:12:15 | 01:28:26 | 00:00:00 | |
| BIOWL9-15 | 2026-09-04 00:19:31 | 53.15941 | 0.86207 | 89° | 62km/h | 17649m | 4.2m/s | -55.1°C | 1.7% | -1.0hPa | 2.6V | 00:00:00 | 00:00:00 | 00:00:00 | |
| DM0DOS-11 | 2026-09-04 00:19:30 | 53.15939 | 0.86127 | 84° | 62km/h | 17635m | 4.6m/s | -55.2°C | 4.9% | 0hPa | 2.6V | 08:30:00 | 01:28:19 | 00:00:00 | |
| BIOWL1-15 | 2026-09-04 00:19:25 | 53.15934 | 0.86051 | 84° | 60km/h | 17621m | 5.3m/s | 0°C | 0% | 0hPa | 2.7V | 18:12:15 | 01:28:16 | 00:00:00 | |
| DM0DOS-11 | 2026-09-04 00:19:23 | 53.15927 | 0.85866 | 84° | 69km/h | 17587m | 4.5m/s | -55.6°C | 5% | 0hPa | 2.7V | 08:30:00 | 01:28:09 | 00:00:00 | |
| DM0DOS-11 | 2026-09-04 00:19:10 | 53.15902 | 0.85578 | 84° | 68km/h | 17538m | 4.7m/s | -55.7°C | 4.9% | 0hPa | 2.6V | 08:30:00 | 01:27:59 | 00:00:00 | |
| DJ2DS-15 | 2026-09-04 00:19:10 | 53.15906 | 0.85635 | 83° | 66km/h | 17549m | 4.2m/s | -55.6°C | 4.9% | 0hPa | 2.6V | 00:00:00 | 01:28:01 | 00:00:00 | |
| DM0DOS-11 | 2026-09-04 00:19:03 | 53.15876 | 0.85310 | 75° | 69km/h | 17490m | 4.5m/s | -55.9°C | 5% | 0hPa | 2.6V | 08:30:00 | 01:27:49 | 00:00:00 | |
| DM0DOS-11 | 2026-09-04 00:18:51 | 53.15830 | 0.85043 | 73° | 60km/h | 17440m | 4.6m/s | -56.1°C | 5.1% | 0hPa | 2.7V | 08:30:00 | 01:27:39 | 00:00:00 | |
| DJ2DS-15 | 2026-09-04 00:18:50 | 53.15838 | 0.85092 | 73° | 58km/h | 17451m | 4.7m/s | -56.1°C | 5.1% | 0hPa | 2.6V | 00:00:00 | 01:27:41 | 00:00:00 | |
| DM0DOS-11 | 2026-09-04 00:18:43 | 53.15783 | 0.84808 | 75° | 60km/h | 17390m | 5.4m/s | -56.3°C | 5.2% | 0hPa | 2.7V | 08:30:00 | 01:27:29 | 00:00:00 | |
| DM0DOS-11 | 2026-09-04 00:18:30 | 53.15754 | 0.84567 | 81° | 57km/h | 17341m | 5.5m/s | -56.5°C | 5.2% | 0hPa | 2.7V | 08:30:00 | 01:27:19 | 00:00:00 | |
| DJ2DS-15 | 2026-09-04 00:18:30 | 53.15759 | 0.84614 | 80° | 55km/h | 17350m | 4.3m/s | -56.3°C | 5.2% | 0hPa | 2.6V | 00:00:00 | 01:27:21 | 00:00:00 | |
| DB0UT-7 | 2026-09-04 00:18:25 | 53.15748 | 0.84498 | 80° | 58km/h | 17326m | 5.1m/s | -56.6°C | 5.2% | 0hPa | 2.6V | 00:00:00 | 01:27:16 | 00:00:00 | |
| DM0DOS-11 | 2026-09-04 00:18:23 | 53.15744 | 0.84344 | 91° | 55km/h | 17293m | 4.3m/s | -57°C | 5.2% | 0hPa | 2.6V | 08:30:00 | 01:27:09 | 00:00:00 | |
| DM0DOS-11 | 2026-09-04 00:18:10 | 53.15748 | 0.84101 | 90° | 60km/h | 17245m | 4.3m/s | -56.9°C | 5.3% | 0hPa | 2.6V | 08:30:00 | 01:26:59 | 00:00:00 | |
| DJ2DS-15 | 2026-09-04 00:18:10 | 53.15748 | 0.84151 | 92° | 64km/h | 17255m | 4.4m/s | -56.9°C | 5.3% | 0hPa | 2.7V | 00:00:00 | 01:27:01 | 00:00:00 | |
| DM0DOS-11 | 2026-09-04 00:18:03 | 53.15753 | 0.83836 | 91° | 66km/h | 17196m | 5.8m/s | -56.7°C | 5.2% | 0hPa | 2.7V | 08:30:00 | 01:26:49 | 00:00:00 | |
| DB0UT-7 | 2026-09-04 00:17:55 | 53.15753 | 0.83754 | 88° | 66km/h | 17181m | 4.3m/s | -56.6°C | 5.2% | 0hPa | 2.6V | 00:00:00 | 00:00:00 | 00:00:00 | |
| DM0DOS-11 | 2026-09-04 00:17:50 | 53.15752 | 0.83566 | 92° | 64km/h | 17147m | 5m/s | -56.7°C | 5.2% | 0hPa | 2.7V | 08:30:00 | 01:26:39 | 00:00:00 | |
| DJ2DS-15 | 2026-09-04 00:17:50 | 53.15752 | 0.83619 | 90° | 66km/h | 17157m | 4.7m/s | -56.6°C | 5.2% | 0hPa | 2.6V | 00:00:00 | 01:26:41 | 08:30:00 | |
| DM0DOS-11 | 2026-09-04 00:17:43 | 53.15742 | 0.83282 | 83° | 68km/h | 17101m | 4.7m/s | -57°C | 5.4% | 0hPa | 2.7V | 08:30:00 | 01:26:29 | 00:00:00 | |
| DM0DOS-11 | 2026-09-04 00:17:31 | 53.15731 | 0.83021 | 84° | 66km/h | 17055m | 5.3m/s | -56.8°C | 5.3% | 0hPa | 2.6V | 08:30:00 | 01:26:19 | 00:00:00 | |
| DJ2DS-15 | 2026-09-04 00:17:30 | 53.15734 | 0.83075 | 87° | 66km/h | 17064m | 4.8m/s | -56.8°C | 5.4% | 0hPa | 2.6V | 00:00:00 | 01:26:21 | 00:00:00 | |
| DB0UT-7 | 2026-09-04 00:17:25 | 53.15723 | 0.82937 | 78° | 64km/h | 17040m | 4.6m/s | -56.7°C | 5.3% | 0hPa | 2.6V | 00:00:00 | 01:26:16 | 00:00:00 | |
| DM0DOS-11 | 2026-09-04 00:17:24 | 53.15705 | 0.82748 | 86° | 62km/h | 17007m | 4.4m/s | -56.5°C | 5.1% | 0hPa | 2.6V | 08:30:00 | 01:26:09 | 00:00:00 | |
| DM0DOS-11 | 2026-09-04 00:17:10 | 53.15680 | 0.82484 | 79° | 64km/h | 16963m | 4.6m/s | -56.6°C | 5.3% | 0hPa | 2.6V | 08:30:00 | 01:25:59 | 00:00:00 | |
| DJ2DS-15 | 2026-09-04 00:17:10 | 53.15686 | 0.82536 | 78° | 60km/h | 16972m | 4.4m/s | -56.6°C | 5.3% | 0hPa | 2.6V | 00:00:00 | 01:26:01 | 00:00:00 | |
| DM0DOS-11 | 2026-09-04 00:17:03 | 53.15647 | 0.82201 | 79° | 58km/h | 16913m | 5.3m/s | -56.8°C | 5.3% | 0hPa | 2.6V | 08:30:00 | 01:25:48 | 00:00:00 | |
| BIOWL1-15 | 2026-09-04 00:17:01 | 53.15660 | 0.82300 | 79° | 66km/h | 16931m | 3.5m/s | -56.8°C | 1.7% | 0hPa | 2.6V | 18:12:15 | 01:25:52 | 00:00:00 | |
| BIOWL1-15 | 2026-09-04 00:16:50 | 53.15624 | 0.82037 | 73° | 60km/h | 16882m | 5m/s | -56.7°C | 1.7% | 0hPa | 2.7V | 18:12:15 | 01:25:41 | 00:00:00 | |
| DM0DOS-11 | 2026-09-04 00:16:49 | 53.15614 | 0.81988 | 70° | 64km/h | 16873m | 4.9m/s | -56.6°C | 5.3% | 0hPa | 2.6V | 08:30:00 | 01:25:39 | 00:00:00 | |
| DM0DOS-11 | 2026-09-04 00:16:43 | 53.15562 | 0.81733 | 71° | 58km/h | 16827m | 5.2m/s | -56.5°C | 5.3% | 0hPa | 2.7V | 08:30:00 | 01:25:29 | 00:00:00 | |
| BIOWL1-15 | 2026-09-04 00:16:41 | 53.15566 | 0.81756 | 73° | 60km/h | 16832m | 4.5m/s | -56.6°C | 1.8% | 0hPa | 2.7V | 18:12:15 | 01:25:30 | 00:00:00 | |
| DM0DOS-11 | 2026-09-04 00:16:32 | 53.15511 | 0.81476 | 75° | 64km/h | 16784m | 3.8m/s | -56.2°C | 5.2% | 0hPa | 2.6V | 08:30:00 | 01:25:19 | 00:00:00 | |
| BIOWL1-15 | 2026-09-04 00:16:31 | 53.15515 | 0.81502 | 74° | 64km/h | 16788m | 4.5m/s | -56.2°C | 1.7% | 0hPa | 2.6V | 18:12:15 | 01:25:20 | 00:00:00 | |
| DJ2DS-15 | 2026-09-04 00:16:30 | 53.15519 | 0.81528 | 73° | 64km/h | 16793m | 4.3m/s | -56.2°C | 5.3% | 0hPa | 2.6V | 00:00:00 | 01:25:21 | 00:00:00 | |
| DB0UT-7 | 2026-09-04 00:16:25 | 53.15498 | 0.81400 | 75° | 64km/h | 16770m | 3.9m/s | 0°C | 0% | 0hPa | 2.6V | 00:00:00 | 01:25:16 | 00:00:00 | |
| DM0DOS-11 | 2026-09-04 00:16:19 | 53.15467 | 0.81228 | 75° | 58km/h | 16739m | 4.7m/s | -56.2°C | 5.2% | 0hPa | 2.6V | 08:30:00 | 01:25:09 | 00:00:00 | |
| BIOWL1-15 | 2026-09-04 00:16:18 | 53.15467 | 0.81228 | 76° | 58km/h | 16739m | 4.7m/s | -56.2°C | 1.8% | 0hPa | 2.6V | 18:12:15 | 01:25:09 | 00:00:00 | |
| DM0DOS-11 | 2026-09-04 00:16:13 | 53.15427 | 0.80943 | 83° | 60km/h | 16688m | 4.8m/s | -56.5°C | 5.5% | 0hPa | 2.7V | 08:30:00 | 01:24:58 | 00:00:00 | |
| BIOWL1-15 | 2026-09-04 00:16:08 | 53.15424 | 0.80893 | 84° | 60km/h | 16678m | 4.5m/s | -56.5°C | 2% | 0hPa | 2.6V | 18:12:15 | 01:24:56 | 00:00:00 | |
| DJ2DS-15 | 2026-09-04 00:16:07 | 53.15426 | 0.80918 | 83° | 58km/h | 16683m | 5.4m/s | -56.5°C | 2.0% | -1.0hPa | 2.7V | 00:00:00 | 00:00:00 | 00:00:00 | |
| DM0DOS-11 | 2026-09-04 00:16:02 | 53.15411 | 0.80672 | 83° | 68km/h | 16641m | 3.8m/s | -56.5°C | 5.6% | 0hPa | 2.7V | 08:30:00 | 01:24:48 | 00:00:00 | |
| BIOWL1-15 | 2026-09-04 00:15:54 | 53.15397 | 0.80480 | 83° | 68km/h | 16608m | 4m/s | -56.4°C | 2% | 0hPa | 2.6V | 18:12:15 | 01:24:41 | 00:00:00 | |
| BIOWL9-15 | 2026-09-04 00:15:54 | 53.15402 | 0.80562 | 84° | 64km/h | 16622m | 5.0m/s | -56.5°C | 2.2% | -1.0hPa | 2.7V | 00:00:00 | 00:00:00 | 00:00:00 | |
| DM0DOS-11 | 2026-09-04 00:15:52 | 53.15392 | 0.80395 | 83° | 68km/h | 16593m | 5m/s | -56.4°C | 5.5% | 0hPa | 2.7V | 08:30:00 | 01:24:38 | 00:00:00 | |
| BIOWL1-15 | 2026-09-04 00:15:43 | 53.15386 | 0.80288 | 88° | 62km/h | 16574m | 4.8m/s | -56.5°C | 2% | 0hPa | 2.6V | 18:12:15 | 01:24:34 | 00:00:00 | |
| DM0DOS-11 | 2026-09-04 00:15:42 | 53.15381 | 0.80136 | 88° | 60km/h | 16546m | 4.2m/s | -56.3°C | 5.6% | 0hPa | 2.7V | 08:30:00 | 01:24:28 | 00:00:00 | |
| BIOWL1-15 | 2026-09-04 00:15:32 | 53.15376 | 0.79984 | 86° | 62km/h | 16517m | 5.6m/s | -56.1°C | 2.1% | 0hPa | 2.7V | 18:12:15 | 01:24:22 | 00:00:00 | |
| DJ2DS-15 | 2026-09-04 00:15:30 | 53.15375 | 0.79958 | 86° | 62km/h | 16512m | 4.5m/s | -56.1°C | 5.5% | 0hPa | 2.7V | 00:00:00 | 01:24:21 | 00:00:00 | |
| DM0DOS-11 | 2026-09-04 00:15:29 | 53.15372 | 0.79879 | 89° | 64km/h | 16497m | 4.5m/s | -56°C | 5.4% | 0hPa | 2.7V | 08:30:00 | 01:24:18 | 00:00:00 | |
| BIOWL9-15 | 2026-09-04 00:15:23 | 53.15373 | 0.79751 | 90° | 58km/h | 16473m | 4.3m/s | -55.9°C | 2.1% | -1.0hPa | 2.7V | 00:00:00 | 00:00:00 | 00:00:00 | |
| DM0DOS-11 | 2026-09-04 00:15:22 | 53.15371 | 0.79596 | 89° | 62km/h | 16444m | 5.5m/s | 0°C | 0% | 0hPa | 2.7V | 08:30:00 | 01:24:07 | 00:00:00 | |
| BIOWL1-15 | 2026-09-04 00:15:21 | 53.15371 | 0.79544 | 92° | 62km/h | 16435m | 4.6m/s | -55.7°C | 2.1% | 0hPa | 2.6V | 18:12:15 | 01:24:05 | 00:00:00 | |
| DM0DOS-11 | 2026-09-04 00:15:11 | 53.15382 | 0.79364 | 95° | 62km/h | 16399m | 4.8m/s | 0°C | 0% | 0hPa | 2.7V | 08:30:00 | 01:23:58 | 00:00:00 | |
| BIOWL1-15 | 2026-09-04 00:15:04 | 53.15384 | 0.79287 | 92° | 64km/h | 16384m | 5.5m/s | -55.8°C | 1.9% | 0hPa | 2.6V | 18:12:15 | 01:23:55 | 00:00:00 | |
| DM0DOS-11 | 2026-09-04 00:15:00 | 53.15395 | 0.79095 | 100° | 64km/h | 16349m | 5.8m/s | 0°C | 0% | 0hPa | 2.7V | 08:30:00 | 01:23:48 | 00:00:00 | |
| BIOWL1-15 | 2026-09-04 00:14:53 | 53.15407 | 0.78989 | 100° | 68km/h | 16330m | 4.9m/s | -55.9°C | 1.9% | 0hPa | 2.6V | 18:12:15 | 01:23:44 | 00:00:00 | |
| BIOWL9-15 | 2026-09-04 00:14:52 | 53.15412 | 0.78933 | 97° | 64km/h | 16321m | 5.8m/s | -55.9°C | 1.9% | -1.0hPa | 2.7V | 00:00:00 | 00:00:00 | 00:00:00 | |
| DM0DOS-11 | 2026-09-04 00:14:50 | 53.15421 | 0.78819 | 96° | 75km/h | 16299m | 4.6m/s | 0°C | 0% | 0hPa | 2.7V | 08:30:00 | 01:23:38 | 00:00:00 | |
| BIOWL1-15 | 2026-09-04 00:14:43 | 53.15429 | 0.78696 | 97° | 77km/h | 16278m | 6.4m/s | -55.8°C | 1.8% | 0hPa | 2.6V | 18:12:15 | 01:23:34 | 00:00:00 | |
| DJ2DS-15 | 2026-09-04 00:14:30 | 53.15456 | 0.78252 | 98° | 88km/h | 16210m | 5.7m/s | -55.5°C | 5.1% | 0hPa | 2.7V | 00:00:00 | 01:23:21 | 00:00:00 | |
| BIOWL1-15 | 2026-09-04 00:13:53 | 53.15469 | 0.76832 | 95° | 88km/h | 16007m | 5.1m/s | -55.6°C | 1.9% | 0hPa | 2.7V | 18:12:15 | 01:22:42 | 00:00:00 | |
| BIOWL9-15 | 2026-09-04 00:13:50 | 53.15472 | 0.76756 | 93° | 91km/h | 15997m | 5.7m/s | -55.6°C | 2.0% | -1.0hPa | 2.7V | 00:00:00 | 00:00:00 | 00:00:00 | |
| DM0DOS-11 | 2026-09-04 00:13:48 | 53.15477 | 0.76638 | 94° | 93km/h | 15982m | 4.8m/s | 0°C | 0% | 0hPa | 2.7V | 08:30:00 | 01:22:37 | 00:00:00 | |
| BIOWL1-15 | 2026-09-04 00:13:40 | 53.15483 | 0.76406 | 93° | 89km/h | 15953m | 4.6m/s | -55.8°C | 2% | 0hPa | 2.6V | 18:12:15 | 01:22:31 | 00:00:00 | |
| DM0DOS-11 | 2026-09-04 00:13:39 | 53.15490 | 0.76257 | 96° | 88km/h | 15932m | 4.2m/s | 0°C | 0% | 0hPa | 2.7V | 08:30:00 | 01:22:27 | 00:00:00 | |
| BIOWL1-15 | 2026-09-04 00:13:29 | 53.15501 | 0.76000 | 92° | 91km/h | 15898m | 5.1m/s | -56.1°C | 2% | 0hPa | 2.6V | 18:12:15 | 01:22:20 | 00:00:00 | |
| BIOWL1-15 | 2026-09-04 00:13:19 | 53.15508 | 0.75612 | 89° | 95km/h | 15850m | 4.1m/s | -55.9°C | 2% | 0hPa | 2.6V | 18:12:15 | 01:22:10 | 00:00:00 | |
| BIOWL1-15 | 2026-09-04 00:13:12 | 53.15504 | 0.75194 | 86° | 88km/h | 15798m | 4.6m/s | -55.8°C | 2.2% | 0hPa | 2.6V | 18:12:15 | 01:21:59 | 00:00:00 | |
| BIOWL1-15 | 2026-09-04 00:12:58 | 53.15485 | 0.74834 | 86° | 91km/h | 15752m | 4.3m/s | -55.8°C | 2.2% | 0hPa | 2.6V | 18:12:15 | 01:21:49 | 00:00:00 | |
| BIOWL1-15 | 2026-09-04 00:12:47 | 53.15456 | 0.74432 | 82° | 89km/h | 15704m | 4.1m/s | -55.7°C | 2.3% | 0hPa | 2.7V | 18:12:15 | 01:21:38 | 00:00:00 | |
| BIOWL1-15 | 2026-09-04 00:12:36 | 53.15424 | 0.73866 | 84° | 93km/h | 15632m | 5.1m/s | -55.4°C | 2.3% | 0hPa | 2.7V | 18:12:15 | 01:21:23 | 00:00:00 | |
| BIOWL1-15 | 2026-09-04 00:12:21 | 53.15400 | 0.73426 | 85° | 93km/h | 15579m | 4.3m/s | -55.6°C | 2.5% | 0hPa | 2.7V | 18:12:15 | 01:21:12 | 00:00:00 | |
| BIOWL1-15 | 2026-09-04 00:12:12 | 53.15381 | 0.73021 | 86° | 93km/h | 15534m | 4.5m/s | -55.5°C | 2.1% | 0hPa | 2.7V | 18:12:15 | 01:21:02 | 00:00:00 | |
| BIOWL1-15 | 2026-09-04 00:12:01 | 53.15361 | 0.72555 | 84° | 104km/h | 15484m | 4.2m/s | -55.4°C | 2.3% | 0hPa | 2.6V | 18:12:15 | 01:20:51 | 00:00:00 | |
| BIOWL1-15 | 2026-09-04 00:11:50 | 53.15338 | 0.72042 | 84° | 104km/h | 15430m | 4m/s | 0°C | 0% | 0hPa | 2.6V | 18:12:15 | 01:20:39 | 00:00:00 | |
| BIOWL1-15 | 2026-09-04 00:11:39 | 53.15313 | 0.71658 | 86° | 102km/h | 15390m | 3.9m/s | 0°C | 0% | 0hPa | 2.6V | 18:12:15 | 01:20:30 | 00:00:00 | |
| BIOWL1-15 | 2026-09-04 00:11:29 | 53.15288 | 0.71203 | 83° | 99km/h | 15341m | 4.7m/s | 0°C | 0% | 0hPa | 2.6V | 18:12:15 | 01:20:19 | 00:00:00 | |
| BIOWL1-15 | 2026-09-04 00:11:18 | 53.15266 | 0.70798 | 85° | 97km/h | 15296m | 3.8m/s | 0°C | 0% | 0hPa | 2.6V | 18:12:15 | 01:20:09 | 00:00:00 | |
| BIOWL1-15 | 2026-09-04 00:11:07 | 53.15242 | 0.70255 | 85° | 88km/h | 15233m | 5.4m/s | 0°C | 0% | 0hPa | 2.6V | 18:12:15 | 01:19:55 | 00:00:00 | |
| DJ2DS-15 | 2026-09-04 00:10:50 | 53.15217 | 0.69730 | 86° | 95km/h | 15173m | 4.4m/s | -55.4°C | 5.6% | 0hPa | 2.6V | 00:00:00 | 01:19:41 | 00:00:00 | |
| DJ2DS-15 | 2026-09-04 00:10:30 | 53.15203 | 0.68931 | 90° | 106km/h | 15084m | 5.1m/s | -55.5°C | 5.7% | 0hPa | 2.6V | 00:00:00 | 01:19:21 | 00:00:00 | |
| DJ2DS-15 | 2026-09-04 00:10:10 | 53.15181 | 0.68034 | 87° | 111km/h | 14994m | 4.0m/s | 0°C | 0% | 0hPa | 2.6V | 00:00:00 | 01:19:01 | 00:00:00 | |
| DJ2DS-15 | 2026-09-04 00:10:06 | 53.15174 | 0.67848 | 87° | 111km/h | 14976m | 4.0m/s | -55.9°C | 2.8% | -1.0hPa | 2.6V | 00:00:00 | 00:00:00 | 00:00:00 | |
| DJ2DS-15 | 2026-09-04 00:09:50 | 53.15130 | 0.67097 | 85° | 108km/h | 14902m | 5.9m/s | 0°C | 0% | 0hPa | 2.6V | 00:00:00 | 01:18:41 | 00:00:00 | |
| DJ2DS-15 | 2026-09-04 00:09:30 | 53.15073 | 0.66228 | 84° | 104km/h | 14811m | 4.5m/s | -57.7°C | -1.0% | -1.0hPa | 2.6V | 00:00:00 | 00:00:00 | 00:00:00 | |
| DM0DOS-11 | 2026-09-04 00:07:15 | 53.14713 | 0.59421 | 83° | 111km/h | 14186m | 6.5m/s | 0°C | 0% | 0hPa | 2.6V | 08:30:00 | 01:16:01 | 00:00:00 | |
| DJ2DS-15 | 2026-09-04 00:07:05 | 53.14701 | 0.59184 | 86° | 115km/h | 14159m | 5.2m/s | -59.1°C | -1.0% | -1.0hPa | 2.7V | 00:00:00 | 00:00:00 | 00:00:00 | |
| DM0DOS-11 | 2026-09-04 00:06:52 | 53.14689 | 0.58504 | 89° | 117km/h | 14097m | 4.8m/s | 0°C | 0% | 0hPa | 2.7V | 08:30:00 | 01:15:42 | 00:00:00 | |
| DM0DOS-11 | 2026-09-04 00:06:47 | 53.14693 | 0.57999 | 91° | 122km/h | 14050m | 5.1m/s | 0°C | 0% | 0hPa | 2.8V | 00:00:00 | 01:15:32 | 00:00:00 | |
| DM0DOS-11 | 2026-09-04 00:06:32 | 53.14705 | 0.57461 | 91° | 133km/h | 14002m | 5.2m/s | 0°C | 0% | 0hPa | 2.7V | 00:00:00 | 01:15:22 | 00:00:00 | |
| DM0DOS-11 | 2026-09-04 00:06:27 | 53.14725 | 0.56898 | 93° | 137km/h | 13955m | 4.9m/s | 0°C | 0% | 0hPa | 2.8V | 00:00:00 | 01:15:12 | 00:00:00 | |
| DM0DOS-11 | 2026-09-04 00:06:14 | 53.14761 | 0.56131 | 94° | 142km/h | 13894m | 5m/s | 0°C | 0% | 0hPa | 2.7V | 00:00:00 | 01:14:59 | 00:00:00 | |
| DJ2DS-15 | 2026-09-04 00:05:53 | 53.14801 | 0.55205 | 96° | 141km/h | 13824m | 4.5m/s | 0°C | 0% | 0hPa | 0V | 00:00:00 | 01:14:44 | 00:00:00 | |
| DJ2DS-15 | 2026-09-04 00:05:30 | 53.14857 | 0.53842 | 95° | 142km/h | 13721m | 4.6m/s | 0°C | 0% | 0hPa | 0V | 00:00:00 | 01:14:21 | 00:00:00 | |
| DJ2DS-15 | 2026-09-04 00:05:10 | 53.14947 | 0.52653 | 97° | 155km/h | 13635m | 3.8m/s | 0°C | 0% | 0hPa | 0V | 00:00:00 | 01:14:01 | 00:00:00 |